[[{"header":{"parameterUnit":"m.s-1","parameterCategory":1,"la1":30.6,"la2":28.766,"lo1":-90.7593,"lo2":-88.6598,"dy":0.0162,"dx":0.0183,"nx":116,"ny":114,"refTime":"2023-09-25T00:00:00:Z","depth":0,"parameterNumber":2,"parameterNumberName":"U-component_of_WINDS"},"data":[0.0,0.0,0.0,0.0,0.0,0.0,0.0,0.0,0.0,0.0,0.0,0.0,0.0,0.0,0.0,0.0,0.0,0.0,0.0,0.0,0.0,0.0,0.0,0.0,0.0,0.0,0.0,0.0,0.0,0.0,0.0,0.0,0.0,0.0,0.0,0.0,0.0,0.0,0.0,0.0,0.0,0.0,0.0,0.0,0.0,0.0,0.0,0.0,0.0,0.0,0.0,0.0,0.0,0.0,0.0,0.0,0.0,0.0,0.0,0.0,0.0,0.0,0.0,0.0,0.0,0.0,0.0,0.0,0.0,0.0,0.0,0.0,0.0,0.0,0.0,0.0,0.0,0.0,0.0,0.0,0.0,0.0,0.0,0.0,0.0,0.0,0.0,0.0,0.0,0.0,0.0,0.0,0.0,0.0,0.0,0.0,0.0,0.0,0.0,0.0,0.0,0.0,0.0,0.0,0.0,0.0,0.0,0.0,0.0,0.0,0.0,0.0,0.0,0.0,0.0,0.0,0.0,0.0,0.0,0.0,0.0,0.0,0.0,0.0,0.0,0.0,0.0,0.0,0.0,0.0,0.0,0.0,0.0,0.0,0.0,0.0,0.0,0.0,0.0,0.0,0.0,0.0,0.0,0.0,0.0,0.0,0.0,0.0,0.0,0.0,0.0,0.0,0.0,0.0,0.0,0.0,0.0,0.0,0.0,0.0,0.0,0.0,0.0,0.0,0.0,0.0,0.0,0.0,0.0,0.0,0.0,0.0,0.0,0.0,0.0,0.0,0.0,0.0,0.0,0.0,0.0,0.0,0.0,0.0,0.0,0.0,0.0,0.0,0.0,0.0,0.0,0.0,0.0,0.0,0.0,0.0,0.0,0.0,0.0,0.0,0.0,0.0,0.0,0.0,0.0,0.0,0.0,0.0,0.0,0.0,0.0,0.0,0.0,0.0,0.0,0.0,0.0,0.0,0.0,0.0,0.0,0.0,0.0,0.0,0.0,0.0,0.0,0.0,0.0,0.0,0.0,0.0,0.0,0.0,0.0,0.0,0.0,0.0,0.0,0.0,0.0,0.0,0.0,0.0,0.0,0.0,0.0,0.0,0.0,0.0,0.0,0.0,0.0,0.0,0.0,0.0,0.0,0.0,0.0,0.0,0.0,0.0,0.0,0.0,0.0,0.0,0.0,0.0,0.0,0.0,0.0,0.0,0.0,0.0,0.0,0.0,0.0,0.0,0.0,0.0,0.0,0.0,0.0,0.0,0.0,0.0,0.0,0.0,0.0,0.0,0.0,0.0,0.0,0.0,0.0,0.0,0.0,0.0,0.0,0.0,0.0,0.0,0.0,0.0,0.0,0.0,0.0,0.0,0.0,0.0,0.0,0.0,0.0,0.0,0.0,0.0,0.0,0.0,0.0,0.0,0.0,0.0,0.0,0.0,0.0,0.0,0.0,0.0,0.0,0.0,0.0,0.0,0.0,0.0,0.0,0.0,0.0,0.0,0.0,0.0,0.0,0.0,0.0,0.0,0.0,0.0,0.0,0.0,0.0,0.0,0.0,0.0,0.0,0.0,0.0,0.0,0.0,0.0,0.0,0.0,0.0,0.0,0.0,0.0,0.0,0.0,0.0,0.0,0.0,0.0,0.0,0.0,0.0,0.0,0.0,0.0,0.0,0.0,0.0,0.0,0.0,0.0,0.0,0.0,0.0,0.0,0.0,0.0,0.0,0.0,0.0,0.0,0.0,0.0,0.0,0.0,0.0,0.0,0.0,0.0,0.0,0.0,0.0,0.0,0.0,0.0,0.0,0.0,0.0,0.0,0.0,0.0,0.0,0.0,0.0,0.0,0.0,0.0,0.0,0.0,0.0,0.0,0.0,0.0,0.0,0.0,0.0,0.0,0.0,0.0,0.0,0.0,0.0,0.0,0.0,0.0,0.0,0.0,0.0,0.0,0.0,0.0,0.0,0.0,0.0,0.0,0.0,0.0,0.0,0.0,0.0,0.0,0.0,0.0,0.0,0.0,0.0,0.0,0.0,0.0,0.0,0.0,0.0,0.0,0.0,0.0,0.0,0.0,0.0,0.0,0.0,0.0,0.0,0.0,0.0,0.0,0.0,0.0,0.0,0.0,0.0,0.0,0.0,0.0,0.0,0.0,0.0,0.0,0.0,0.0,0.0,0.0,0.0,0.0,0.0,0.0,0.0,0.0,0.0,0.0,0.0,0.0,0.0,0.0,0.0,0.0,0.0,0.0,0.0,0.0,0.0,0.0,0.0,0.0,0.0,0.0,0.0,0.0,0.0,0.0,0.0,0.0,0.0,0.0,0.0,0.0,0.0,0.0,0.0,0.0,0.0,0.0,0.0,0.0,0.0,0.0,0.0,0.0,0.0,0.0,0.0,0.0,0.0,0.0,0.0,0.0,0.0,0.0,0.0,0.0,0.0,0.0,0.0,0.0,0.0,0.0,0.0,0.0,0.0,0.0,0.0,0.0,0.0,0.0,0.0,0.0,0.0,0.0,0.0,0.0,0.0,0.0,0.0,0.0,0.0,0.0,0.0,0.0,0.0,0.0,0.0,0.0,0.0,0.0,0.0,0.0,0.0,0.0,0.0,0.0,0.0,0.0,0.0,0.0,0.0,0.0,0.0,0.0,0.0,0.0,0.0,0.0,0.0,0.0,0.0,0.0,0.0,0.0,0.0,0.0,0.0,0.0,0.0,0.0,0.0,0.0,0.0,0.0,0.0,0.0,0.0,0.0,0.0,0.0,0.0,0.0,0.0,0.0,0.0,0.0,0.0,0.0,0.0,0.0,0.0,0.0,0.0,0.0,0.0,0.0,0.0,0.0,0.0,0.0,0.0,0.0,0.0,0.0,0.0,0.0,0.0,0.0,0.0,0.0,0.0,0.0,0.0,0.0,0.0,0.0,0.0,0.0,0.0,0.0,0.0,0.0,0.0,0.0,0.0,0.0,0.0,0.0,0.0,0.0,0.0,0.0,0.0,0.0,0.0,0.0,0.0,0.0,0.0,0.0,0.0,0.0,0.0,0.0,0.0,0.0,0.0,0.0,0.0,0.0,0.0,0.0,0.0,0.0,0.0,0.0,0.0,0.0,0.0,0.0,0.0,0.0,0.0,0.0,0.0,0.0,0.0,0.0,0.0,0.0,0.0,0.0,0.0,0.0,0.0,0.0,0.0,0.0,0.0,0.0,0.0,0.0,0.0,0.0,0.0,0.0,0.0,0.0,0.0,0.0,0.0,0.0,0.0,0.0,0.0,0.0,0.0,0.0,0.0,0.0,0.0,0.0,0.0,0.0,0.0,0.0,0.0,0.0,0.0,0.0,0.0,0.0,0.0,0.0,0.0,0.0,0.0,0.0,0.0,0.0,0.0,0.0,0.0,0.0,0.0,0.0,0.0,0.0,0.0,0.0,0.0,0.0,0.0,0.0,0.0,0.0,0.0,0.0,0.0,0.0,0.0,0.0,0.0,0.0,0.0,0.0,0.0,0.0,0.0,0.0,0.0,0.0,0.0,0.0,0.0,0.0,0.0,0.0,0.0,0.0,0.0,0.0,0.0,0.0,0.0,0.0,0.0,0.0,0.0,0.0,0.0,0.0,0.0,0.0,0.0,0.0,0.0,0.0,0.0,0.0,0.0,0.0,0.0,0.0,0.0,0.0,0.0,0.0,0.0,0.0,0.0,0.0,0.0,0.0,0.0,0.0,0.0,0.0,0.0,0.0,0.0,0.0,0.0,0.0,0.0,0.0,0.0,0.0,0.0,0.0,0.0,0.0,0.0,0.0,0.0,0.0,0.0,0.0,0.0,0.0,0.0,0.0,0.0,0.0,0.0,0.0,0.0,0.0,0.0,0.0,0.0,0.0,0.0,0.0,0.0,0.0,0.0,0.0,0.0,0.0,0.0,0.0,0.0,0.0,0.0,0.0,0.0,0.0,0.0,0.0,0.0,0.0,0.0,0.0,0.0,0.0,0.0,0.0,0.0,0.0,0.0,0.0,0.0,0.0,0.0,0.0,0.0,0.0,0.0,0.0,0.0,0.0,0.0,0.0,0.0,0.0,0.0,0.0,0.0,0.0,0.0,0.0,0.0,0.0,0.0,0.0,0.0,0.0,0.0,0.0,0.0,0.0,0.0,0.0,0.0,0.0,0.0,0.0,0.0,0.0,0.0,0.0,0.0,0.0,0.0,0.0,0.0,0.0,0.0,0.0,0.0,0.0,0.0,0.0,0.0,0.0,0.0,0.0,0.0,0.0,0.0,0.0,0.0,0.0,0.0,0.0,0.0,0.0,0.0,0.0,0.0,0.0,0.0,0.0,0.0,0.0,0.0,0.0,0.0,0.0,0.0,0.0,0.0,0.0,0.0,0.0,0.0,0.0,0.0,0.0,0.0,0.0,0.0,0.0,0.0,0.0,0.0,0.0,0.0,0.0,0.0,0.0,0.0,0.0,0.0,0.0,0.0,0.0,0.0,0.0,0.0,0.0,0.0,0.0,0.0,0.0,0.0,0.0,0.0,0.0,0.0,0.0,0.0,0.0,0.0,0.0,0.0,0.0,0.0,0.0,0.0,0.0,0.0,0.0,0.0,0.0,0.0,0.0,0.0,0.0,0.0,0.0,0.0,0.0,0.0,0.0,0.0,0.0,0.0,0.0,0.0,0.0,0.0,0.0,0.0,0.0,0.0,0.0,0.0,0.0,0.0,0.0,0.0,0.0,0.0,0.0,0.0,0.0,0.0,0.0,0.0,0.0,0.0,0.0,0.0,0.0,0.0,0.0,0.0,0.0,0.0,0.0,0.0,0.0,0.0,0.0,0.0,0.0,0.0,0.0,0.0,0.0,0.0,0.0,0.0,0.0,0.0,0.0,0.0,0.0,0.0,0.0,0.0,0.0,0.0,0.0,0.0,0.0,0.0,0.0,0.0,0.0,0.0,0.0,0.0,0.0,0.0,0.0,0.0,0.0,0.0,0.0,0.0,0.0,0.0,0.0,0.0,0.0,0.0,0.0,0.0,0.0,0.0,0.0,0.0,0.0,0.0,0.0,0.0,0.0,0.0,0.0,0.0,0.0,0.0,0.0,0.0,0.0,0.0,0.0,0.0,0.0,0.0,0.0,0.0,0.0,0.0,0.0,0.0,0.0,0.0,0.0,0.0,0.0,0.0,0.0,0.0,0.0,0.0,0.0,0.0,0.0,0.0,0.0,0.0,0.0,0.0,0.0,0.0,0.0,0.0,0.0,0.0,0.0,0.0,0.0,0.0,0.0,0.0,0.0,0.0,0.0,0.0,0.0,0.0,0.0,0.0,0.0,0.0,0.0,0.0,0.0,0.0,0.0,0.0,0.0,0.0,0.0,0.0,0.0,0.0,0.0,0.0,0.0,0.0,0.0,0.0,0.0,0.0,0.0,0.0,0.0,0.0,0.0,0.0,0.0,0.0,0.0,0.0,0.0,0.0,0.0,0.0,0.0,0.0,0.0,0.0,0.0,0.0,0.0,0.0,0.0,0.0,0.0,0.0,0.0,0.0,0.0,0.0,0.0,0.0,0.0,0.0,0.0,0.0,0.0,0.0,0.0,0.0,0.0,0.0,0.0,0.0,0.0,0.0,0.0,0.0,0.0,0.0,0.0,0.0,0.0,0.0,0.0,0.0,0.0,0.0,0.0,0.0,0.0,0.0,0.0,0.0,0.0,0.0,0.0,0.0,0.0,0.0,0.0,0.0,0.0,0.0,0.0,0.0,0.0,0.0,0.0,0.0,0.0,0.0,0.0,0.0,0.0,0.0,0.0,0.0,0.0,0.0,0.0,0.0,0.0,0.0,0.0,0.0,0.0,0.0,0.0,0.0,0.0,0.0,0.0,0.0,0.0,0.0,0.0,0.0,0.0,0.0,0.0,0.0,0.0,0.0,0.0,0.0,0.0,0.0,0.0,0.0,0.0,0.0,0.0,0.0,0.0,0.0,0.0,0.0,0.0,0.0,0.0,0.0,0.0,0.0,0.0,0.0,0.0,0.0,0.0,0.0,0.0,0.0,0.0,0.0,0.0,0.0,0.0,0.0,0.0,0.0,0.0,0.0,0.0,0.0,0.0,0.0,0.0,1.7087,1.6729,0.0,0.0,0.0,0.0,0.0,0.0,0.0,0.0,0.0,0.0,0.0,0.0,0.0,0.0,0.0,0.0,0.0,0.0,0.0,0.0,0.0,0.0,0.0,0.0,0.0,0.0,0.0,0.0,0.0,0.0,0.0,0.0,0.0,0.0,0.0,0.0,0.0,0.0,1.8,1.89,2.0093,2.0501,2.1194,2.2106,0.0,0.0,0.0,0.0,0.0,0.0,0.0,0.0,0.0,0.0,0.0,0.0,0.0,0.0,0.0,0.0,0.0,0.0,0.0,0.0,0.0,0.0,0.0,0.0,0.0,0.0,0.0,0.0,0.0,0.0,0.0,0.0,0.0,0.0,0.0,0.0,0.0,0.0,0.0,0.0,0.0,0.0,0.0,0.0,0.0,0.0,0.0,0.0,0.0,0.0,0.0,0.0,0.0,0.0,0.0,0.0,0.0,0.0,0.0,0.0,0.0,0.0,0.0,0.0,0.0,0.0,0.0,0.0,0.0,0.0,1.8327,1.7652,0.0,0.0,0.0,0.0,0.0,0.0,0.0,0.0,0.0,0.0,0.0,0.0,0.0,0.0,0.0,0.0,0.0,0.0,0.0,0.0,0.0,0.0,0.0,0.0,1.479,1.5461,1.632,0.0,0.0,0.0,0.0,0.0,0.0,0.0,0.0,0.0,0.0,0.0,1.9076,2.0412,2.2004,2.1893,2.2173,2.2768,2.2295,0.0,0.0,0.0,0.0,0.0,0.0,0.0,0.0,0.0,0.0,0.0,0.0,0.0,0.0,0.0,0.0,0.0,0.0,0.0,0.0,0.0,0.0,0.0,0.0,0.0,0.0,0.0,0.0,0.0,0.0,0.0,0.0,0.0,0.0,0.0,0.0,0.0,0.0,0.0,0.0,0.0,0.0,0.0,0.0,0.0,0.0,0.0,0.0,0.0,0.0,0.0,0.0,0.0,0.0,0.0,0.0,0.0,0.0,0.0,0.0,0.0,0.0,0.0,2.4007,2.3798,2.3757,2.3129,2.2948,2.3068,2.0494,1.9397,1.9384,1.8367,0.0,0.0,0.0,0.0,0.0,0.0,0.0,0.0,0.0,0.0,0.0,0.0,0.0,0.0,0.0,0.0,0.0,0.0,0.0,0.0,0.0,1.4974,1.5468,1.5577,1.69,1.7715,0.0,0.0,0.0,0.0,0.0,0.0,0.0,1.8477,1.8938,1.9023,2.0709,2.2376,2.402,2.3781,2.4036,2.4683,2.3494,2.2468,2.1727,0.0,0.0,0.0,0.0,0.0,0.0,0.0,0.0,0.0,0.0,0.0,0.0,0.0,0.0,0.0,0.0,0.0,0.0,0.0,0.0,0.0,0.0,0.0,0.0,0.0,0.0,0.0,0.0,0.0,0.0,0.0,0.0,0.0,0.0,0.0,0.0,0.0,0.0,0.0,0.0,0.0,2.1355,2.1691,0.0,0.0,0.0,0.0,0.0,0.0,0.0,0.0,0.0,0.0,0.0,0.0,0.0,2.5176,2.568,2.5983,2.6574,2.7336,2.6769,2.6469,2.6471,2.5659,2.5418,2.5588,2.4432,0.0,2.1117,2.0542,0.0,0.0,0.0,0.0,0.0,0.0,0.0,0.0,0.0,0.0,0.0,0.0,0.0,0.0,0.0,0.0,0.0,0.0,0.0,0.0,0.0,1.5843,1.6684,1.7595,1.8672,1.9231,1.9058,0.0,0.0,0.0,0.0,0.0,1.7944,1.8834,2.0082,2.1613,2.3348,2.4764,2.5816,2.6026,2.6214,2.638,2.6021,2.4824,2.3038,2.2687,0.0,0.0,0.0,0.0,0.0,0.0,0.0,0.0,0.0,0.0,0.0,0.0,0.0,0.0,0.0,0.0,0.0,0.0,0.0,0.0,0.0,0.0,0.0,0.0,0.0,0.0,0.0,0.0,0.0,0.0,0.0,0.0,0.0,0.0,0.0,0.0,0.0,0.0,0.0,2.1308,2.1721,2.1781,2.1738,2.1526,0.0,0.0,0.0,0.0,0.0,0.0,0.0,0.0,0.0,2.5608,2.6579,2.7624,2.8814,2.8689,2.9009,2.9739,2.9054,2.8685,2.8633,2.7866,2.7481,2.7367,2.6836,2.5937,2.4607,2.2799,2.1594,2.0903,0.0,0.0,0.0,0.0,2.1669,2.1669,0.0,0.0,0.0,0.0,0.0,0.0,0.0,0.0,0.0,0.0,0.0,0.0,1.6048,1.6962,1.8188,1.9785,2.0349,2.0644,2.0691,2.0083,0.0,0.0,0.0,1.8199,1.8431,1.9992,2.2109,2.4735,2.62,2.7225,2.7915,2.8258,2.8285,2.8039,2.8202,2.6826,2.433,2.3587,2.2744,2.1877,0.0,0.0,0.0,0.0,0.0,0.0,0.0,0.0,0.0,0.0,0.0,0.0,0.0,0.0,0.0,0.0,0.0,0.0,0.0,0.0,0.0,0.0,0.0,0.0,0.0,0.0,0.0,0.0,0.0,0.0,0.0,0.0,0.0,0.0,0.0,0.0,0.0,2.2016,2.2285,2.2623,2.2415,2.2149,0.0,0.0,0.0,0.0,0.0,0.0,2.4068,2.55,2.6901,2.814,2.8961,2.9978,3.1129,3.0777,3.0887,3.1418,3.0609,3.0256,3.0224,2.9378,2.8893,2.8549,2.8313,2.7928,2.7232,2.5094,2.3729,2.3055,2.3192,2.3167,2.3044,2.358,2.3854,2.3854,0.0,0.0,0.0,0.0,0.0,0.0,0.0,0.0,0.0,0.0,0.0,1.6137,1.6948,1.8365,1.9908,2.1439,2.1388,2.1558,2.2225,2.0545,1.9447,1.9334,1.8534,1.8482,1.9321,2.2635,2.5582,2.8162,2.8945,2.9743,3.0607,3.0242,2.9962,2.9752,2.9282,2.7587,2.5179,2.5494,2.4116,2.1701,2.1459,0.0,0.0,0.0,0.0,0.0,0.0,0.0,0.0,0.0,0.0,0.0,0.0,0.0,0.0,0.0,0.0,0.0,0.0,0.0,0.0,0.0,0.0,0.0,0.0,0.0,0.0,0.0,0.0,0.0,0.0,0.0,0.0,0.0,0.0,0.0,0.0,0.0,0.0,2.4863,2.4182,0.0,0.0,0.0,0.0,2.4535,2.5122,2.6051,2.7474,2.8873,2.9955,3.0598,3.1784,3.2213,3.1762,3.1737,3.1797,3.1985,3.1053,3.0646,3.0856,2.9795,2.9266,2.9045,2.8664,2.8216,2.7625,2.7282,2.6302,2.5177,2.5685,2.545,2.4946,2.5448,2.5783,2.5933,0.0,0.0,0.0,0.0,0.0,0.0,0.0,0.0,0.0,1.5434,1.5769,1.6671,1.8495,2.0003,2.1476,2.2975,2.331,2.3267,2.2888,2.1569,2.0534,1.9938,1.9664,2.0535,2.2705,2.5033,2.7456,2.9953,3.1123,3.201,3.2583,3.2739,3.2609,3.2273,3.1788,3.0558,2.8813,2.6895,2.5098,2.3437,2.2732,2.1614,0.0,0.0,0.0,0.0,0.0,0.0,0.0,0.0,0.0,0.0,0.0,0.0,0.0,0.0,0.0,0.0,0.0,0.0,0.0,0.0,0.0,0.0,0.0,0.0,0.0,0.0,0.0,0.0,0.0,0.0,0.0,0.0,0.0,0.0,0.0,0.0,0.0,2.6338,2.5893,0.0,2.6031,2.5883,2.5971,2.6564,2.7595,2.8599,2.9469,3.0829,3.1792,3.2333,3.2954,3.3211,3.3114,3.2619,3.2137,3.1645,3.0829,3.0188,2.9704,2.9081,2.8621,2.8223,2.8143,2.7956,2.7767,2.7687,2.7071,2.6287,2.6323,2.6214,2.5996,2.6176,2.6395,2.6554,0.0,0.0,0.0,0.0,0.0,0.0,0.0,0.0,1.5011,1.5897,1.6488,1.7744,2.0145,2.1648,2.305,2.4465,2.4486,2.4081,2.3319,2.2056,2.108,2.0568,2.1231,2.281,2.5298,2.7531,2.96,3.1476,3.2784,3.3528,3.3755,3.3792,3.3519,3.3017,3.2625,3.1759,3.0576,2.8413,2.6548,2.5029,2.3845,2.2596,2.135,0.0,0.0,0.0,0.0,0.0,0.0,0.0,0.0,0.0,0.0,0.0,0.0,0.0,0.0,0.0,0.0,0.0,0.0,0.0,0.0,0.0,0.0,0.0,0.0,0.0,0.0,0.0,0.0,0.0,0.0,0.0,0.0,0.0,0.0,2.6132,2.7274,2.8711,2.8484,2.8343,2.867,2.8532,2.8688,2.9229,3.0073,3.0941,3.1794,3.2632,3.3223,3.3608,3.3565,3.3421,3.3241,3.2547,3.1823,3.1158,3.0241,2.9394,2.8767,2.8051,2.7568,2.7244,2.7069,2.708,2.7174,2.708,2.6772,2.641,2.6644,2.6722,2.6656,2.6722,2.6954,2.7363,0.0,0.0,0.0,0.0,0.0,0.0,0.0,1.4661,1.5011,1.5916,1.7476,1.9388,2.1733,2.3198,2.4499,2.5751,2.4707,2.3873,2.3607,2.1966,2.1107,2.124,2.3267,2.5156,2.6862,3.0148,3.2179,3.2876,3.397,3.4338,3.399,3.3339,3.2658,3.1974,3.1646,3.1013,3.0127,2.9963,2.854,2.6305,2.4854,2.3667,2.2697,0.0,0.0,0.0,0.0,0.0,0.0,0.0,0.0,0.0,0.0,0.0,0.0,0.0,0.0,0.0,0.0,0.0,0.0,0.0,0.0,0.0,0.0,0.0,0.0,0.0,0.0,0.0,0.0,0.0,0.0,0.0,0.0,0.0,2.7604,2.8743,3.027,3.2092,3.1917,3.1942,3.2571,3.1765,3.1561,3.2467,3.2572,3.314,3.4457,3.4327,3.4301,3.4443,3.3839,3.3058,3.2082,3.1569,3.0973,3.0368,2.9275,2.8554,2.7971,2.6764,2.6185,2.6102,2.5695,2.5622,2.5895,2.5622,2.5538,2.5611,2.6693,2.7033,2.6891,2.7115,2.7592,2.8259,0.0,0.0,0.0,0.0,0.0,0.0,0.0,1.4695,1.5241,1.6755,1.7885,1.942,2.1665,2.3162,2.4176,2.464,2.4076,2.3511,2.3117,2.2056,2.179,2.2613,2.4683,2.6911,2.9213,3.1292,3.3208,3.4903,3.4718,3.4491,3.418,3.3453,3.2625,3.1774,3.1789,3.1537,3.1146,3.091,3.0134,2.8963,2.6975,2.5379,2.4072,0.0,0.0,0.0,0.0,0.0,0.0,0.0,0.0,0.0,0.0,0.0,0.0,0.0,0.0,0.0,0.0,0.0,0.0,0.0,0.0,0.0,0.0,0.0,0.0,0.0,0.0,0.0,0.0,0.0,0.0,0.0,2.8436,2.9951,2.9888,3.0874,3.2236,3.4037,3.3682,3.3497,3.3898,3.3358,3.3246,3.3873,3.3933,3.4454,3.5651,3.5377,3.5179,3.5096,3.3938,3.2987,3.212,3.1094,3.0279,2.9443,2.8724,2.7753,2.6682,2.6207,2.579,2.5443,2.5549,2.5728,2.5895,2.5812,2.5717,2.5549,2.5695,2.5695,2.5706,2.6135,2.6869,2.7765,0.0,0.0,0.0,0.0,0.0,0.0,0.0,1.4717,1.5336,1.7066,1.8354,1.9937,2.212,2.3563,2.4172,2.3656,2.3244,2.2704,2.195,2.2085,2.277,2.4115,2.623,2.8522,3.0979,3.2648,3.4127,3.534,3.4737,3.4063,3.3252,3.2214,3.1345,3.0623,3.0583,3.0495,3.0363,3.0232,2.9893,2.9309,2.7789,2.6581,2.5601,2.4612,2.351,2.2428,2.1974,2.1194,2.0397,2.0047,0.0,0.0,0.0,0.0,0.0,0.0,0.0,0.0,0.0,0.0,0.0,0.0,0.0,0.0,0.0,0.0,0.0,0.0,0.0,0.0,0.0,0.0,0.0,0.0,3.0683,3.239,3.302,3.3643,3.4395,3.5406,3.5298,3.514,3.5049,3.4728,3.4766,3.5329,3.5325,3.5708,3.6535,3.6113,3.5697,3.5317,3.3845,3.2635,3.19,3.0804,2.9831,2.8961,2.8315,2.7336,2.6019,2.5622,2.5295,2.4956,2.5211,2.5464,2.5717,2.5717,2.5633,2.5549,0.0,0.0,0.0,0.0,2.6798,2.751,0.0,0.0,0.0,0.0,0.0,0.0,0.0,1.4737,1.5326,1.7052,1.8633,2.0397,2.2462,2.3771,2.3943,2.2631,2.2173,2.1513,2.0553,2.2032,2.371,2.5394,2.7526,2.9739,3.2092,3.3721,3.4565,3.4523,3.4041,3.2994,3.1384,3.0071,2.9127,2.8678,2.8352,2.833,2.8448,2.8524,2.8426,2.8239,2.7759,2.7354,2.696,2.5467,2.4407,2.3591,2.2458,2.1498,2.0579,2.0101,0.0,0.0,0.0,0.0,0.0,0.0,0.0,0.0,0.0,0.0,0.0,0.0,0.0,0.0,0.0,0.0,0.0,0.0,0.0,0.0,0.0,0.0,0.0,0.0,3.2774,3.469,3.6169,3.6486,3.6467,3.6364,3.658,3.6584,3.6143,3.5948,3.6105,3.6552,3.6596,3.6798,3.7164,3.6687,0.0,0.0,0.0,3.2505,3.1604,3.0585,2.9661,2.8724,2.8051,2.7069,2.5852,2.5189,2.4786,2.4625,2.4946,2.5369,2.5695,2.5779,2.5779,2.5779,2.5633,2.5728,2.5979,2.6561,2.6962,2.7185,0.0,0.0,0.0,0.0,0.0,0.0,0.0,1.4737,1.5293,1.6922,1.795,1.9099,2.0658,2.1493,2.1594,2.0766,2.0467,2.0354,2.0339,2.1941,2.3649,2.528,2.7298,2.9471,3.1806,3.2738,3.3054,3.2757,3.1948,3.0513,2.857,2.7544,2.6658,2.5973,2.6039,2.6299,2.6675,2.7368,2.7555,2.738,2.7612,2.761,2.7284,2.6078,2.5126,2.4376,2.3561,2.2575,2.163,2.0842,2.0075,1.9284,1.8429,1.8057,0.0,0.0,0.0,0.0,0.0,0.0,0.0,0.0,0.0,0.0,0.0,0.0,0.0,0.0,0.0,0.0,0.0,0.0,0.0,3.2648,3.4726,3.6261,3.6793,3.7409,3.7506,3.6736,3.6829,3.6873,3.6597,3.6865,3.7075,3.7225,3.724,3.7371,3.7674,3.7288,3.6771,3.6092,3.4825,3.3436,3.204,3.1001,2.9878,2.859,2.7672,0.0,2.5527,2.5285,2.52,2.5369,2.5946,2.6528,2.7103,2.7325,2.7325,2.7232,2.603,2.5717,2.5906,2.6074,2.6052,2.5863,0.0,0.0,0.0,0.0,0.0,0.0,0.0,1.4707,1.508,1.6239,1.7049,1.7874,1.8888,1.9506,1.9659,1.9195,1.9545,1.985,1.9998,2.2212,2.4198,2.5729,2.7553,2.9581,3.1732,3.1904,3.1659,3.1118,2.975,2.7993,2.5949,2.4755,2.4024,2.3753,2.3677,2.3928,2.4596,2.5018,2.5236,2.5267,2.5513,2.5619,2.5673,2.578,2.5489,2.4941,2.3661,2.2756,2.2079,2.1183,2.0518,2.0013,1.9089,1.878,1.8572,0.0,0.0,0.0,0.0,0.0,0.0,0.0,0.0,0.0,0.0,0.0,0.0,0.0,0.0,2.78,2.9265,0.0,3.3194,3.4996,3.6713,3.7826,3.7916,3.8075,3.7899,3.7046,3.7212,3.7292,3.7076,3.7293,3.7539,3.7883,3.7898,3.8042,3.8266,3.7783,3.7163,3.6373,3.502,3.3635,3.2127,3.1073,2.9898,2.851,2.7684,2.6764,2.5695,2.5622,2.5622,2.5779,2.6373,2.7033,2.7522,2.7834,2.7995,2.7914,2.7174,2.6775,2.6633,2.629,2.5957,2.5611,0.0,0.0,0.0,0.0,0.0,0.0,0.0,0.0,1.4844,1.5532,1.6128,1.6703,1.7304,1.7737,1.7951,1.7799,1.8807,1.9515,1.9648,2.2405,2.4597,2.587,2.7461,2.9121,3.0846,3.0363,2.9674,2.8733,2.7089,2.5296,2.3315,2.1947,2.1425,2.1549,2.1215,2.1494,2.2205,2.229,2.2591,2.2766,2.295,2.3124,2.3342,2.4401,2.4801,2.4682,2.3028,2.2219,2.18,2.0899,2.0535,2.0396,1.9681,1.9565,1.9506,1.8686,1.8684,0.0,0.0,0.0,0.0,0.0,0.0,0.0,0.0,2.6149,2.754,2.7364,2.9135,3.1058,3.2053,3.403,3.5867,3.6981,3.8109,3.8869,3.8743,3.8422,3.7931,3.7385,3.7556,3.7683,3.753,3.7649,3.7948,3.8556,3.8586,3.8668,3.8752,3.8263,3.7491,3.6373,3.5128,3.374,3.2213,3.1259,3.0078,2.8494,2.7824,2.6948,2.5935,2.5884,2.5968,2.6185,2.6951,2.7452,2.7753,2.8247,2.8407,2.8339,2.8327,2.8007,2.7429,2.6693,2.6102,2.5516,0.0,0.0,0.0,0.0,0.0,0.0,0.0,0.0,0.0,1.5274,1.5312,1.5529,1.6116,1.6182,1.6304,1.6644,1.7885,1.8906,1.9487,2.2221,2.403,2.4495,2.5891,2.6951,2.7531,2.6901,2.5929,2.4667,2.3555,2.2066,2.0246,1.9629,1.91,1.8797,1.8778,1.8891,1.9212,1.9979,2.0378,2.0639,2.1284,2.1453,2.1193,2.113,2.1816,2.2613,2.1413,2.0783,2.033,1.9596,1.9571,1.9776,1.9628,2.0041,2.0452,1.9414,1.9453,1.9736,1.9092,2.0484,2.2452,2.3622,2.5003,2.644,0.0,2.8897,2.987,3.0509,3.2129,3.3559,3.4301,3.5728,3.7008,3.7592,3.8166,3.8419,3.8249,3.8075,3.7946,3.7745,3.7748,3.7863,3.802,3.854,3.8999,3.9305,3.9305,3.9175,3.8855,3.8427,3.7567,3.6373,3.5789,3.4591,3.2555,3.2051,3.066,2.8622,2.7767,2.6942,2.6196,2.5968,2.6302,2.7103,2.8155,2.8633,2.8724,2.9106,2.9197,2.8973,2.8803,2.8235,2.7429,2.6528,2.5589,2.4584,0.0,0.0,0.0,0.0,0.0,0.0,0.0,0.0,0.0,0.0,1.4276,1.4241,1.4401,1.4738,1.5182,1.5758,1.702,1.8191,1.9098,2.0877,2.2185,2.2939,2.3682,2.4194,2.4396,2.371,2.2696,2.1318,2.0268,1.9111,1.7963,1.7366,1.7067,1.7178,1.7251,1.732,1.7477,1.7988,1.811,1.8095,1.8272,1.814,1.7908,1.7663,1.7754,1.8184,1.899,1.925,0.0,1.8685,1.8947,1.9509,1.9552,1.9928,2.0346,1.9812,1.9825,2.0105,2.0637,2.2246,2.4075,2.5529,2.6832,2.8277,3.0026,3.1144,3.2033,3.2721,3.4151,3.5351,3.5594,3.6797,3.7785,3.7888,3.8409,3.8622,3.8243,3.7652,3.7142,3.6847,3.6296,3.6589,3.8179,3.8576,3.8811,3.9031,3.9031,3.8797,3.8337,3.7901,3.712,3.5857,3.5209,3.4027,3.224,3.1527,3.0458,2.8815,2.7753,2.7082,2.6617,2.6267,2.6385,2.7033,2.7753,2.8075,2.8075,2.8554,2.8645,2.8578,2.8486,2.7914,2.7103,2.6268,2.5348,2.4413,0.0,0.0,0.0,0.0,0.0,0.0,0.0,0.0,0.0,0.0,1.3523,1.3328,1.3158,1.3532,1.4084,1.4767,1.6017,1.7094,1.7963,1.9197,2.0049,2.0481,2.0859,2.0946,2.0726,2.0135,1.9241,1.8051,1.717,1.6487,1.5848,1.5402,1.542,1.565,1.5799,1.5878,1.591,1.6123,1.6101,1.5778,1.5597,1.5285,1.4871,1.4608,1.4316,1.433,1.6395,1.7311,1.7515,1.7302,1.7859,1.8638,1.9039,1.9538,2.0067,1.994,2.0051,2.0539,2.2022,2.3608,2.5356,2.7285,2.864,3.0012,3.2009,3.3127,3.3847,3.4398,3.5465,3.6251,3.6168,3.699,3.7701,3.7678,3.7945,3.8091,3.7702,3.6774,3.6043,3.5633,3.4837,3.5147,3.7118,3.7676,3.8015,3.8297,3.8458,3.8337,3.7734,3.7275,3.6494,3.5223,3.4551,3.3423,3.1859,3.106,3.0091,2.882,2.7872,2.7194,2.6867,2.6697,2.6646,2.6858,2.7238,2.7311,2.7267,2.7765,2.7926,2.7926,2.7846,2.7267,2.6434,2.5768,2.5009,2.4337,0.0,0.0,0.0,0.0,0.0,0.0,0.0,0.0,0.0,0.0,0.0,0.0,0.0,1.2626,1.2856,1.3594,1.4696,1.5469,1.5777,1.7403,1.7879,1.6695,1.7294,1.7226,1.6322,1.5966,1.5407,1.4625,1.4522,1.4174,1.3645,1.415,1.4316,1.409,1.444,1.4425,1.425,1.4339,1.4239,1.3974,1.3714,1.3257,1.2666,1.2366,1.1988,1.1955,1.3768,1.4681,1.5156,1.5333,1.5982,1.6839,1.791,1.8948,1.9715,1.9633,2.0185,2.1227,2.276,2.4239,2.5968,2.856,3.0238,3.1808,3.4015,3.4724,3.5051,3.5698,3.6042,3.6114,3.5913,3.6028,3.6259,3.6687,3.6443,3.6155,3.6203,3.5438,3.4831,3.4369,3.3982,3.3919,3.4403,3.57,3.6668,3.7053,3.7616,3.7749,3.738,3.6716,3.583,3.4799,3.4095,3.3066,3.1601,3.0878,2.9816,2.8454,2.7902,2.7392,2.695,2.7371,2.7206,2.6605,2.7001,2.6976,2.661,2.7021,2.7267,2.7185,2.701,2.6351,2.5443,2.4754,2.4433,2.411,0.0,0.0,0.0,0.0,0.0,0.0,0.0,0.0,0.0,0.0,0.0,0.0,0.0,0.0,0.0,0.0,1.3249,1.3633,1.4382,1.4324,1.4128,1.3835,1.3539,1.3128,1.2629,1.253,1.2332,1.2104,1.2349,1.2416,1.2312,1.279,1.2835,1.2602,1.3284,1.3324,1.2826,1.2977,1.2654,1.2032,1.1673,1.1139,1.0605,1.0237,1.0404,1.084,0.0,1.2801,1.4055,1.4671,1.5615,1.667,1.7361,1.834,1.9416,2.0238,2.1218,2.2305,2.3649,2.5634,2.7749,2.9507,3.1162,3.2787,3.4348,3.4968,3.525,3.5246,3.5002,3.4497,3.3812,3.3743,3.3812,3.3943,3.4175,3.4281,3.4126,3.3416,3.2877,3.2741,3.2077,3.1853,3.2292,3.3923,3.5286,3.5947,3.6157,3.6234,3.6017,3.5521,3.469,3.3628,3.2649,3.1689,3.0656,2.9726,2.9017,2.8424,2.7547,2.688,2.6415,2.6583,2.6409,2.6114,2.6349,2.6517,2.652,2.656,2.6609,2.6757,2.6162,2.5611,2.5031,2.4262,2.3927,2.3677,0.0,0.0,0.0,0.0,0.0,0.0,0.0,0.0,0.0,0.0,0.0,0.0,0.0,0.0,0.0,0.0,0.0,1.2102,1.257,1.1872,1.1358,1.1104,1.0488,0.9967,0.9515,0.9738,0.9827,0.9894,1.0451,1.0803,1.0918,1.1616,1.1728,1.1502,1.2246,1.2248,1.1691,1.175,1.13,1.0552,1.0125,0.9633,0.9179,0.9124,0.9485,0.0,1.0788,1.2011,1.3497,1.4287,1.5296,1.6324,1.7086,1.8288,1.9711,2.1534,2.2546,2.3482,2.5319,2.7178,2.9028,3.0673,3.1948,3.3156,3.4099,3.4419,3.4364,3.3699,3.3215,3.2551,3.1752,3.1548,3.1535,3.196,3.2269,3.2434,3.258,3.198,3.1526,3.1485,3.0981,3.0838,3.1412,3.2617,3.3684,3.4681,3.4849,3.4993,3.5032,3.4564,3.3713,3.2686,3.1625,3.0644,2.9852,2.9013,2.8466,2.8113,2.7431,2.6837,2.6474,2.6269,2.6085,2.5768,2.593,2.602,2.6124,2.602,2.5985,2.6076,2.5486,2.4922,2.4433,2.3927,2.358,2.3319,0.0,0.0,0.0,0.0,0.0,0.0,0.0,0.0,0.0,0.0,0.0,0.0,0.0,0.0,0.0,0.0,0.0,0.0,1.0367,1.0113,0.9536,0.8555,0.8187,0.7695,0.7132,0.7605,0.7915,0.8036,0.8878,0.9315,0.9346,1.0548,1.0947,1.0585,1.1248,1.1276,1.0878,1.064,1.0158,0.9549,0.9246,0.8796,0.836,0.8827,0.9355,0.9952,1.1156,1.2347,1.3558,1.4157,1.4949,1.5993,1.7222,1.8776,2.0661,2.3466,2.4217,2.4822,2.7657,2.8821,2.9796,3.186,3.2577,3.288,3.314,3.3006,3.2457,3.1382,3.0765,3.0336,2.974,2.9353,2.951,3.062,3.0719,3.0827,3.1461,3.1148,3.0879,3.0764,3.0611,3.0817,3.1759,3.1591,3.1967,3.3144,3.3622,3.4028,3.4371,3.3725,3.2957,3.1989,3.1015,3.0034,2.9035,2.8581,2.8113,2.7631,2.7347,2.7177,2.69,2.6602,2.6265,2.5769,2.5769,2.5714,2.5513,2.5493,2.5419,2.5207,2.488,2.4419,2.3784,2.359,2.3319,2.3135,0.0,0.0,0.0,0.0,0.0,0.0,0.0,0.0,0.0,0.0,0.0,0.0,0.0,0.0,0.0,0.0,0.0,0.0,0.9393,0.8611,0.7853,0.7194,0.6696,0.6347,0.6092,0.6571,0.6987,0.7211,0.8003,0.8459,0.861,0.9383,0.9507,0.9163,0.9863,0.9874,0.9437,0.9381,0.9155,0.8758,0.8529,0.8559,0.8709,0.9193,1.0027,1.1102,1.1966,1.3142,1.4307,1.4732,1.6214,1.8118,1.992,2.1197,2.2388,2.4438,2.5724,2.6779,2.8384,2.9651,3.081,3.1813,3.1947,3.1963,3.2047,3.141,3.0498,2.9399,2.8413,2.7451,2.6546,2.6596,2.7022,2.7915,2.8661,2.9567,3.0707,3.0767,3.0867,3.136,3.1398,3.1529,3.1896,3.1614,3.1681,3.2447,3.2898,3.3315,3.3615,3.3142,3.245,3.1472,3.0385,2.9393,2.8581,2.8019,2.7736,2.7631,2.7156,2.687,2.6602,2.612,2.5868,2.5759,2.5759,2.5786,2.5934,2.5595,2.5498,2.5522,2.4666,2.4157,2.3939,2.3437,2.3144,2.3135,0.0,0.0,0.0,0.0,0.0,0.0,0.0,0.0,0.0,0.0,0.0,0.0,0.0,0.0,0.0,0.0,0.0,0.0,0.0,0.7912,0.7196,0.6814,0.6259,0.5952,0.5971,0.6395,0.6711,0.6967,0.7615,0.7928,0.7986,0.8473,0.8583,0.841,0.9017,0.9105,0.882,0.8996,0.889,0.0,0.0,0.9036,0.9427,1.0101,1.107,1.2135,1.3035,1.437,1.5822,1.6848,1.8373,2.0163,2.1925,2.3134,2.4234,2.6378,2.748,2.8348,2.9786,3.0735,3.1316,3.1675,3.1283,3.0723,3.0169,2.9152,2.8028,2.6824,2.5937,2.5156,2.4627,2.4921,2.5529,2.668,2.7704,2.8824,3.0248,3.0528,3.0889,3.1592,3.1655,3.1825,3.2217,3.1845,3.1738,3.2274,3.2281,3.2478,3.2957,3.2537,3.1837,3.1026,2.9943,2.8943,2.8019,2.7736,2.7631,2.7631,2.7146,2.6774,2.6496,2.5927,2.5742,2.5742,2.5742,2.583,2.5897,2.5651,2.553,2.5377,2.4601,2.4126,2.391,2.3291,2.3135,2.3135,0.0,0.0,0.0,0.0,0.0,0.0,0.0,0.0,0.0,0.0,0.0,0.0,0.0,0.0,0.0,0.0,0.0,0.0,0.0,0.0,0.0,0.7013,0.6435,0.6222,0.6406,0.6648,0.6854,0.6978,0.7461,0.7574,0.7484,0.7866,0.8031,0.8069,0.857,0.8699,0.8673,0.9066,0.9166,0.9059,0.9556,0.9987,1.0425,0.0,0.0,1.311,1.4111,1.5694,1.761,1.9346,2.072,2.194,2.356,2.4831,2.6123,2.853,2.9202,2.9571,3.1385,3.1761,3.1612,3.1548,3.0614,2.9341,2.8069,2.6644,2.5292,2.407,2.3385,2.3084,2.3317,2.3705,2.4475,2.6171,2.7077,2.8263,2.9928,3.0461,3.1002,3.1706,3.1833,3.2003,3.2533,3.21,3.1859,3.2325,3.1699,3.1613,3.2276,3.1849,3.1205,3.0295,2.9393,2.8477,2.7536,2.7536,2.7536,2.7536,2.7061,2.6678,2.64,2.5927,2.5742,2.5742,2.5742,2.5742,2.5742,2.5742,2.5508,2.5117,2.4678,2.4287,2.3906,2.3467,2.331,2.331,0.0,0.0,0.0,0.0,0.0,0.0,0.0,0.0,0.0,0.0,1.0681,1.0411,0.0,0.0,0.0,0.0,0.0,0.0,0.0,0.0,0.0,0.0,0.7129,0.6975,0.711,0.7228,0.717,0.7002,0.731,0.7439,0.7399,0.7595,0.7682,0.7688,0.8266,0.854,0.8469,0.8808,0.918,0.9611,0.995,1.0605,1.1453,0.0,0.0,0.0,1.5175,1.6608,1.8251,1.9623,2.1179,2.2891,2.5012,2.6511,2.777,2.9202,3.0171,3.0906,3.1636,3.2064,3.2087,3.1539,2.9791,2.7861,2.6864,2.4614,2.2672,2.2037,2.1167,2.074,2.1187,2.1663,2.2645,2.4647,2.5981,2.7397,2.9356,3.0603,3.1461,3.2014,3.2322,3.2636,3.3007,3.2034,3.1466,3.181,3.0909,3.0843,3.1749,3.1306,3.0385,2.8817,2.7998,2.7441,2.7051,2.7051,2.7051,2.7051,2.6678,2.639,2.6197,2.583,2.5742,2.5742,2.5742,2.5742,2.5742,2.5742,2.5693,2.5576,2.5127,2.4912,2.4795,2.4355,2.4199,2.4199,0.0,0.0,0.0,0.0,0.0,0.0,0.0,1.1615,1.1159,1.0702,1.0447,1.0261,1.0161,1.0122,0.0,0.0,0.0,0.0,0.0,0.0,0.0,0.0,0.0,0.0,0.777,0.7888,0.7863,0.7614,0.0,0.7785,0.7702,0.7795,0.7917,0.8095,0.8357,0.8567,0.8672,0.919,0.9688,1.0195,1.0965,1.1756,0.0,0.0,0.0,0.0,0.0,1.6826,1.8012,1.9447,2.1078,2.2921,2.5243,2.6962,2.8287,2.9456,3.033,3.1023,3.1371,3.1692,3.1441,3.0083,2.8429,2.6551,2.4941,2.2751,2.092,2.0396,1.9569,1.9164,1.9915,2.0679,2.1686,2.3377,2.505,2.6844,2.8632,3.0124,3.1298,3.2114,3.2461,3.2636,3.2342,3.1526,3.0863,3.056,2.9885,2.984,3.0847,3.0204,2.9187,2.7998,2.7431,2.6965,2.6678,2.6678,2.6678,2.6678,2.639,2.6197,2.61,2.583,2.5742,2.5742,2.5742,2.5742,2.5742,2.5742,2.5742,2.5693,2.5244,2.5068,2.501,2.458,2.4414,2.4414,0.0,0.0,0.0,0.0,0.0,0.0,0.0,1.1408,1.0912,1.0396,1.0135,1.0059,1.0123,1.0135,1.0072,0.0,0.0,0.0,0.0,0.0,0.0,0.0,0.0,0.0,0.0,0.0,0.0,0.8455,0.8414,0.0,0.0,0.0,0.0,0.0,0.8625,0.8803,0.9112,0.9699,1.0323,0.0,0.0,1.2859,0.0,0.0,0.0,0.0,0.0,1.6854,1.7601,1.8995,2.0489,2.2121,2.4242,2.6201,2.7928,2.8986,2.9666,3.022,3.0721,3.074,3.0345,2.8718,2.7091,2.5332,2.3176,2.1151,1.9614,1.9038,1.8203,1.7966,1.8944,1.9815,2.0813,2.2226,2.4074,2.5877,2.7644,2.9235,3.0658,3.1642,3.2127,3.219,3.1591,3.0804,2.9977,2.9364,2.879,2.8817,2.9658,2.891,2.8081,2.7347,2.6955,2.6572,2.6314,2.6314,2.6314,2.6314,2.61,2.6004,2.6004,2.583,2.5742,2.5742,2.5742,2.5742,2.5742,2.5742,2.5742,2.5703,2.5352,2.5215,2.5166,2.4824,2.4697,2.4697,0.0,0.0,0.0,0.0,0.0,0.0,0.0,1.1153,1.0599,1.0185,0.9905,0.9788,0.9905,1.0097,1.0199,0.0,0.0,0.0,0.0,0.0,0.0,0.0,0.0,0.0,0.0,0.0,0.0,0.9199,0.9136,0.0,0.0,0.0,0.0,0.0,0.0,0.9323,0.9667,1.0009,0.0,0.0,0.0,0.0,0.0,0.0,0.0,0.0,0.0,1.6854,1.7488,1.8129,1.9108,2.025,2.1381,2.3946,2.6615,2.7103,2.7658,2.8354,2.9311,2.9408,2.9088,2.8268,2.6352,2.4267,2.2413,2.0156,1.8255,1.7693,1.7018,1.6869,1.7791,1.8261,1.9163,2.1249,2.2583,2.4013,2.5898,2.7852,2.9414,3.0251,3.0915,3.1324,3.133,3.0079,2.9097,2.8913,2.7957,2.761,2.8175,2.7904,2.7347,2.6592,2.6294,2.6004,2.5732,2.5732,2.5732,2.5732,2.5732,2.5732,2.5732,2.5732,2.5742,2.5742,2.5742,2.5742,2.5742,2.5742,2.5742,2.5732,2.5693,2.5674,2.5674,2.5635,2.5615,2.5615,0.0,0.0,0.0,0.0,0.0,0.0,1.1431,1.0837,1.0282,0.9803,0.9581,0.9526,0.971,0.9931,1.011,1.0237,0.0,0.0,0.0,0.0,0.0,0.0,0.0,0.0,0.0,0.0,0.975,0.9952,1.0127,0.0,0.0,0.0,0.0,0.0,0.0,0.969,0.9912,1.0466,0.0,0.0,0.0,0.0,0.0,0.0,0.0,0.0,0.0,0.0,1.6948,1.7513,1.8216,1.892,1.9374,2.1034,2.3161,2.5218,2.6402,2.7261,2.8068,2.8331,2.8061,2.6577,2.5123,2.3427,2.135,1.9355,1.7754,1.7266,1.6627,1.6415,1.7062,1.7884,1.8952,2.0331,2.2111,2.3842,2.521,2.7296,2.8897,2.9431,3.0276,3.0589,3.0009,2.9212,2.8344,2.7521,2.6972,2.6774,2.686,2.687,2.6774,2.6294,2.6014,2.583,2.5742,2.5742,2.5742,2.5742,2.5742,2.5742,2.5742,2.5742,2.5742,2.5742,2.5742,2.5742,2.5742,2.5742,2.5742,2.5742,2.5742,2.5742,2.5742,2.5742,2.5742,2.5742,0.0,0.0,0.0,0.0,0.0,1.1717,1.1098,1.0565,1.0033,0.949,0.9328,0.9339,0.9552,0.9802,1.0008,1.0173,1.0211,0.0,0.0,0.0,0.0,0.0,0.0,0.0,0.0,0.0,1.0646,1.1025,1.1115,1.0953,0.0,0.0,1.0454,1.0089,0.0,0.0,0.0,0.0,0.0,0.0,0.0,0.0,0.0,0.0,0.0,0.0,0.0,0.0,0.0,0.0,0.0,1.7756,1.7897,1.859,1.9922,2.2743,2.4327,2.5285,2.6131,2.6445,2.6307,2.4922,2.3754,2.2323,2.0332,1.8677,1.7445,1.6898,1.6476,1.6296,1.6705,1.7809,1.8931,1.9773,2.1765,2.3587,2.4681,2.6776,2.8249,2.8643,2.9487,2.9637,2.8724,2.8071,2.7326,2.6304,2.6217,2.6207,2.6004,2.6207,2.6207,2.6014,2.583,2.5742,2.5742,2.5742,2.5742,2.5742,2.5742,2.5742,2.5742,2.5742,2.5742,2.5742,2.5742,2.5742,2.5742,2.5742,2.5742,2.5742,2.5742,2.5742,2.5742,2.5742,2.5742,2.5742,0.0,0.0,0.0,0.0,0.0,0.0,1.0879,1.0347,0.9841,0.9354,0.9232,0.9286,0.9475,0.9698,0.988,1.0097,1.0336,0.0,0.0,0.0,0.0,0.0,0.0,0.0,0.0,0.0,1.1814,1.2469,1.194,1.1881,1.2169,1.1384,1.0969,1.0949,0.0,0.0,0.0,0.0,0.0,0.0,0.0,0.0,0.0,0.0,0.0,0.0,0.0,0.0,0.0,0.0,0.0,0.0,0.0,1.705,1.7501,1.9486,2.0956,2.2144,2.3218,2.3486,2.3457,2.3548,2.2399,2.0847,1.9333,1.8162,1.7119,1.6434,1.6333,1.6488,1.6761,1.7707,1.8827,1.9773,2.1344,2.2922,2.4153,2.5852,2.7139,2.7572,2.8422,2.8612,2.7688,2.6679,2.6004,2.5732,2.5732,2.5742,2.5742,2.5742,2.5742,2.5742,2.5742,2.5742,2.5742,2.5742,2.5742,2.5742,2.5742,2.5742,2.5742,2.5742,2.5742,2.5742,2.5742,2.5742,2.5742,2.5742,2.5742,2.5742,2.5742,2.5742,2.5742,2.5742,2.5742,2.5742,0.0,0.0,0.0,0.0,0.0,0.0,0.0,1.0373,0.9995,0.9552,0.9473,0.9526,0.9698,0.9841,1.0008,1.0148,1.0324,0.0,0.0,0.0,0.0,0.0,0.0,0.0,0.0,0.0,1.2543,1.3106,1.3009,1.2778,1.2478,1.2162,1.1757,1.1267,1.1046,1.1019,0.0,0.0,0.0,0.0,0.0,0.0,1.6392,0.0,0.0,0.0,0.0,0.0,0.0,0.0,0.0,0.0,0.0,0.0,0.0,1.7176,1.8932,2.103,2.2029,2.2337,2.2318,2.1849,2.0714,1.9484,1.8676,1.7649,1.6811,1.6799,1.678,1.6909,1.72,1.8261,1.933,2.0145,2.2007,2.359,2.4189,2.5938,2.6928,2.6494,2.6791,2.6982,2.6857,2.6396,2.6004,2.5732,2.5742,2.5742,2.5742,2.5742,2.5742,2.5742,2.5742,2.5742,2.5742,2.5742,2.5742,2.5742,2.5742,2.5742,2.5742,2.5742,2.5742,2.5742,2.5742,2.5742,2.5742,2.5742,2.5742,2.5742,2.5742,2.5742,2.5742,2.5742,2.5742,2.5742,0.0,0.0,0.0,0.0,0.0,0.0,0.0,1.0485,1.0173,0.9802,0.9736,0.9736,0.9828,0.9931,1.0021,1.0123,1.0274,0.0,0.0,0.0,0.0,0.0,0.0,0.0,0.0,1.2724,1.3295,1.405,1.3729,1.3485,1.3346,1.2776,1.2278,1.184,1.1478,1.1404,0.0,0.0,0.0,0.0,0.0,0.0,1.6436,0.0,0.0,0.0,0.0,0.0,0.0,0.0,0.0,0.0,0.0,0.0,0.0,0.0,1.7533,1.9217,2.0198,2.0666,2.0769,2.0022,1.9113,1.8142,1.7408,1.687,1.6518,1.6717,1.7041,1.7457,1.7733,1.8913,2.002,2.0457,2.2518,2.4163,2.4251,2.5861,2.6883,2.6312,2.6205,2.6239,2.632,2.611,2.5917,2.5732,2.5742,2.5742,2.5742,2.5742,2.5742,2.5742,2.5742,2.5742,2.5742,2.5742,2.5742,2.5742,2.5742,2.5742,2.5742,2.5742,2.5742,2.5742,2.5742,2.5742,0.0,2.5742,2.5742,2.5742,2.5742,2.5742,2.5742,2.5742,2.5742,2.5742,0.0,0.0,0.0,0.0,0.0,0.0,0.0,1.0656,1.0411,1.0097,0.997,0.9931,0.9931,0.9982,1.0021,1.0021,0.0,0.0,0.0,0.0,0.0,0.0,0.0,0.0,0.0,1.3344,1.3979,1.5056,1.4192,1.4021,1.4503,1.3205,1.2605,1.2563,1.1832,1.1686,0.0,0.0,0.0,0.0,0.0,0.0,0.0,0.0,0.0,0.0,0.0,0.0,0.0,0.0,0.0,0.0,0.0,0.0,0.0,0.0,0.0,0.0,0.0,1.8644,1.8841,1.8103,1.75,1.6747,1.5723,1.5881,0.0,1.6375,1.7189,1.8027,1.8333,1.963,2.0677,2.0836,2.2985,2.4508,2.43,2.5636,2.672,2.6713,2.6339,2.6047,2.6051,2.582,2.5742,2.5742,2.5742,2.5742,2.5742,2.5742,2.5742,2.5742,2.5703,2.5684,2.5684,2.5684,2.5674,2.5644,2.5644,2.5654,2.5684,2.5684,2.5713,2.5742,2.5742,2.5742,2.5742,2.5742,2.5742,2.5742,2.5742,2.5742,2.5742,2.5742,2.5742,2.5742,0.0,0.0,0.0,0.0,0.0,0.0,0.0,0.0,0.0,0.0,1.0386,1.0324,1.0212,1.0212,1.0186,0.0,0.0,0.0,0.0,0.0,0.0,0.0,0.0,0.0,1.355,1.3854,1.427,1.4777,1.4474,1.4211,1.3972,1.3141,1.269,1.2563,1.1948,1.1954,0.0,0.0,0.0,0.0,0.0,0.0,0.0,0.0,0.0,0.0,1.696,1.6918,0.0,0.0,0.0,0.0,0.0,0.0,0.0,0.0,1.6378,1.661,1.6458,0.0,1.7298,1.6657,1.594,1.5418,0.0,1.5427,1.5828,1.6946,1.7578,1.8206,1.885,2.0184,2.1156,2.1156,2.3181,2.4626,2.4275,2.4882,2.5583,2.6161,2.5685,2.5445,2.5751,2.5732,2.5742,2.5742,2.5742,2.5742,2.5742,2.5742,2.5742,2.5742,2.54,2.5225,2.5225,2.5225,2.5059,2.4727,2.4727,2.4902,2.5225,2.5225,2.541,2.5742,2.5742,2.5742,2.5742,2.5742,2.5742,2.5742,2.5742,2.5742,2.5742,2.5742,2.5742,2.5742,0.0,0.0,0.0,0.0,0.0,0.0,0.0,0.0,0.0,0.0,0.0,0.0,0.0,0.0,0.0,0.0,0.0,0.0,0.0,0.0,0.0,0.0,0.0,1.2831,1.3905,1.3956,1.4326,1.5019,1.4738,1.4292,1.3729,1.3173,1.2764,1.2394,1.2091,1.2336,0.0,0.0,0.0,0.0,1.5782,0.0,0.0,0.0,0.0,0.0,1.7199,1.7115,0.0,1.6846,1.6663,1.6479,0.0,0.0,0.0,0.0,1.6252,1.626,1.5986,1.6171,1.6321,1.5527,1.5012,1.4714,1.4769,1.5145,1.5859,1.7074,1.7835,1.8612,1.9589,2.0697,2.1544,2.2056,2.3641,2.4896,2.5129,2.5555,2.5935,2.5988,2.5788,2.5774,2.5693,2.5742,2.5742,2.5742,2.5742,2.5742,2.5742,2.5537,2.543,2.543,2.5,2.4863,2.5068,2.4863,2.4648,2.4414,2.4414,2.4541,2.4775,2.498,2.5205,2.5439,2.5644,2.5742,2.5742,2.5742,2.5742,2.5742,2.5742,2.5742,2.5742,2.5742,2.5742,2.5742,0.0,0.0,0.0,0.0,0.0,0.0,0.0,0.0,0.0,0.0,0.0,0.0,0.0,0.0,0.0,0.0,0.0,0.0,0.0,0.0,0.0,0.0,0.0,1.2636,1.4175,1.3895,1.4224,1.5286,1.4896,1.4341,1.3586,1.318,1.2642,1.2027,1.2106,1.2684,0.0,0.0,0.0,0.0,1.6107,0.0,0.0,0.0,0.0,0.0,0.0,0.0,0.0,1.6918,1.6735,1.6522,1.6522,0.0,0.0,0.0,0.0,0.0,1.5893,1.5864,1.5607,1.4803,1.4566,1.4458,1.4333,1.5085,1.6074,1.7121,1.8043,1.9004,2.0316,2.1137,2.1945,2.2915,2.4104,2.5259,2.6153,2.6631,2.666,2.5913,2.6174,2.6234,2.5732,2.5742,2.5742,2.5742,2.5674,2.5635,2.5635,2.5215,2.4971,2.4971,2.4551,2.4502,2.4873,2.4502,2.4287,2.4219,2.4219,2.4258,2.4336,2.4707,2.4912,2.499,2.5371,2.5537,2.5537,2.5537,2.5537,2.5547,2.5605,2.5635,2.5644,2.5713,2.5742,2.5742,0.0,0.0,0.0,0.0,0.0,0.0,0.0,0.0,0.0,0.0,0.0,0.0,0.0,0.0,0.0,0.0,0.0,0.0,0.0,0.0,0.0,1.1483,1.1824,1.2695,1.4175,1.3979,1.4156,1.4711,1.4748,1.4256,1.3187,1.2648,1.2037,1.1354,1.1756,1.2599,1.3704,0.0,0.0,0.0,1.6736,0.0,0.0,0.0,0.0,0.0,0.0,0.0,0.0,1.6918,1.6735,1.6522,1.6522,0.0,0.0,0.0,0.0,0.0,1.5336,1.5096,1.501,1.5079,1.4807,1.4591,1.4839,1.5499,1.6326,1.7412,1.8228,1.9144,2.041,2.1506,2.2397,2.3025,2.4402,2.5673,2.6496,2.64,2.614,2.5882,2.59,2.5894,2.5703,2.5742,2.5742,2.5742,2.5381,2.5166,2.5166,2.4756,2.4521,2.4521,2.4102,2.3916,2.3984,2.3926,2.3701,2.334,2.334,2.3525,2.3887,2.3955,2.418,2.4521,2.459,2.4619,2.4619,2.4619,2.4619,2.4658,2.5029,2.5166,2.5215,2.5596,2.5742,2.5742,0.0,0.0,0.0,0.0,0.0,0.0,0.0,0.0,0.0,0.0,0.0,0.0,0.0,0.0,0.0,0.0,0.0,0.0,0.0,0.0,0.0,1.202,1.2291,1.2985,1.4175,1.4329,1.4477,1.4634,1.4564,1.3911,1.2747,1.2171,1.1746,1.1563,1.186,1.2611,1.3704,1.4524,0.0,0.0,0.0,0.0,0.0,0.0,0.0,0.0,0.0,0.0,0.0,0.0,1.6663,1.6522,1.6522,0.0,0.0,0.0,0.0,0.0,1.5337,1.4993,1.4861,1.55,1.5331,1.5124,1.5753,1.6561,1.748,1.8585,1.9318,2.0273,2.1744,2.241,2.3105,2.436,2.5608,2.6474,2.6335,2.6424,2.6279,2.5663,2.5865,2.5882,2.5713,2.5742,2.5635,2.5391,2.5185,2.4971,2.4727,2.4316,2.4082,2.4082,2.3662,2.3437,2.3437,2.3437,2.334,2.3135,2.3135,2.3242,2.3447,2.3682,2.3896,2.4092,2.4316,2.4414,2.4414,2.4414,2.4414,2.4434,2.4639,2.4863,2.5127,2.5566,2.5742,2.5742,0.0,0.0,0.0,0.0,0.0,0.0,0.0,0.0,0.0,0.0,0.0,0.0,0.0,0.0,0.0,0.0,0.0,0.0,0.0,0.0,1.1675,1.2439,1.2961,1.356,1.4307,1.4551,1.4644,1.4617,1.4375,1.3606,1.2441,1.1922,1.172,1.179,1.2028,1.2684,1.3729,1.4425,1.5312,0.0,0.0,0.0,0.0,0.0,0.0,0.0,0.0,0.0,0.0,0.0,0.0,0.0,0.0,0.0,0.0,1.6275,1.5913,1.5539,1.5321,1.4985,1.4942,1.5838,1.5774,1.5756,1.6786,1.7824,1.8839,1.9862,2.0723,2.1669,2.3075,2.3591,2.4288,2.5865,2.6728,2.6936,2.6187,2.6354,2.6256,2.547,2.5608,2.5698,2.543,2.543,2.5283,2.4941,2.4824,2.4619,2.4287,2.3867,2.3633,2.3633,2.331,2.3135,2.3135,2.3135,2.3135,2.3135,2.3135,2.3135,2.3154,2.3486,2.3633,2.3652,2.3975,2.4121,2.4121,2.4121,2.4121,2.4131,2.4228,2.4531,2.4971,2.542,2.5586,2.5596,0.0,0.0,0.0,0.0,0.0,0.0,0.0,0.0,0.0,0.0,0.0,0.0,0.0,0.0,0.0,0.0,0.0,0.0,0.0,0.0,1.2135,1.24,1.3741,1.454,1.4663,1.4394,1.4311,1.4438,1.4145,1.3445,1.2307,1.2278,1.2075,1.183,1.2077,1.2818,1.3877,1.4086,1.5005,1.6388,0.0,0.0,0.0,0.0,0.0,0.0,0.0,0.0,0.0,0.0,0.0,0.0,0.0,0.0,1.6479,1.6275,1.5913,1.5501,1.504,1.4971,1.5154,1.5902,1.5939,1.624,1.7871,1.9137,2.0171,2.0989,2.2106,2.3163,2.3816,2.4987,2.6173,2.6968,2.6913,2.6679,2.6487,2.5937,2.5409,2.491,2.4877,2.4799,2.4512,2.4512,2.4492,2.4463,2.4102,2.3867,2.3838,2.3418,2.3184,2.3184,2.3154,2.3135,2.3135,2.3135,2.3135,2.3135,2.3135,2.3135,2.3135,2.3164,2.3184,2.3184,2.3223,2.3232,2.3232,2.3232,2.3232,2.3271,2.3672,2.4092,2.4521,2.4951,2.5117,2.5176,0.0,0.0,0.0,0.0,0.0,0.0,0.0,0.0,0.0,0.0,0.0,0.0,0.0,0.0,0.0,0.0,0.0,0.0,0.0,1.1584,1.2449,1.2939,1.3928,1.4423,1.4325,1.4156,1.3951,1.3721,1.3114,1.2719,1.2489,1.2574,1.253,1.2449,1.2567,1.2923,1.3486,1.3921,1.4521,1.5194,1.5645,0.0,0.0,0.0,0.0,0.0,0.0,0.0,0.0,0.0,1.6405,1.6436,1.6436,1.6479,1.6479,1.6275,1.5969,1.5647,1.5244,1.5051,1.5191,1.6329,1.6853,1.7572,1.9385,2.0704,2.193,2.3193,2.3841,2.4356,2.4895,2.6008,2.6798,2.6914,2.6753,2.6479,2.6185,2.5518,2.4938,2.4682,2.4615,2.4506,2.4414,2.4414,2.4307,2.4043,2.3887,2.3672,2.3398,2.3232,2.3135,2.3135,2.3135,2.3135,2.3135,2.3135,2.3135,2.3135,2.3135,2.3135,2.3135,2.3135,2.3135,2.3135,2.3135,2.3232,2.3329,2.3329,2.3406,2.3533,2.388,2.3977,2.4082,2.4502,2.4834,2.5088,0.0,0.0,0.0,0.0,0.0,0.0,0.0,0.0,0.0,0.0,0.0,0.0,0.0,0.0,0.0,0.0,0.0,0.0,1.1195,1.23,1.3171,1.3631,1.4338,1.463,1.4399,1.3899,1.3414,1.2987,1.2545,1.2436,1.2682,1.2948,1.3091,1.3067,1.3057,1.3126,1.3323,1.3657,1.4042,1.4439,1.4898,1.5181,0.0,0.0,0.0,0.0,0.0,0.0,0.0,0.0,1.6231,1.6362,1.6392,1.6436,1.6479,1.6275,1.6057,1.5792,1.5435,1.5359,1.5684,1.676,1.7808,1.9054,2.0879,2.2262,2.3603,2.5043,2.5624,2.5912,2.6088,2.6915,2.7405,2.6998,2.6769,2.6539,2.6135,2.523,2.4568,2.4391,2.4197,2.4014,2.4014,2.4014,2.3896,2.3603,2.3584,2.3457,2.3154,2.3135,2.3135,2.3135,2.3135,2.3135,2.3135,2.3135,2.3135,2.3135,2.3135,2.3135,2.3135,2.3135,2.3135,2.3135,2.3135,2.3232,2.3503,2.3503,2.359,2.3697,2.3821,2.3762,2.3633,2.4062,2.4404,2.4707,0.0,0.0,0.0,0.0,0.0,0.0,0.0,0.0,0.0,0.0,0.0,0.0,0.0,0.0,0.0,0.0,0.0,0.0,1.2691,1.3784,1.4382,1.4398,1.5125,1.5359,1.4998,1.36,1.2719,1.2308,1.2612,1.281,1.2829,1.3428,1.3702,1.3702,1.3421,1.3399,1.348,1.3301,1.3664,1.44,1.44,1.4708,1.5248,0.0,0.0,0.0,0.0,0.0,0.0,0.0,1.6088,1.6244,1.6362,1.6436,1.6479,1.6275,1.61,1.5957,1.5603,1.5994,1.6622,1.7158,1.873,2.0618,2.2476,2.3816,2.4978,2.6239,2.7344,2.7946,2.7394,2.7829,2.8071,2.7296,2.7018,2.6798,2.6528,2.52,2.4206,2.4206,2.358,2.3135,2.3135,2.3135,2.3135,2.3135,2.3135,2.3135,2.3135,2.3135,2.3135,2.3135,2.3135,2.3135,2.3135,2.3135,2.3135,2.3135,2.3135,2.3135,2.3135,2.3135,2.3135,2.3135,2.3135,2.3232,2.3503,2.3503,2.3503,2.3503,2.3503,2.3319,2.3193,2.3623,2.3789,2.3906,0.0,0.0,0.0,0.0,0.0,0.0,0.0,0.0,0.0,0.0,0.0,0.0,0.0,0.0,0.0,0.0,0.0,0.0,1.2816,1.3921,1.4562,1.4591,1.5396,1.5515,1.4814,1.3789,1.2954,1.2365,1.2528,1.3055,1.3938,1.4178,1.4227,1.4124,1.3828,1.3628,1.348,1.3301,1.3333,1.3553,1.3483,1.3584,1.3822,0.0,0.0,0.0,0.0,0.0,0.0,0.0,0.0,0.0,1.6188,1.6362,1.6479,1.6362,1.6306,1.6219,1.6057,1.6402,1.7081,1.8081,1.9645,2.1411,2.3242,2.4466,2.5665,2.7306,2.8185,2.8511,2.7959,2.799,2.8029,2.7794,2.716,2.6539,2.6362,2.5115,2.411,2.3937,2.3396,2.3135,2.3135,2.3135,2.3135,2.3135,2.3135,2.3135,2.3135,2.3135,2.3135,2.3135,2.3135,2.3135,2.3135,2.3135,2.3135,2.3135,2.3135,2.3135,2.3135,2.3135,2.3135,2.3135,2.3135,2.3319,2.3754,2.411,2.411,2.3937,2.3754,2.358,2.3339,2.3291,2.3525,2.3828,0.0,0.0,0.0,0.0,0.0,0.0,0.0,0.0,0.0,0.0,0.0,0.0,0.0,0.0,0.0,0.0,0.0,0.0,0.0,1.4737,1.5252,1.5321,1.5894,1.5798,1.4924,1.4333,1.3823,1.3375,1.3263,1.3598,1.4351,1.4575,1.456,1.4369,1.4059,1.3795,1.348,1.3301,1.3163,1.3082,1.3025,1.2955,1.3043,0.0,0.0,0.0,0.0,0.0,0.0,0.0,0.0,0.0,1.6113,1.6362,1.6479,1.6436,1.6392,1.6362,1.6231,1.6786,1.7622,1.8585,2.0266,2.2268,2.4494,2.5757,2.6814,2.8185,2.8888,2.9101,2.8536,2.8498,2.8476,2.8191,2.7413,2.6775,2.6539,2.5189,2.4272,2.4024,2.3493,2.3135,2.3135,2.3135,2.3135,2.3135,2.2988,2.2891,2.2891,2.2734,2.2715,2.2881,2.2891,2.2969,2.3135,2.3135,2.3135,2.3135,2.2969,2.2891,2.2891,2.3066,2.3135,2.3135,2.3319,2.358,2.4024,2.4444,2.4625,2.4454,2.4186,2.3937,2.359,2.3319,2.3399,2.3555,0.0,0.0,0.0,0.0,0.0,0.0,0.0,0.0,0.0,0.0,0.0,0.0,0.0,0.0,0.0,0.0,0.0,0.0,0.0,0.0,1.6191,1.6355,1.6501,1.6213,1.5427,1.5273,1.5159,1.5084,1.4591,1.4355,1.44,1.4754,1.4749,1.4501,1.4149,1.3802,1.348,1.3301,1.3082,1.2896,1.2838,1.2733,1.2782,1.3709,0.0,0.0,0.0,0.0,0.0,0.0,0.0,0.0,1.6156,1.6362,1.6479,1.6436,1.6392,1.6392,1.6275,1.7111,1.8174,1.8722,2.0707,2.3213,2.5799,2.7243,2.8185,2.8737,2.9315,2.9541,2.8963,2.906,2.9093,2.8332,2.7715,2.714,2.6755,2.5314,2.4299,2.4074,2.3374,2.3047,2.3076,2.3047,2.3047,2.3076,2.2695,2.2461,2.2461,2.209,2.206,2.2441,2.2461,2.2637,2.3018,2.3027,2.3027,2.3018,2.2637,2.2461,2.2471,2.2852,2.3027,2.3027,2.3501,2.3867,2.4221,2.4765,2.4946,2.4946,2.47,2.4272,2.3831,2.359,2.3319,2.3193,0.0,0.0,0.0,0.0,0.0,0.0,0.0,0.0,0.0,0.0,0.0,0.0,0.0,0.0,0.0,0.0,0.0,0.0,0.0,0.0,1.6581,1.6773,1.6986,1.7069,1.6946,1.6734,1.6584,1.6457,1.5274,1.4841,1.5169,1.5047,1.4797,1.4501,1.4149,1.3802,1.348,1.3301,1.3082,1.2896,1.2768,1.2627,1.2531,1.3265,1.341,0.0,0.0,0.0,0.0,0.0,0.0,0.0,1.6231,1.6436,1.6522,1.6479,1.6479,1.6479,1.6436,1.7293,1.8382,1.9334,2.1913,2.4544,2.5548,2.6653,2.762,2.8172,2.8725,2.895,2.8386,2.8437,2.8319,2.7541,2.6541,2.5678,2.5068,2.3953,2.3063,2.2649,2.2325,2.2285,2.2617,2.2344,2.2295,2.2627,2.2256,2.2021,2.2021,2.1934,2.1924,2.2021,2.2021,2.206,2.2158,2.2158,2.2158,2.2158,2.206,2.2021,2.2021,2.2119,2.2158,2.2178,2.3018,2.3581,2.4012,2.4956,2.5454,2.5633,2.5211,2.4765,2.4251,2.3754,2.3319,2.3154,0.0,0.0,0.0,0.0,0.0,0.0,0.0,0.0,0.0,0.0,0.0,0.0,0.0,0.0,0.0,0.0,0.0,0.0,0.0,0.0,1.7043,1.7408,1.7562,1.7647,1.7681,1.7526,1.7337,1.715,1.6228,1.5671,1.5521,1.5255,1.4907,1.4501,1.4259,1.3914,1.348,1.3357,1.3129,1.2803,1.2627,1.2449,1.2338,1.3054,1.3245,1.3242,1.4272,0.0,0.0,0.0,0.0,0.0,0.0,0.0,1.6693,1.6693,1.6663,1.662,1.662,1.7395,1.8656,2.0539,2.2736,2.4569,2.5096,2.5875,2.6553,2.6841,2.777,2.8362,2.8,2.7953,2.7677,2.7097,2.6053,2.5127,2.4432,2.3507,2.2706,2.2287,2.205,2.1973,2.2197,2.2012,2.1982,2.2197,2.1816,2.1572,2.1572,2.1367,2.1357,2.1562,2.1572,2.167,2.1885,2.1885,2.1885,2.1885,2.167,2.1465,2.1269,2.1689,2.1885,2.1977,2.2692,2.3391,2.4096,2.5096,2.576,2.6229,2.5706,2.5189,2.4594,2.3917,2.3406,2.3135,0.0,0.0,0.0,0.0,0.0,0.0,0.0,0.0,0.0,0.0,0.0,0.0,0.0,0.0,0.0,0.0,0.0,0.0,0.0,0.0,0.0,1.8074,1.8103,1.8125,1.8134,1.7988,1.7772,1.7486,1.7076,1.6538,1.5824,1.5492,1.51,1.4699,1.4424,1.408,1.3689,1.3497,1.3151,1.2709,1.252,1.2388,1.2344,1.3037,1.3278,1.3437,1.4418,1.5028,1.539,1.5635,0.0,0.0,0.0,0.0,1.696,1.696,1.6846,1.6718,1.6718,1.7516,1.8945,2.1418,2.2949,2.3991,2.4556,2.5084,2.5485,2.5573,2.6854,2.7848,2.753,2.736,2.7016,2.6348,2.5482,2.4637,2.3878,2.3033,2.2271,2.1858,2.1556,2.1465,2.1624,2.1565,2.1556,2.1624,2.1222,2.0977,2.0898,2.0624,2.0595,2.0889,2.0898,2.1074,2.1435,2.1435,2.1435,2.1435,2.1074,2.0742,2.0478,2.1291,2.1663,2.1752,2.2453,2.3256,2.4172,2.5168,2.5976,2.6509,2.608,2.5527,2.4775,2.41,2.3493,2.3135,0.0,0.0,0.0,0.0,0.0,0.0,0.0,0.0,0.0,0.0,0.0,0.0,0.0,0.0,0.0,0.0,0.0,0.0,1.7002,0.0,0.0,1.8489,1.8528,1.8584,1.8695,1.8445,1.8205,1.7919,1.7446,1.6952,1.6378,1.5696,1.5437,1.5501,1.4713,1.4453,1.448,1.3801,1.3242,1.2873,1.2733,1.283,1.3106,1.3415,1.3773,1.4175,1.4923,1.5367,1.5635,1.6064,1.6411,0.0,0.0,0.0,1.7157,1.7157,1.7002,1.6846,1.6718,1.7748,1.9233,2.0552,2.2083,2.3401,2.3979,2.4531,2.5059,2.5498,2.6402,2.6946,2.6276,2.613,2.5777,2.4684,2.372,2.281,2.2213,2.1253,2.047,2.0252,1.9853,1.986,2.0394,2.0098,2.0103,2.0621,2.0242,1.9919,1.9792,1.9742,1.9649,1.9551,1.9541,1.957,1.9639,1.9639,1.9639,1.9639,1.957,1.9707,2.0,2.0269,2.0621,2.1104,2.2261,2.3076,2.363,2.5351,2.6074,2.6176,2.6184,2.56,2.4775,2.41,2.3493,2.3135,0.0,0.0,0.0,0.0,0.0,0.0,0.0,0.0,0.0,0.0,0.0,0.0,0.0,0.0,0.0,1.6274,1.6448,1.685,1.7549,1.8086,1.8508,1.8752,1.8843,1.8896,1.8914,1.8715,1.8505,1.8208,1.7715,1.7396,1.7214,1.6615,1.62,1.5933,1.5758,1.553,1.5151,1.441,1.3826,1.341,1.3265,1.3288,1.3438,1.4075,1.4439,1.4697,1.5357,1.5736,1.6001,1.6293,1.668,1.7031,1.7269,0.0,0.0,0.0,1.7337,1.7067,1.7099,1.7823,1.8832,1.9911,2.0978,2.1983,2.2849,2.3477,2.4029,2.4582,2.5137,2.5425,2.5213,2.4919,2.4259,2.2984,2.2121,2.1397,2.081,2.027,1.9772,1.9561,1.9404,1.9438,1.9802,1.9717,1.976,2.0076,1.9905,1.9733,1.9608,1.9608,1.9525,1.9287,1.9287,1.9287,1.9287,1.9287,1.9287,1.9287,1.9287,1.9385,1.9561,1.9865,2.0392,2.1148,2.2168,2.2926,2.3645,2.4857,2.5373,2.5487,2.522,2.482,2.4388,2.3724,2.3543,2.3754,0.0,0.0,0.0,0.0,0.0,0.0,0.0,0.0,0.0,0.0,0.0,0.0,0.0,0.0,0.0,0.0,1.6554,1.7043,1.7939,1.8365,1.8696,1.8878,1.9035,1.9069,1.9035,1.8878,1.8695,1.8428,1.7888,1.7724,1.792,1.7582,1.7165,1.6702,1.6716,1.6421,1.5819,1.5055,1.447,1.4088,1.3913,1.3923,1.4065,1.4771,1.5103,1.5271,1.578,1.61,1.6275,1.6522,1.6892,1.7323,1.7598,1.7814,0.0,0.0,0.0,1.7164,1.7182,1.7576,1.8216,1.9158,1.9924,2.0702,2.1669,2.2322,2.2924,2.3627,2.3853,2.39,2.408,2.3741,2.3006,2.1732,2.1069,2.0573,2.0135,1.9828,1.9503,1.9189,1.9081,1.9082,1.9173,1.9243,1.9425,1.9586,1.9667,1.9556,1.9183,1.9173,1.9043,1.8643,1.8633,1.8633,1.8633,1.8633,1.8691,1.8809,1.8809,1.8916,1.9121,1.9491,2.0139,2.1024,2.187,2.2778,2.3601,2.4276,2.4633,2.4581,2.4151,2.3928,2.3835,2.3266,2.3551,2.4108,0.0,0.0,0.0,0.0,0.0,0.0,0.0,0.0,0.0,0.0,0.0,0.0,1.6382,1.6371,1.6436,1.657,1.6773,1.7216,1.7951,1.8374,1.8695,1.8892,1.903,0.0,1.9099,1.8896,1.8715,1.8492,1.7958,1.7893,1.8261,1.8257,1.8307,1.8313,1.7274,1.6742,1.6596,1.5796,1.5209,1.4827,1.4698,1.4931,1.5385,1.5364,1.5708,1.6151,1.6306,1.6392,1.6436,1.682,1.7157,1.7475,1.8068,1.8214,1.8189,0.0,0.0,0.0,1.6645,1.6986,1.7564,1.8141,1.907,2.0012,2.0668,2.1179,2.1882,2.2962,2.2898,2.2701,2.2779,2.2631,2.2217,2.1409,2.0988,2.0634,2.0431,1.9978,1.9476,1.893,1.8426,1.8171,1.8171,1.8366,1.8671,1.9106,1.9281,1.8951,1.8051,1.7966,1.7646,1.6875,1.6865,1.6865,1.6865,1.6865,1.707,1.748,1.748,1.79,1.8672,1.8893,1.9505,2.0339,2.1541,2.244,2.3067,2.3829,2.3886,2.35,2.3536,2.3335,2.2982,2.289,2.3227,2.3846,0.0,0.0,0.0,0.0,0.0,0.0,0.0,0.0,0.0,0.0,0.0,0.0,0.0,1.6436,1.6425,1.6463,1.6924,1.741,1.7901,1.8298,1.8622,1.8823,1.8961,1.9066,1.9102,1.8949,1.877,1.8548,1.8103,1.8255,1.899,1.8641,1.8743,1.9087,1.8397,1.7775,1.717,1.6402,1.5801,1.5392,1.5352,1.5477,1.5661,1.5969,1.623,1.6392,1.6436,1.6479,1.6522,1.6876,1.7199,1.7598,1.8226,1.845,1.8478,1.8201,1.772,1.724,1.6905,1.6901,1.7062,1.7604,1.7999,1.8493,1.9409,2.0024,2.0627,2.1393,2.1649,2.1599,2.132,2.1696,2.1721,2.0664,2.0363,1.9988,1.9481,1.9215,1.8952,1.8374,1.8113,1.7947,1.7947,1.7957,1.7967,1.8068,1.8142,1.7879,1.7336,1.7326,1.7129,1.6738,1.6665,1.6665,1.6665,1.6445,1.6523,1.6963,1.6963,1.7275,1.7832,1.8024,1.8682,1.9666,2.0172,2.1172,2.2418,2.2832,2.2799,2.2516,2.2299,2.2391,2.2659,2.2887,2.3636,2.4705,0.0,0.0,0.0,0.0,0.0,0.0,0.0,0.0,0.0,0.0,0.0,0.0,0.0,0.0,1.6517,1.6517,1.7007,1.7476,1.7782,1.8172,1.8467,1.8662,1.8825,1.8913,1.8966,1.8843,1.8714,1.8526,1.81,1.8413,1.9378,1.8824,1.8915,1.9566,1.9072,1.8344,1.7449,1.6915,1.6381,1.5969,1.5969,1.5969,1.6007,1.6371,1.6522,1.6522,1.6522,1.6522,1.662,1.6947,1.7323,1.772,1.8383,1.8721,1.8736,1.8214,1.7841,1.7516,1.7157,1.6918,1.685,1.7149,1.7314,1.7576,1.8304,1.8882,1.9472,2.0225,2.0557,2.0643,2.0685,2.1127,2.1146,1.9998,1.9764,1.958,1.9116,1.9073,1.8844,1.8094,1.79,1.7722,1.7483,1.7444,1.7459,1.7513,1.7533,1.7348,1.6825,1.6614,1.6345,1.5869,1.5859,1.5859,1.5859,1.5684,1.5831,1.6351,1.6351,1.6592,1.7168,1.7278,1.7794,1.8761,1.899,2.0048,2.1488,2.1649,2.1638,2.1559,2.1277,2.164,2.234,2.2794,2.3777,2.5079,0.0,0.0,0.0,0.0,0.0,0.0,0.0,0.0,0.0,1.7329,0.0,0.0,0.0,0.0,0.0,1.6696,1.6998,1.7314,1.7581,1.7968,1.8253,1.8397,1.8577,1.8694,1.8697,1.8619,1.854,1.8385,1.7932,1.8259,1.9356,1.8763,1.8915,1.966,1.9118,1.8394,1.7475,1.7282,1.6947,1.6522,1.6522,1.6522,1.6522,1.6522,1.6522,1.6522,1.6522,1.6577,1.6761,1.7073,1.7475,1.7908,1.8592,1.8936,1.8988,1.8386,1.8016,1.776,0.0,0.0,0.0,1.6718,1.7049,1.7363,1.735,1.779,1.848,1.951,1.9645,1.9837,2.0736,2.0831,2.0387,1.9445,1.942,1.9502,1.949,1.9655,1.9275,1.8054,1.7655,1.7257,1.6743,1.6708,1.6917,1.739,1.7575,1.7257,1.6277,1.5861,1.5189,1.416,1.4228,1.4291,1.4301,1.445,1.4879,1.5555,1.5565,1.5969,1.6699,1.6709,1.7007,1.7615,1.8051,1.9071,2.0389,2.0267,2.0307,2.0481,2.0616,2.1114,2.1863,2.2542,2.366,2.4975,0.0,0.0,0.0,0.0,0.0,0.0,0.0,0.0,1.7704,0.0,0.0,0.0,1.6993,1.6633,1.6441,1.655,1.6826,1.7129,1.7434,1.7794,1.8046,1.8254,1.8357,1.8432,1.8478,1.8443,1.8365,1.8191,1.7866,1.7985,1.8545,1.8498,1.8622,1.8847,1.8832,1.8344,1.7475,1.7282,1.6947,1.6522,1.6522,1.6522,1.6522,1.6522,1.6522,1.6522,1.6522,1.6577,1.6761,1.7199,1.7557,1.7948,1.8745,1.9139,1.9265,1.895,1.863,1.8319,1.8016,0.0,0.0,0.0,0.0,0.0,1.676,1.72,1.7702,1.799,1.8319,1.8646,1.8784,1.8796,1.8645,1.8289,1.9357,2.0086,1.9684,1.9262,1.8736,1.7921,1.711,1.6417,1.6081,1.5733,1.5473,1.5391,1.5366,1.5149,1.4733,1.4615,1.4439,1.4247,1.4108,1.4202,1.4576,1.4409,1.4573,1.4972,1.5205,1.5541,1.591,1.6164,1.6547,1.6978,1.7096,1.7589,1.8327,1.9323,1.9855,2.0088,2.0653,2.1281,2.2071,2.3363,2.438,2.529,0.0,0.0,0.0,0.0,0.0,0.0,1.7749,1.7749,1.7704,0.0,0.0,0.0,1.6919,1.6549,1.6375,1.6502,1.6713,1.7003,1.7337,1.7658,1.7901,1.8082,1.8176,1.8233,1.8232,1.8218,1.8082,1.7893,1.7602,1.7667,1.8028,1.7974,1.8159,1.846,1.8374,1.789,1.717,1.7136,1.6863,1.6522,1.6522,1.6522,1.6522,1.6522,1.6522,1.6522,1.6565,1.6705,1.6876,1.7352,1.7868,1.8461,1.9026,1.9339,1.9465,1.9228,1.8988,1.8683,1.8411,1.7962,1.7516,1.7157,0.0,0.0,1.6522,1.6773,1.7087,1.7338,1.7639,1.7928,1.8047,1.8097,1.8049,1.8001,1.8816,1.9356,1.8976,1.8506,1.7969,1.7185,1.6325,1.5659,1.5308,1.4851,1.4573,1.4503,1.4427,1.4241,1.3877,1.3877,1.3841,1.3777,1.3771,1.396,1.4407,1.4345,1.444,1.4635,1.4767,1.5008,1.5338,1.5478,1.5869,1.6455,1.6455,1.6699,1.7178,1.83,1.9124,1.9656,2.0535,2.1458,2.2396,2.3815,2.4802,2.5572,0.0,0.0,0.0,1.7664,1.7817,1.7884,1.7822,1.7866,1.7813,0.0,1.741,1.7158,1.6719,1.6491,1.6414,1.6475,1.6678,1.695,1.7278,1.7551,1.7755,1.7862,1.8008,1.8053,1.7983,1.7922,1.7772,1.7566,1.7224,1.7265,1.7626,1.7306,1.7515,1.8155,0.0,0.0,1.6622,1.6818,1.6689,1.6434,1.6497,1.6522,1.6522,1.6522,1.6522,1.6522,1.6663,1.6846,1.7128,1.7639,1.8383,1.9139,1.9376,1.9501,1.9574,1.9413,1.9191,1.8979,1.863,1.8187,1.772,1.7323,1.696,0.0,1.6522,1.6522,1.666,1.7187,1.7287,1.7438,1.7881,1.7969,1.8016,1.7969,1.7862,1.7805,1.7786,1.7593,1.7123,1.6173,1.5559,1.5006,1.4489,1.4181,1.4053,1.4258,1.4235,1.4004,1.3457,1.3437,1.3372,1.3192,1.3488,1.38,1.4118,1.4362,1.4544,1.4616,1.4432,1.4552,1.4949,1.4877,1.5282,1.5986,1.5986,1.624,1.6689,1.7244,1.8125,1.9251,2.0313,2.1566,2.282,2.3999,2.4957,2.5688,0.0,0.0,0.0,1.7595,1.8168,1.8548,1.8443,1.8893,1.8982,1.8284,1.745,1.6809,1.6496,1.6416,1.6402,1.6428,1.6744,1.706,1.7282,1.7552,1.7738,1.7828,1.7912,1.7912,1.7833,1.7772,1.7618,1.7368,1.7027,1.6775,1.6698,1.6874,1.6877,1.6702,1.6718,1.6459,1.5998,1.6125,1.6074,1.5894,1.6333,1.6522,1.6522,1.6522,1.6577,1.6675,1.6791,1.7057,1.7432,1.8201,1.8784,1.9302,1.9501,1.9611,1.9654,1.9617,1.956,1.9391,1.8936,1.8592,1.8187,1.7516,1.7157,0.0,1.6565,1.6522,1.6504,1.6585,1.661,1.6592,1.6584,1.6685,1.6729,1.6596,1.6552,1.686,1.7687,1.7193,1.6504,1.6008,1.5018,1.4269,1.3957,1.3535,1.3283,1.3333,1.3234,1.3195,1.3155,1.3204,1.331,1.3631,1.3952,1.4316,1.472,1.4869,1.4868,1.4669,1.4682,1.4725,1.478,1.4904,1.5182,1.5537,1.5537,1.5791,1.6262,1.6769,1.7583,1.8668,2.0115,2.155,2.3062,2.4127,2.516,2.6131,0.0,1.7502,1.7618,1.7641,1.8279,1.8668,1.8442,1.8989,1.9181,1.8587,1.7638,1.6995,1.6806,1.6534,1.6375,1.6456,1.6779,1.7093,1.7317,1.7575,1.7715,1.7743,1.7789,1.7726,1.7549,1.7439,1.7248,1.6952,1.6686,1.6421,1.6207,1.6303,1.6322,1.6271,1.6422,1.6244,1.5838,1.6295,1.6204,1.5743,1.6296,1.6522,1.6522,1.6522,1.6577,1.6718,1.696,1.7447,1.8095,1.8669,1.9101,1.945,1.9596,1.9654,1.969,1.969,1.9596,1.9413,1.9101,1.8669,1.8214,1.7598,1.7199,0.0,0.0,1.6522,1.6479,1.6392,1.6392,1.6362,1.6244,1.6318,1.6362,1.6244,1.61,1.6106,1.6488,1.6114,1.5626,1.5101,1.4363,1.3763,1.3498,1.3172,1.2978,1.2978,1.2978,1.3027,1.3152,1.3296,1.3536,1.3999,1.4305,1.4674,1.5187,1.5289,1.5187,1.4983,1.4733,1.4595,1.4512,1.459,1.4864,1.5231,1.5448,1.5781,1.6167,1.6765,1.7525,1.848,2.0138,2.1572,2.2843,2.4309,2.5191,2.5816,1.7589,0.0,1.7692,1.7826,1.8384,1.8741,1.8583,1.9079,1.9279,1.8747,1.7988,1.743,1.7349,1.6862,1.6581,1.6691,1.6917,1.7158,1.7384,1.7737,1.7838,1.7692,1.7937,1.7885,1.7486,1.7468,1.7277,1.6936,1.662,1.6363,1.6165,1.5872,1.5905,1.6207,1.631,1.6135,1.5851,1.6557,1.6399,1.5743,1.6296,1.6522,1.6522,1.6522,1.662,1.6803,1.724,1.7948,1.8707,1.9026,1.9339,1.9611,1.969,1.969,1.969,1.969,1.9596,1.9376,1.9139,1.8683,1.8149,1.7598,1.7199,1.6833,0.0,0.0,0.0,1.6392,1.6362,1.6318,1.6144,1.6231,1.6262,1.6156,1.5881,1.5603,1.5232,1.496,1.4686,1.4176,1.3752,1.343,1.3133,1.2978,1.2881,1.2881,1.3027,1.3162,1.3266,1.3515,1.3894,1.4362,1.4674,1.513,1.5647,1.5603,1.5501,1.5355,1.4731,1.4434,1.4374,1.4274,1.4516,1.4964,1.5469,1.5763,1.6079,1.6879,1.7636,1.8344,2.0025,2.1418,2.2574,2.4103,2.4888,2.5336,1.7559,1.7512,0.0,1.8311,1.8868,1.9365,1.9725,2.0162,2.011,1.916,1.8499,1.8069,1.7928,1.7584,1.7385,1.7467,1.7338,1.7325,1.7478,1.8248,1.8358,1.7646,1.876,1.8986,1.8111,1.8478,1.8514,1.8204,1.7392,1.6938,1.6789,1.598,1.5845,1.6192,1.5924,1.5772,1.5824,1.6127,1.6041,1.5743,1.6296,1.6522,1.6522,1.6522,1.6693,1.7086,1.7868,1.8422,1.8822,1.9228,1.9465,1.9611,1.969,1.969,1.969,1.969,1.9632,1.9501,1.9026,1.8707,1.8319,1.7598,1.7199,1.6918,1.6565,0.0,1.6436,1.6275,0.0,1.6156,1.5881,0.0,0.0,1.5804,1.5513,1.5187,1.4754,1.4244,1.3905,1.3858,1.3515,1.319,1.3133,1.2978,1.2881,1.2881,1.3027,1.321,1.3525,1.3789,1.4258,1.4971,1.5289,1.5647,1.6113,1.6001,1.5812,1.5546,1.4937,1.465,1.4552,1.4255,1.4358,1.4753,1.5209,1.5512,1.5718,1.6669,1.7494,1.8336,1.9492,2.0924,2.2481,2.2948,2.3866,2.4856,1.7589,1.7885,0.0,1.8409,1.9208,1.9796,1.9767,1.9991,2.0008,1.9665,1.9055,1.8679,1.8747,1.8453,1.8292,1.8389,1.8557,1.8651,1.8709,1.9124,1.919,1.8733,1.9137,1.9098,1.8499,1.8566,1.8468,1.8176,1.7714,1.7453,1.7342,1.6995,1.6789,1.6789,1.6878,1.6678,1.6292,1.6638,1.6545,1.6183,1.6421,1.6522,1.6522,1.6522,1.6808,1.7393,1.8147,1.8669,1.9026,1.9376,1.956,1.9654,1.969,1.969,1.969,1.969,1.956,1.9339,1.8988,1.85,1.7988,1.7516,1.7115,1.6748,1.6565,1.6522,1.6479,1.6362,0.0,0.0,0.0,0.0,0.0,0.0,1.5077,1.4574,1.4376,1.3754,1.332,1.3437,1.3286,1.3113,1.2978,1.2929,1.2881,1.2881,1.3104,1.3382,1.3716,1.4222,1.4766,1.5334,1.5635,1.5913,1.62,1.6013,1.578,1.5546,1.4915,1.4482,1.4259,1.4229,1.4357,1.4614,1.5122,1.5626,1.6159,1.6732,1.7434,1.8238,1.9001,2.0184,2.1604,2.266,2.3378,2.3941,1.8215,0.0,1.859,1.8827,1.9515,1.9939,1.9698,1.9726,1.9797,1.9919,1.9615,1.9446,1.9597,1.9374,1.9256,1.9394,1.9541,1.9624,1.9623,1.986,1.9822,1.9399,1.9544,1.9409,1.8873,1.8874,1.8745,1.8483,1.8238,1.8082,1.8032,1.787,1.7673,1.7544,1.7748,1.7483,1.6956,1.7098,1.6947,1.6565,1.6522,1.6522,1.6565,1.665,1.706,1.7679,1.8344,1.8822,1.9139,1.9501,1.9596,1.9617,1.9654,1.9654,1.9654,1.9654,1.9487,1.9228,1.886,1.8305,1.772,1.7393,1.7002,1.6675,1.6522,1.6522,1.6479,1.6392,1.6362,0.0,0.0,0.0,1.5736,1.5367,0.0,1.4016,1.4007,1.3355,1.2909,1.3158,1.3152,1.3085,1.2978,1.2929,1.2881,1.2881,1.319,1.3515,1.3858,1.4536,1.5142,1.5558,1.5913,1.6175,1.6231,1.6013,1.5736,1.5468,1.4891,1.4477,1.4172,1.4264,1.4363,1.4552,1.5071,1.5685,1.6381,1.683,1.7402,1.8139,1.8774,1.9576,2.0624,2.211,2.2774,2.305,1.9703,1.8937,1.8681,1.983,1.9798,1.9667,1.9783,1.9747,1.9726,1.9797,2.0065,2.0308,2.0462,2.0273,2.0251,2.0414,1.9981,1.9717,1.9691,2.0251,2.0135,1.9159,2.0146,2.0269,1.929,1.9771,1.9949,1.9737,1.9209,1.894,1.8857,1.8243,1.811,1.8346,1.8064,1.7857,1.7733,1.7352,1.6989,1.6675,1.6565,1.6577,1.6718,1.7031,1.7434,1.7868,1.8553,1.8898,1.9139,1.9501,1.9538,1.9413,1.9574,1.9611,1.9611,1.9611,1.9465,1.9176,1.8669,1.8147,1.7679,1.7157,1.6846,1.6675,1.6522,1.6522,1.6479,1.6392,1.6318,1.6113,1.5836,1.5647,1.5367,1.4994,1.4127,0.0,0.0,1.3032,1.2781,1.3158,1.3152,1.3085,1.3085,1.2978,1.2881,1.2881,1.319,1.3552,1.3978,1.4686,1.5289,1.5792,1.6175,1.6392,1.6392,1.6132,1.5824,1.5513,1.4971,1.4662,1.4581,1.4348,1.4348,1.4625,1.5075,1.5549,1.6074,1.6875,1.7531,1.8139,1.8774,1.917,1.9605,2.1019,2.1882,2.2422,2.0505,1.9925,1.9509,1.978,1.9922,2.0097,2.0332,2.0311,2.0483,2.1235,2.1541,2.1869,2.2296,2.2442,2.2408,2.2104,2.1943,2.1624,2.0986,2.1005,2.0809,2.0257,2.0428,2.0302,1.9779,1.9854,1.9869,1.9797,1.9693,1.9656,1.971,1.9501,1.9295,1.9117,1.8826,1.8341,1.7787,1.7475,1.7073,1.6675,1.6565,1.6607,1.6846,1.7115,1.7434,1.7801,1.8372,1.8721,1.8936,1.9176,1.9228,1.9213,1.9376,1.9413,1.9413,1.9413,1.9176,1.886,1.8461,1.7948,1.7434,1.7073,1.6778,1.6565,1.6522,1.6522,1.6479,1.6479,1.6392,1.6231,1.5881,1.5558,1.5187,1.464,1.3607,1.2868,0.0,1.2757,1.2827,1.3416,1.3258,1.3085,1.3085,1.2978,1.2881,1.2881,1.3286,1.3658,1.3967,1.4869,1.5513,1.5792,1.6219,1.6392,1.6275,1.6013,1.5703,1.5345,1.4937,1.4708,1.4662,1.4558,1.4697,1.4937,1.5165,1.5747,1.6562,1.6908,1.7589,1.8452,1.8934,1.9251,1.9556,2.0969,2.1606,2.1895,2.1407,2.0842,2.024,1.9923,2.0012,2.019,2.0442,2.0848,2.1461,2.233,2.2902,2.3368,2.3697,2.4011,2.3951,2.3386,2.3071,2.263,2.1936,2.1391,2.099,2.0679,2.0376,2.015,1.9919,1.9797,1.9762,1.9797,1.9955,2.008,2.0204,2.0239,2.0065,1.9732,1.9384,1.8846,1.8108,1.772,1.7323,1.6931,1.6663,1.6705,1.6918,1.7044,1.7365,1.7814,1.8228,1.8489,1.8669,1.8822,1.886,1.8822,1.8988,1.9064,1.9101,1.9101,1.8898,1.8592,1.8187,1.772,1.7282,1.696,1.6693,1.6522,1.6522,1.6522,1.6522,1.6522,1.6392,1.6132,1.578,1.5379,1.4869,1.4326,1.3316,1.2606,0.0,1.2797,1.3046,1.3484,1.3155,1.2932,1.2932,1.2742,1.2646,1.2646,1.3253,1.3705,1.3978,1.4949,1.5603,1.5792,1.6262,1.6392,1.62,1.5969,1.5691,1.5345,1.5108,1.4971,1.4971,1.4971,1.5108,1.53,1.5345,1.5823,1.6592,1.6938,1.7615,1.8512,1.9061,1.9356,1.9648,2.0902,2.1499,2.1758,2.2439,2.1562,2.0797,2.0331,2.0101,2.0038,2.0179,2.1415,2.2488,2.3071,2.4182,2.4815,2.4689,2.5001,2.4945,2.4248,2.3405,2.2736,2.2394,2.1388,2.0693,2.0376,2.0131,1.9919,1.9797,1.9726,1.9726,1.9797,2.001,2.0204,2.041,2.0494,2.041,2.0174,1.9732,1.9273,1.8784,1.8108,1.7652,1.7363,1.6888,1.6803,1.6876,1.6876,1.7295,1.7882,1.8083,1.8214,1.8266,1.8422,1.8383,1.8305,1.85,1.8669,1.8745,1.8745,1.863,1.8344,1.7841,1.7434,1.7115,1.6761,1.662,1.6522,1.6522,1.6522,1.6522,1.6522,1.625,1.5957,1.5635,1.5062,1.4488,1.4067,1.334,1.2802,1.2847,1.316,1.3389,1.3457,1.2975,1.262,1.261,1.2355,1.2227,1.2227,1.3091,1.3705,1.3978,1.4949,1.5603,1.5792,1.6262,1.6392,1.62,1.6088,1.5856,1.5513,1.5513,1.5513,1.5513,1.5513,1.5614,1.5715,1.5614,1.5808,1.6291,1.6907,1.7589,1.8304,1.9071,1.946,1.9726,2.0766,2.144,2.1874,2.2502,2.123,2.0298,2.0458,2.0202,2.0328,2.1565,2.2128,2.3097,2.4926,2.5744,2.6372,2.7036,2.6867,2.6455,2.5708,2.4705,2.3529,2.2038,2.1509,2.0918,2.0161,1.9955,1.9797,1.9726,1.9726,1.9762,1.9955,2.0166,2.0373,2.061,2.0644,2.0527,2.0342,1.9854,1.9369,1.8831,1.8319,1.7788,1.7212,1.696,1.6876,1.6876,1.6803,1.696,1.7253,1.7529,1.7639,1.772,1.776,1.7787,1.7868,1.7948,1.8108,1.8226,1.8226,1.8068,1.7841,1.7556,1.7212,1.6918,1.6761,1.662,1.6522,1.6522,1.6522,1.6522,1.6522,1.6306,1.6057,1.568,1.5085,1.4547,1.4057,1.3386,1.3038,1.3207,1.3348,1.3549,1.3946,1.3447,1.2903,1.2473,1.2381,1.2345,1.2345,1.3222,1.3858,1.4129,1.5006,1.5603,1.5792,1.6262,1.6436,1.6362,1.6231,1.6057,1.5856,1.578,1.578,1.5856,1.5856,1.5957,1.6069,1.6013,1.6317,1.6827,1.6961,1.7617,1.8521,1.8807,1.9386,2.0121,2.0519,2.0976,2.1314,2.3363,2.1998,2.0925,2.0772,2.1046,2.1493,2.2166,2.3252,2.4644,2.6479,2.7442,2.825,2.8936,2.8497,2.7772,2.668,2.5505,2.4047,2.2252,2.1569,2.0819,1.995,1.9797,1.9726,1.969,1.969,1.9762,1.9919,2.0115,2.0373,2.061,2.066,2.0644,2.0527,2.0065,1.9624,1.9207,1.8592,1.8016,1.7502,1.717,1.696,0.0,1.6705,1.6705,1.6778,1.6934,1.7102,1.7282,1.7282,1.7323,1.7393,1.7516,1.7639,1.776,1.776,1.7639,1.7447,1.7225,1.7015,1.6803,1.6675,1.6565,1.6522,1.6522,1.6522,1.6522,1.6522,1.6306,1.6013,1.5736,1.513,1.4571,1.414,1.3832,1.3707,1.3889,1.3958,1.4045,1.4236,1.3777,1.3252,1.2826,1.2701,1.2665,1.2665,1.3501,1.4082,1.4316,1.5096,1.5647,1.5869,1.6306,1.6479,1.6392,1.6318,1.6231,1.61,1.6044,1.6088,1.6175,1.6175,1.6219,1.6275,1.6244,1.6404,1.6757,1.6992,1.7644,1.8462,1.9021,1.9503,1.9937,2.0073,2.0297,2.057,2.4521,2.3213,2.2047,2.1456,2.2322,2.3041,2.2815,2.4609,2.6451,2.7825,2.9064,2.9974,3.0412,2.9741,2.8744,2.7344,2.5986,2.4467,2.267,2.1642,2.0706,1.9843,1.9726,1.969,1.969,1.969,1.9726,1.9797,1.999,2.0235,2.0509,2.061,2.0677,2.0628,2.0254,1.9889,1.9566,1.8808,1.8279,1.7868,1.7406,1.7073,1.6876,1.6607,1.6522,1.6522,1.6522,1.6693,1.6905,1.6905,1.696,1.696,1.7115,1.724,1.7323,1.7323,1.724,1.7115,1.6918,1.6761,1.6633,1.6522,1.6522,1.6522,1.6522,1.6522,1.6522,1.6522,1.625,1.6001,1.5881,1.5266,1.4663,1.4351,1.4408,1.4558,1.4708,1.4777,1.4755,1.4605,1.4182,0.0,1.3629,1.3284,1.3083,1.3083,1.3825,1.4362,1.4593,1.522,1.5724,1.5988,1.6349,1.6479,1.6392,1.6392,1.6362,1.6231,1.6362,1.6392,1.6392,1.6392,1.6392,1.6392,1.6275,1.6318,1.643,1.6916,1.7535,1.8304,1.9284,1.9645,1.9589,1.9589,1.9662,1.9803,2.4759,2.3371,2.2624,2.3464,2.3605,2.4073,2.5579,2.6224,2.7086,2.8904,2.9535,3.0164,3.1084,3.0079,2.8918,2.7991,2.6631,2.4855,2.2514,2.1919,2.1061,1.9771,1.9726,1.969,1.969,1.969,1.9747,1.9803,1.999,2.0233,2.0419,2.0494,2.0532,2.0436,2.017,1.9726,1.9176,1.8745,1.8358,1.7922,1.7393,1.7073,1.6876,1.6607,1.6522,1.6522,1.6522,1.6522,1.6607,1.6607,1.6663,1.6761,1.6761,1.6876,1.7002,1.7002,1.6876,1.6761,1.6718,1.662,1.6522,1.6522,1.6522,1.6522,1.6522,1.6522,1.6522,1.6522,1.6392,1.6306,1.6144,1.5635,1.5085,1.4812,1.4994,1.5187,1.5334,1.5412,1.5457,1.5412,1.5285,1.5149,1.5138,1.4183,1.3564,1.3564,1.4316,1.4812,1.5017,1.5468,1.5824,1.5988,1.6349,1.6479,1.6479,1.6479,1.6479,1.6436,1.6479,1.6479,1.6479,1.6479,1.6479,1.6479,1.6479,1.6479,1.6491,1.6579,1.723,1.8254,1.8892,1.9309,1.9594,1.9594,1.9522,1.949,2.5697,2.4662,2.4041,2.4306,2.4748,2.5614,2.7189,2.8169,2.913,3.0211,3.0519,3.1037,3.2001,3.079,2.9362,2.8204,2.7096,2.5227,2.247,2.1963,2.1158,1.975,1.969,1.969,1.969,1.969,1.9711,1.9732,1.9888,2.001,2.0196,2.027,2.0277,2.0218,1.998,1.9617,1.9176,1.8784,1.8344,1.7868,1.7393,1.7044,1.6761,1.6565,1.6522,1.6522,1.6522,1.6522,1.6522,1.6522,1.6522,1.662,1.662,1.6663,1.6693,1.6693,1.6663,1.662,1.662,1.6534,1.6522,1.6522,1.6522,1.6597,1.6898,1.6974,1.6974,1.6974,1.6873,1.6685,1.6193,1.5856,1.5591,1.5412,1.5546,1.568,1.5736,1.5869,1.5869,1.5812,1.5768,1.5736,1.5647,1.5189,1.4817,1.4652,1.5037,1.5322,1.5468,1.5792,1.6057,1.6219,1.6392,1.6522,1.6522,1.6522,1.6522,1.6522,1.6522,1.6522,1.6522,1.6522,1.6522,1.6522,1.6522,1.6522,1.6547,1.6848,1.7451,1.8242,1.8814,1.9308,1.9709,1.9709,1.9645,1.9633,2.7096,2.6326,2.5697,2.5347,2.6096,2.7149,2.8507,3.0013,3.1096,3.1404,3.1467,3.1835,3.2707,3.1345,2.9782,2.8237,2.7274,2.5503,2.2501,2.194,2.1096,1.975,1.969,1.969,1.969,1.969,1.969,1.969,1.9756,1.9843,1.997,2.0056,2.0045,2.0039,1.9782,1.9508,1.9228,1.8784,1.8266,1.776,1.7323,1.696,1.6675,1.6565,1.6522,1.6522,1.6522,1.6522,1.6522,1.6522,1.6522,1.6522,1.6522,1.6522,1.6522,1.6522,1.6522,1.6522,1.6522,1.6522,1.6522,1.6522,1.6609,1.6823,1.7275,1.7476,1.7551,1.7551,1.7493,1.7182,1.6402,1.6259,1.6178,1.5949,1.6001,1.6088,1.6088,1.6188,1.6231,1.6132,1.612,1.6044,1.5957,1.6044,1.5988,1.5724,1.5724,1.578,1.5881,1.61,1.6275,1.6392,1.6479,1.6522,1.6522,1.6522,1.6522,1.6522,1.6522,1.6522,1.6522,1.6522,1.6522,1.6522,1.6522,1.6522,1.6559,1.7011,1.7526,1.8066,1.8614,1.917,1.9633,1.9786,1.9798,1.9798,2.891,2.794,2.7248,2.7801,2.7933,2.8502,3.0021,3.1245,3.2053,3.2346,3.2038,3.2022,3.2707,3.1345,2.9782,2.8237,2.7259,2.543,2.2501,2.194,2.1096,1.975,1.969,1.969,1.969,1.969,1.969,1.969,1.9756,1.9822,1.9807,1.9929,1.995,1.9833,1.9669,1.9413,1.9101,1.8669,1.8187,1.7679,1.7199,1.6876,1.6675,1.6565,1.6522,1.6522,1.6522,1.6522,1.6522,1.6522,1.6522,1.6522,1.6522,1.6522,1.6522,1.6522,1.6522,1.6522,1.6522,1.6522,1.6522,1.6522,1.6911,1.7313,1.7375,1.7765,1.8129,1.8129,1.8129,1.7906,1.7194,1.7095,1.6888,1.6274,1.6275,1.6349,1.6349,1.6436,1.6479,1.6436,1.6436,1.6436,1.6436,1.6436,1.6436,1.6423,1.6231,1.6144,1.6156,1.6318,1.6392,1.6392,1.6479,1.6522,1.6522,1.6522,1.6522,1.6522,1.6522,1.6522,1.6522,1.6522,1.6522,1.6522,1.6522,1.6522,1.6522,1.6572,1.6936,1.7513,1.8053,1.8622,1.9113,1.962,1.9798,1.9798,3.0177,2.9417,2.8928,2.9026,2.9142,2.9725,3.1099,3.1987,3.2772,3.3355,3.2757,3.2409,3.2934,3.1361,2.9657,2.8054,2.7148,2.5548,2.3016,2.2143,2.1276,2.0348,1.9899,1.969,1.969,1.969,1.969,1.969,1.9741,1.9741,1.9741,1.9792,1.9777,1.9726,1.9523,1.9265,1.8936,1.8344,1.7868,1.7475,1.7002,1.6705,1.6565,1.6522,1.6522,1.6522,1.6522,1.6522,1.6522,1.6522,1.6522,1.6522,1.6522,1.6522,1.6522,1.6522,1.6522,1.6522,1.6522,1.6522,1.6522,1.6522,1.6948,1.7463,1.7802,1.8304,1.8694,1.8694,1.843,1.8141,1.7856,1.7543,1.7255,1.694,1.666,1.6479,1.6479,1.6479,1.6522,1.662,1.662,1.6663,1.6748,1.6663,1.662,1.662,1.6491,1.6392,1.6392,1.6436,1.6479,1.6479,1.6479,1.6522,1.6522,1.6522,1.6522,1.6522,1.6522,1.6522,1.6522,1.6522,1.6522,1.6522,1.6522,1.6522,1.6522,1.6522,1.7062,1.7918,1.8101,1.8729,1.9531,1.9722,1.9798,1.9798,3.1396,3.0833,3.0378,3.0277,3.0421,3.0911,3.2038,3.2734,3.3387,3.4201,3.3479,3.2999,3.3284,3.1649,2.994,2.8491,2.73,2.5722,2.3626,2.2556,2.1605,2.0752,2.0243,1.9884,1.969,1.969,1.969,1.969,1.969,1.969,1.969,1.969,1.969,1.9654,1.9413,1.9101,1.8745,1.8068,1.7598,1.724,1.6846,1.662,1.6522,1.6522,1.6522,1.6522,1.6522,1.6522,1.6522,1.6522,1.6522,1.6522,1.6522,1.6522,1.6522,1.6522,1.6522,1.6522,1.6522,1.6522,1.6559,1.6722,1.72,1.7765,1.8317,1.8869,1.9258,1.9258,1.8945,1.8631,1.848,1.8129,1.7765,1.7438,1.7036,1.671,1.6547,1.6522,1.6534,1.6675,1.6675,1.6761,1.6876,1.6803,1.6718,1.6675,1.662,1.6522,1.6522,1.6522,1.6522,1.6522,1.6522,1.6522,1.6522,1.6522,1.6522,1.6522,1.6522,1.6522,1.6522,1.6522,1.6522,1.6522,1.6522,1.6522,1.6491,1.6697,1.7238,1.7982,1.8321,1.89,1.9585,1.9736,1.9798,1.9798,3.2501,3.2074,3.1736,3.1864,3.1962,3.2281,3.2879,3.3507,3.4101,3.4594,3.4143,3.3789,3.3776,3.2274,3.0843,2.977,2.781,2.5923,2.4284,2.3236,2.2084,2.0782,2.0707,2.0378,1.969,1.969,1.969,1.969,1.969,1.969,1.969,1.969,1.9654,1.9574,1.9376,1.8988,1.8461,1.7988,1.7475,1.7002,1.6761,1.662,1.6522,1.6522,1.6522,1.6522,1.6522,1.6522,1.6522,1.6522,1.6522,1.6522,1.6522,1.6522,1.6522,1.6522,1.6522,1.6522,1.6522,1.6522,1.666,1.7225,1.779,1.8342,1.8845,1.9422,1.9798,1.9798,1.9786,1.9623,1.912,1.902,1.8643,1.7564,1.7375,1.7174,1.6597,1.6522,1.6534,1.6675,1.6675,1.6761,1.6876,1.6876,1.6846,1.6718,1.6675,1.6633,1.6522,1.6522,1.6522,1.6522,1.6522,1.6522,1.6522,1.6522,1.6522,1.6522,1.6522,1.6522,1.6522,1.6522,1.6522,1.6522,1.6522,1.6522,1.6559,1.7137,1.742,1.7521,1.8586,1.8978,1.9067,1.9611,1.9798,1.9798,3.3527,3.3245,3.3033,3.2996,3.3049,3.3193,3.3559,3.3832,3.4201,3.4643,3.4589,3.4504,3.4314,3.2232,3.0467,2.9382,2.7469,2.5846,2.4697,2.3423,2.2488,2.2069,2.162,2.1066,2.0408,2.0378,2.0154,1.969,1.969,1.969,1.969,1.969,1.9654,1.9574,1.9176,1.8822,1.8461,1.7787,1.7323,1.696,1.6705,1.6522,1.6522,1.6522,1.6522,1.6522,1.6522,1.6522,1.6522,1.6522,1.6522,1.6522,1.6522,1.6522,1.6522,1.6522,1.6522,1.6522,1.6522,1.681,1.7149,1.7338,1.8078,1.8819,1.8933,1.9434,1.9798,1.9798,1.9798,1.9748,1.9585,1.8957,1.8355,1.8003,1.7287,1.6722,1.6547,1.6522,1.6565,1.6791,1.6876,1.7002,1.7225,1.717,1.7073,1.7044,1.6918,1.6748,1.6522,1.6522,1.6522,1.6522,1.6522,1.6522,1.6522,1.6522,1.6522,1.6522,1.6522,1.6522,1.6522,1.6522,1.6522,1.6522,1.6522,1.6735,1.7124,1.73,1.7823,1.85,1.8855,1.9233,1.9573,1.9723,1.9798,1.9798,3.4202,3.4101,3.3949,3.3797,3.3848,3.3949,3.4101,3.43,3.4497,3.4739,3.4851,3.4688,3.412,3.2207,3.0671,2.9911,2.7829,2.6184,2.5244,2.4058,2.3191,2.2739,2.2278,2.1754,2.1096,2.1081,2.0752,2.0079,1.9809,1.969,1.969,1.969,1.9617,1.9465,1.9064,1.8669,1.8187,1.7639,1.7199,1.6876,1.6607,1.6522,1.6522,1.6522,1.6522,1.6522,1.6522,1.6522,1.6522,1.6522,1.6522,1.6522,1.6522,1.6522,1.6522,1.6522,1.6522,1.6559,1.6785,1.7099,1.7488,1.7903,1.8518,1.9033,1.9271,1.9572,1.9798,1.9798,1.9798,1.9748,1.9547,1.8957,1.838,1.7965,1.73,1.6773,1.6547,1.6522,1.6607,1.6876,1.6918,1.7044,1.7308,1.7253,1.7199,1.7199,1.7128,1.7002,1.6778,1.6693,1.6607,1.6577,1.6577,1.6565,1.6522,1.6522,1.6522,1.6522,1.6522,1.6522,1.6522,1.6522,1.6635,1.6848,1.6848,1.7174,1.7714,1.7915,1.8415,1.903,1.9208,1.9522,1.9798,1.9759,1.9708,1.9695,3.4607,3.4643,3.4497,3.4349,3.4448,3.4546,3.4497,3.4756,3.4899,3.4899,3.4849,3.4409,3.3402,3.208,3.1195,3.1029,2.8649,2.6808,2.5861,2.5047,2.4059,2.2843,2.2742,2.2428,2.1784,2.1769,2.144,2.0782,2.0094,1.975,1.975,1.9705,1.9545,1.9302,1.9026,1.85,1.7787,1.7516,1.7115,1.6675,1.6565,1.6522,1.6522,1.6522,1.6522,1.6522,1.6522,1.6522,1.6522,1.6522,1.6522,1.6522,1.6522,1.6522,1.6522,1.6522,1.6522,1.6647,1.7225,1.7413,1.7689,1.8707,1.9008,1.9158,1.9647,1.9747,1.9798,1.9798,1.9798,1.9648,1.912,1.8945,1.857,1.7551,1.735,1.7137,1.6554,1.6479,1.6607,1.6833,1.6876,1.7002,1.7199,1.724,1.724,1.724,1.735,1.7391,1.7253,1.7086,1.6876,1.6718,1.6675,1.6633,1.6522,1.6522,1.6522,1.6522,1.6522,1.6522,1.6522,1.6559,1.6873,1.7388,1.7426,1.7752,1.8304,1.8819,1.8995,1.9133,1.961,1.9798,1.9747,1.9656,1.9552,1.9527,3.5165,3.5135,3.5058,3.4804,3.4787,3.4787,3.4643,3.4707,3.4756,3.4756,3.4213,3.3612,3.3064,3.1421,3.0192,2.9847,2.813,2.6652,2.5706,2.5001,2.4253,2.3415,2.3385,2.3086,2.2499,2.2443,2.2113,2.1455,2.0797,2.0468,2.0453,1.9929,1.9545,1.9302,1.8988,1.8422,1.7787,1.7393,1.7044,1.6675,1.6565,1.6522,1.6522,1.6522,1.6522,1.6522,1.6522,1.6522,1.6522,1.6522,1.6522,1.6522,1.6522,1.6522,1.6522,1.6522,1.6522,1.6647,1.7225,1.7631,1.8012,1.8684,1.9081,1.9312,1.9319,1.95,1.9656,1.9656,1.9759,1.9648,1.912,1.8571,1.8012,1.7372,1.6834,1.6435,1.63,1.6362,1.6479,1.6718,1.6876,1.7086,1.7308,1.7406,1.7488,1.7584,1.772,1.776,1.7747,1.7679,1.7419,1.6876,1.6761,1.6633,1.6522,1.6522,1.6522,1.6522,1.6522,1.6522,1.6534,1.6974,1.725,1.74,1.7827,1.8317,1.8795,1.897,1.9258,1.9623,1.9748,1.9759,1.9604,1.9512,1.9294,1.9157,3.4886,3.4953,3.4964,3.5085,3.5088,3.4994,3.4739,3.4691,3.4643,3.4448,3.373,3.2902,3.2141,3.0683,2.9539,2.8801,2.7917,2.701,2.6093,2.5435,2.4777,2.4103,2.3759,2.3445,2.3101,2.3101,2.2787,2.2143,2.1485,2.1006,2.0707,2.0266,1.9753,1.9176,1.8822,1.8305,1.7639,1.7282,1.6918,1.662,1.6522,1.6522,1.6522,1.6522,1.6522,1.6522,1.6522,1.6522,1.6522,1.6522,1.6522,1.6522,1.6522,1.6522,1.6522,1.6522,1.6522,1.6697,1.7539,1.7872,1.8127,1.8718,1.9044,1.921,1.9146,1.9303,1.9512,1.9617,1.9656,1.947,1.8684,1.814,1.7575,1.6786,1.6284,1.6013,1.61,1.6231,1.6504,1.6942,1.713,1.7437,1.7939,1.807,1.8286,1.8611,1.8549,1.8632,1.892,1.8659,1.8058,1.7086,1.6918,1.6748,1.6522,1.6522,1.6522,1.6522,1.6522,1.666,1.6923,1.7237,1.7652,1.8154,1.8455,1.8882,1.9384,1.9384,1.9496,1.9708,1.9722,1.9606,1.9399,1.9218,1.8948,1.8653,3.437,3.4489,3.4621,3.5069,3.5224,3.5152,3.4739,3.4643,3.4464,3.3955,3.311,3.2157,3.0898,2.9912,2.8981,2.805,2.784,2.7455,2.6632,2.6063,2.542,2.4612,2.4059,2.3699,2.3595,2.3595,2.334,2.2858,2.2158,2.156,2.1006,2.0757,2.0209,1.9353,1.8953,1.8328,1.7608,1.7287,1.6948,1.6647,1.6647,1.6647,1.6647,1.6647,1.6597,1.6522,1.6522,1.6522,1.6491,1.6622,1.6647,1.666,1.6748,1.671,1.6647,1.6647,1.6647,1.6873,1.7869,1.8174,1.8253,1.877,1.8893,1.8893,1.8893,1.9146,1.9356,1.9512,1.9512,1.923,1.8091,1.769,1.7193,1.6082,1.5824,1.5792,1.5913,1.6118,1.6571,1.7267,1.7516,1.7925,1.8629,1.8819,1.9139,1.969,1.9543,1.9628,2.023,1.9698,1.8838,1.7558,1.7255,1.691,1.6522,1.6522,1.6522,1.6522,1.6522,1.6823,1.7388,1.7463,1.8066,1.8983,1.912,1.9397,1.9798,1.9798,1.9708,1.9552,1.953,1.9337,1.9052,1.8758,1.8448,1.8137,3.4472,3.4489,3.4452,3.4399,3.4889,3.5152,3.4594,3.4448,3.3973,3.2912,3.1926,3.0867,2.9747,2.8786,2.816,2.7855,2.7725,2.734,2.6632,2.6497,2.5899,2.4627,2.4477,2.4193,2.361,2.3595,2.355,2.346,2.2832,2.2473,2.2353,2.1664,2.1138,2.0712,2.0217,1.9375,1.8249,1.7917,1.7593,1.725,1.725,1.725,1.725,1.725,1.6936,1.6522,1.6522,1.6522,1.6597,1.7087,1.725,1.7325,1.779,1.7626,1.725,1.725,1.725,1.7388,1.7862,1.8374,1.8584,1.8321,1.8367,1.8476,1.8476,1.8786,1.9052,1.9093,1.9186,1.8909,1.7702,1.7326,1.6847,1.5735,1.548,1.5435,1.5558,1.6254,1.6843,1.7215,1.7857,1.8372,1.8681,1.8924,1.9288,1.9738,2.0075,2.0345,2.0429,2.0359,1.9906,1.8977,1.8179,1.7337,1.6522,1.6522,1.6522,1.6522,1.6522,1.6823,1.74,1.7865,1.843,1.9008,1.9497,1.9723,1.9798,1.9656,1.9565,1.9408,1.9169,1.8835,1.8419,1.8125,1.7785,1.7376,3.4421,3.4489,3.4536,3.4767,3.5027,3.4994,3.4448,3.4151,3.354,3.2313,3.1315,3.0273,2.919,2.8399,2.784,2.7675,2.7625,2.749,2.7141,2.6782,2.6318,2.5704,2.5016,2.4313,2.361,2.3595,2.3595,2.3595,2.331,2.2996,2.2667,2.2188,2.1586,2.0947,2.0415,1.9658,1.8844,1.8455,1.8091,1.7827,1.7827,1.7827,1.7827,1.7827,1.7476,1.6986,1.6986,1.6785,1.6609,1.7187,1.7388,1.7476,1.8028,1.8028,1.7827,1.7827,1.7768,1.7787,1.8142,1.8461,1.8572,1.8193,1.8193,1.8259,1.8259,1.8518,1.8774,1.8774,1.8709,1.8354,1.7612,1.7178,1.6784,1.6182,1.6018,1.6125,1.6385,1.6871,1.7421,1.8014,1.8432,1.8902,1.9341,1.9694,2.0125,2.0628,2.0871,2.1152,2.1492,2.1092,2.065,2.0254,1.8552,1.7416,1.6986,1.6672,1.6522,1.6522,1.6522,1.6974,1.784,1.8091,1.8607,1.932,1.9608,1.9604,1.9488,1.9396,1.9239,1.8934,1.8727,1.8317,1.7818,1.7512,1.717,1.6872,3.4387,3.4489,3.4631,3.5014,3.5111,3.4947,3.4399,3.3949,3.3232,3.1967,3.0902,2.9913,2.8861,2.8147,2.7725,2.7625,2.7575,2.7524,2.7524,2.7011,2.6653,2.6553,2.5237,2.4224,2.3581,2.3566,2.3551,2.3595,2.3595,2.3355,2.2892,2.2666,2.2173,2.1396,2.0809,2.012,1.9455,1.9006,1.8643,1.8392,1.8392,1.8392,1.8392,1.8392,1.8053,1.7576,1.7576,1.7287,1.6999,1.7576,1.7765,1.7865,1.8405,1.8493,1.8392,1.8392,1.8284,1.8251,1.8469,1.8529,1.8398,1.8084,1.803,1.803,1.803,1.8247,1.8398,1.8344,1.817,1.7847,1.7345,1.7044,1.6793,1.6603,1.6573,1.6773,1.7156,1.7665,1.8216,1.8759,1.9133,1.9573,1.9965,2.0321,2.0772,2.1326,2.1458,2.177,2.2296,2.1735,2.1217,2.0881,1.8849,1.7639,1.7388,1.6936,1.6647,1.6522,1.6522,1.7036,1.8016,1.8094,1.8621,1.9379,1.9451,1.9356,1.9081,1.8963,1.8762,1.8398,1.8116,1.77,1.7233,1.6899,1.6613,1.6446,3.4472,3.4489,3.4462,3.4381,3.4897,3.5041,3.4399,3.3949,3.3181,3.1634,3.0639,2.9667,2.8719,2.803,2.7625,2.7625,2.7488,2.7401,2.7401,2.7152,2.6806,2.6451,2.4988,2.3984,2.3524,2.3509,2.3538,2.3595,2.3595,2.358,2.3535,2.3463,2.3172,2.2759,2.226,2.1318,2.0114,1.9708,1.9287,1.892,1.892,1.892,1.892,1.892,1.8631,1.8141,1.8141,1.8116,1.8166,1.8719,1.8907,1.8995,1.9522,1.9359,1.892,1.892,1.8858,1.8759,1.8899,1.8536,1.8084,1.7822,1.7711,1.7711,1.7711,1.7865,1.7909,1.7634,1.7579,1.7379,1.6708,1.6696,1.671,1.6441,1.6585,1.6846,1.7228,1.8367,1.9086,1.8859,1.9859,2.0416,2.0041,2.0233,2.0623,2.118,2.167,2.1988,2.2044,2.1988,2.15,2.0472,1.942,1.8417,1.7388,1.7338,1.7049,1.6522,1.6522,1.6848,1.7463,1.7859,1.8264,1.8695,1.8939,1.8946,1.8798,1.8375,1.8104,1.7897,1.7335,1.6912,1.6648,1.6304,1.6093,1.5946,3.5182,3.5182,3.5155,3.5082,3.5044,3.4899,3.4399,3.3729,3.2798,3.1581,3.0899,3.0181,2.9334,2.8554,2.8099,2.8099,2.7536,2.7093,2.6959,2.6803,2.6286,2.5453,2.4878,2.4119,2.3142,2.3216,2.326,2.329,2.3451,2.3538,2.3538,2.3509,2.3275,2.2889,2.2402,2.1655,2.0673,2.0296,1.985,1.951,1.951,1.951,1.951,1.951,1.9183,1.8719,1.8719,1.8493,1.8292,1.8844,1.8983,1.9071,1.9635,1.966,1.951,1.951,1.9357,1.9224,1.9377,1.9097,1.8621,1.8227,1.8291,1.8397,1.828,1.8189,1.8119,1.8071,1.7895,1.7782,1.7843,1.8052,1.8272,1.8506,1.8826,1.9166,1.9587,2.017,2.0395,2.0047,2.0413,2.0492,1.9925,2.0169,2.0523,2.0822,2.1313,2.1616,2.1616,2.1299,2.0809,2.0182,1.9724,1.9145,1.8405,1.7727,1.7262,1.7049,1.7049,1.7293,1.7797,1.8202,1.8496,1.8722,1.8638,1.8344,1.7963,1.7678,1.7346,1.7078,1.6708,1.6368,1.6171,1.5924,1.5838,1.58,3.5622,3.5622,3.5577,3.552,3.5228,3.4851,3.4448,3.361,3.2754,3.1805,3.1195,3.0594,2.9978,2.8994,2.8367,2.8314,2.7407,2.6698,2.6525,2.619,2.5583,2.4583,2.4476,2.3874,2.2706,2.2768,2.2859,2.2979,2.3216,2.3363,2.3466,2.3466,2.3275,2.2889,2.2402,2.1732,2.0993,2.056,2.0156,1.9798,1.9798,1.9798,1.9798,1.9798,1.9572,1.9271,1.9271,1.9032,1.8769,1.9145,1.9271,1.9334,1.9685,1.9798,1.9798,1.9798,1.978,1.9687,1.9703,1.9616,1.9391,1.865,1.8577,1.8577,1.8334,1.8251,1.8179,1.819,1.8068,1.8129,1.8627,1.8988,1.9406,1.9983,2.0344,2.0701,2.1099,2.1361,2.1387,2.0991,2.097,2.0702,2.0125,2.0182,2.0321,2.0472,2.0871,2.1166,2.1166,2.0709,2.0321,1.999,1.9862,1.9623,1.9271,1.8355,1.7815,1.7639,1.7593,1.7722,1.7954,1.8264,1.8358,1.8295,1.8058,1.7678,1.7256,1.6965,1.6684,1.64,1.6181,1.6009,1.5826,1.5642,1.5604,1.5585,3.5622,3.5622,3.5622,3.5622,3.5321,3.4947,3.4546,3.3764,3.3018,3.2453,3.15,3.0704,3.0522,2.9247,2.8329,2.8207,2.7045,2.6244,2.6111,2.5397,2.4682,2.4016,2.3756,2.3136,2.2212,2.2184,2.2356,2.2694,2.2844,2.3038,2.3275,2.329,2.3187,2.2889,2.2402,2.1746,2.0993,2.056,2.0156,1.9798,1.9798,1.9798,1.9798,1.9798,1.9798,1.9798,1.9798,1.9798,1.9798,1.9798,1.9798,1.9798,1.9798,1.9798,1.9798,1.9811,2.0095,2.0316,1.9867,2.0122,2.0262,1.8967,1.8373,1.8027,1.7719,1.7771,1.7894,1.776,1.8006,1.8323,1.8747,1.9287,1.9889,2.0309,2.0713,2.0998,2.1294,2.1766,2.196,2.1556,2.1493,2.128,2.0769,2.0267,2.0042,2.0182,2.0472,2.061,2.061,2.0321,2.0131,1.999,1.9862,1.9798,1.9798,1.9284,1.8756,1.8204,1.8049,1.7941,1.7787,1.7927,1.7756,1.7322,1.7203,1.7032,1.6751,1.6285,1.6114,1.6056,1.5788,1.5672,1.5672,1.5478,1.541,1.541,3.5622,3.5622,3.5577,3.552,3.5228,3.4787,3.43,3.3491,3.2749,3.2302,3.1687,3.1225,3.1111,2.9696,2.8583,2.8221,2.6677,2.5412,2.4865,2.4434,2.3932,2.332,2.3152,2.2528,2.1361,2.1554,2.1746,2.1921,2.2795,2.3306,2.3601,2.4098,2.396,2.3292,2.2865,2.1986,2.0845,2.051,2.0156,1.9798,1.9798,1.9798,1.9798,1.9798,1.9798,1.9798,1.9798,1.9798,1.9798,1.9798,1.9798,1.9798,1.9798,1.9798,1.9874,2.0288,2.0366,2.0324,2.074,2.0521,2.0048,1.9346,1.9136,1.9061,1.8726,1.8726,1.8791,1.8986,1.9297,1.9734,2.0301,2.0862,2.1425,2.1946,2.2186,2.2352,2.253,2.2668,2.2627,2.2133,2.1732,2.128,2.0769,2.0267,2.0042,2.0042,2.0233,2.0271,2.0182,2.008,1.9978,1.9862,1.9811,1.9798,1.9798,1.9284,1.8883,1.861,1.8474,1.8227,1.7951,1.8037,1.7778,1.7203,1.6901,1.657,1.6161,1.5894,1.572,1.5584,1.5536,1.5478,1.5478,1.541,1.541,1.541,3.5622,3.5594,3.5503,3.5446,3.5041,3.4594,3.4101,3.3282,3.2602,3.2191,3.1697,3.1351,3.1117,2.9708,2.8524,2.8054,2.6159,2.4681,2.4015,2.3806,2.3385,2.2738,2.2661,2.2256,2.147,2.1572,2.1776,2.2028,2.282,2.3413,2.3723,2.4141,2.3985,2.3243,2.2754,2.1853,2.0709,2.0372,2.0067,1.9798,1.9798,1.9798,1.9798,1.9798,1.9798,1.9798,1.9798,1.9798,1.9798,1.9798,1.9798,1.9798,1.9798,1.9962,2.0213,2.0618,2.0814,2.1018,2.1318,2.1101,2.0563,1.9946,1.9587,1.9341,1.8942,1.9008,1.9198,1.9594,2.0042,2.0624,2.1313,2.1827,2.2347,2.2739,2.2909,2.3017,2.3078,2.3078,2.2952,2.2673,2.2146,2.1681,2.1343,2.0869,2.0595,2.0595,2.0648,2.0701,2.0595,2.0595,2.0441,2.015,2.015,2.0037,1.9708,1.9345,1.9132,1.9018,1.8775,1.8414,1.7955,1.7761,1.7335,1.674,1.6332,1.5931,1.57,1.5546,1.5488,1.541,1.541,1.541,1.541,1.5478,1.5536,1.5536,3.5577,3.552,3.5446,3.5291,3.4787,3.43,3.3899,3.3024,3.2345,3.189,3.1375,3.094,3.0586,2.9189,2.8111,2.765,2.5513,2.3956,2.339,2.3403,2.3043,2.241,2.2385,2.2318,2.2214,2.2098,2.2265,2.2671,2.2991,2.3321,2.3737,2.3792,2.346,2.2873,2.2234,2.1416,2.056,2.0182,1.9926,1.9798,1.9798,1.9798,1.9798,1.9798,1.9798,1.9798,1.9798,1.9798,1.9798,1.9798,1.9836,1.9874,1.9874,2.0238,2.0743,2.0832,2.1419,2.1984,2.1738,2.1679,2.1463,2.0624,1.9781,1.9075,1.8607,1.8875,1.933,1.9781,2.0431,2.1146,2.1827,2.2347,2.2739,2.2909,2.3017,2.3078,2.3078,2.3078,2.3078,2.3078,2.2648,2.2309,2.2309,2.1807,2.1493,2.1493,2.1493,2.1493,2.1493,2.1493,2.1255,2.0806,2.0794,2.0435,1.9766,1.9559,1.9417,1.9316,1.8893,1.8433,1.7855,1.7177,1.6644,1.6062,1.5645,1.5449,1.541,1.5322,1.5293,1.541,1.541,1.541,1.5478,1.5672,1.573,1.5788,3.552,3.5446,3.5245,3.4899,3.4448,3.3984,3.3282,3.2229,3.1311,3.0758,2.9876,2.9101,2.8684,2.7655,2.6747,2.6077,2.455,2.3437,2.3198,2.3138,2.3075,2.2902,2.2962,2.2899,2.2892,2.2147,2.1911,2.2226,2.3039,2.3607,2.4041,2.4394,2.3987,2.2945,2.2485,2.1551,2.0283,2.0093,1.9926,1.9798,1.9798,1.9798,1.9798,1.9798,1.9798,1.9798,1.9798,1.9798,1.9798,1.9798,2.01,2.0476,2.0476,2.0618,2.0894,2.1707,2.189,2.1881,2.2019,2.1717,2.1146,2.0366,1.9857,1.9407,1.9075,1.9341,1.9868,2.0172,2.0944,2.1651,2.2223,2.2604,2.2909,2.3017,2.3078,2.3078,2.3078,2.3078,2.3078,2.3078,2.2648,2.2309,2.2309,2.1807,2.1493,2.1493,2.1493,2.1493,2.1493,2.1493,2.143,2.1317,2.1305,2.1187,2.0841,2.0092,1.9462,1.8905,1.8344,1.7879,1.7423,1.6652,1.6205,1.6061,1.5855,1.5604,1.5486,1.5626,1.5554,1.541,1.541,1.5478,1.5672,1.5826,1.5999,1.6296,3.5337,3.5152,3.4899,3.4497,3.3759,3.3013,3.2342,3.1198,3.0232,2.9625,2.8826,2.8154,2.7647,2.6726,2.5738,2.4675,2.3855,2.333,2.3138,2.3078,2.3078,2.3078,2.3078,2.3078,2.3078,2.2619,2.249,2.2832,2.3397,2.3883,2.4209,2.4359,2.3811,2.2671,2.2239,2.135,2.008,1.9978,1.9862,1.9798,1.9798,1.9798,1.9798,1.9798,1.9798,1.9798,1.9798,1.9987,2.0263,2.0514,2.0815,2.1054,2.1054,2.1242,2.1556,2.2146,2.2322,2.2297,2.2286,2.1862,2.1273,2.0495,2.0358,2.0137,1.9393,1.9539,2.0064,2.0571,2.1262,2.1963,2.242,2.2787,2.3017,2.3078,2.3078,2.3078,2.3078,2.3078,2.3078,2.3078,2.2874,2.2711,2.2711,2.2447,2.2272,2.2272,2.2272,2.2272,2.2272,2.2272,2.2101,2.1781,2.1781,2.146,2.0779,2.0115,1.932,1.8407,1.7899,1.7397,1.6941,1.6071,1.564,1.5486,1.5348,1.5314,1.526,1.5576,1.5641,1.5546,1.5546,1.572,1.5894,1.6171,1.656,1.709,3.4938,3.4605,3.4235,3.3695,3.2679,3.1773,3.1166,3.0083,2.9085,2.8463,2.7855,2.7267,2.6695,2.5819,2.4807,2.3667,2.345,2.3271,2.3138,2.3078,2.3078,2.3078,2.3078,2.3078,2.3078,2.3078,2.3258,2.3628,2.376,2.3982,2.4247,2.4099,2.3428,2.2307,2.1869,2.1028,1.9978,1.9862,1.9798,1.9798,1.9798,1.9798,1.9798,1.9798,1.9798,1.9798,1.9747,2.0185,2.0824,2.1274,2.15,2.1575,2.1575,2.1945,2.2334,2.2422,2.2668,2.2787,2.2482,2.2037,2.1549,2.0929,2.1006,2.0952,2.0114,2.0105,2.0479,2.1039,2.1642,2.2258,2.2629,2.2909,2.3078,2.3078,2.3078,2.3078,2.3078,2.3078,2.3078,2.3078,2.3165,2.3215,2.3215,2.3215,2.3215,2.3215,2.3188,2.3078,2.3078,2.3078,2.2805,2.225,2.2238,2.1651,2.0535,2.0029,1.9231,1.8123,1.7429,1.6858,1.6386,1.5614,1.5081,1.4887,1.4953,1.5071,1.5223,1.5595,1.5756,1.5781,1.576,1.5951,1.6285,1.6729,1.7401,1.8058,3.3931,3.3515,3.2919,3.1623,3.1013,3.0452,2.9924,2.8764,2.7755,2.7215,2.6119,2.5222,2.4749,2.4125,2.3646,2.3463,2.3271,2.3138,2.3078,2.3078,2.3078,2.3078,2.3078,2.3078,2.3078,2.3078,2.3258,2.3628,2.3628,2.3806,2.4112,2.3806,2.3084,2.206,2.166,2.0907,1.9811,1.9811,1.9798,1.9798,1.9798,1.9798,1.9798,1.9798,1.9798,1.9798,1.9656,2.0221,2.0989,2.1063,2.1465,2.2048,2.2048,2.2143,2.2397,2.2887,2.2859,2.2678,2.2482,2.1901,2.1504,2.1675,2.1517,2.1531,2.2173,2.2196,2.206,2.2185,2.2631,2.2955,2.2874,2.3017,2.3078,2.3078,2.3078,2.3078,2.3078,2.3078,2.3078,2.3078,2.3577,2.3879,2.3879,2.3879,2.3879,2.3879,2.3414,2.3078,2.3078,2.3078,2.2992,2.2797,2.2688,2.2201,2.1416,2.0211,1.9326,1.8639,1.7015,1.6063,1.5699,1.512,1.4965,1.5196,1.5539,1.5815,1.612,1.6094,1.6138,1.6188,1.5976,1.6228,1.6807,1.7733,1.8344,1.8732,3.2705,3.2225,3.1722,3.0756,2.994,2.9192,2.8645,2.7509,2.6507,2.5896,2.5097,2.4421,2.3956,2.3497,2.321,2.321,2.3138,2.3078,2.3078,2.3078,2.3078,2.3078,2.3078,2.3078,2.3078,2.3078,2.321,2.3509,2.3569,2.3747,2.4112,2.3747,2.3026,2.2005,2.166,2.0865,1.9798,1.9798,1.9798,1.9798,1.9798,1.9798,1.9798,1.9798,1.9759,1.9743,2.0151,2.0653,2.1243,2.1665,2.2053,2.2441,2.2489,2.2668,2.2824,2.3002,2.2969,2.28,2.2616,2.244,2.2313,2.2345,2.2718,2.3152,2.3715,2.3987,2.3975,2.3335,2.3276,2.334,2.3344,2.323,2.3078,2.3078,2.3078,2.3078,2.3078,2.3078,2.3263,2.3577,2.4117,2.4456,2.4456,2.4456,2.4456,2.4456,2.4217,2.3941,2.364,2.3492,2.3158,2.2616,2.2273,2.169,2.0933,1.9931,1.8947,1.8017,1.6893,1.6127,1.5713,1.5105,1.4985,1.5204,1.5692,1.6042,1.6294,1.6712,1.6752,1.6587,1.6729,1.7123,1.7733,1.8441,1.8881,1.9158]},{"header":{"parameterUnit":"m.s-1","parameterCategory":1,"la1":30.6,"la2":28.766,"lo1":-90.7593,"lo2":-88.6598,"dy":0.0162,"dx":0.0183,"nx":116,"ny":114,"refTime":"2023-09-25T00:00:00:Z","depth":0,"parameterNumber":3,"parameterNumberName":"V-component_of_WINDS"},"data":[0.0,0.0,0.0,0.0,0.0,0.0,0.0,0.0,0.0,0.0,0.0,0.0,0.0,0.0,0.0,0.0,0.0,0.0,0.0,0.0,0.0,0.0,0.0,0.0,0.0,0.0,0.0,0.0,0.0,0.0,0.0,0.0,0.0,0.0,0.0,0.0,0.0,0.0,0.0,0.0,0.0,0.0,0.0,0.0,0.0,0.0,0.0,0.0,0.0,0.0,0.0,0.0,0.0,0.0,0.0,0.0,0.0,0.0,0.0,0.0,0.0,0.0,0.0,0.0,0.0,0.0,0.0,0.0,0.0,0.0,0.0,0.0,0.0,0.0,0.0,0.0,0.0,0.0,0.0,0.0,0.0,0.0,0.0,0.0,0.0,0.0,0.0,0.0,0.0,0.0,0.0,0.0,0.0,0.0,0.0,0.0,0.0,0.0,0.0,0.0,0.0,0.0,0.0,0.0,0.0,0.0,0.0,0.0,0.0,0.0,0.0,0.0,0.0,0.0,0.0,0.0,0.0,0.0,0.0,0.0,0.0,0.0,0.0,0.0,0.0,0.0,0.0,0.0,0.0,0.0,0.0,0.0,0.0,0.0,0.0,0.0,0.0,0.0,0.0,0.0,0.0,0.0,0.0,0.0,0.0,0.0,0.0,0.0,0.0,0.0,0.0,0.0,0.0,0.0,0.0,0.0,0.0,0.0,0.0,0.0,0.0,0.0,0.0,0.0,0.0,0.0,0.0,0.0,0.0,0.0,0.0,0.0,0.0,0.0,0.0,0.0,0.0,0.0,0.0,0.0,0.0,0.0,0.0,0.0,0.0,0.0,0.0,0.0,0.0,0.0,0.0,0.0,0.0,0.0,0.0,0.0,0.0,0.0,0.0,0.0,0.0,0.0,0.0,0.0,0.0,0.0,0.0,0.0,0.0,0.0,0.0,0.0,0.0,0.0,0.0,0.0,0.0,0.0,0.0,0.0,0.0,0.0,0.0,0.0,0.0,0.0,0.0,0.0,0.0,0.0,0.0,0.0,0.0,0.0,0.0,0.0,0.0,0.0,0.0,0.0,0.0,0.0,0.0,0.0,0.0,0.0,0.0,0.0,0.0,0.0,0.0,0.0,0.0,0.0,0.0,0.0,0.0,0.0,0.0,0.0,0.0,0.0,0.0,0.0,0.0,0.0,0.0,0.0,0.0,0.0,0.0,0.0,0.0,0.0,0.0,0.0,0.0,0.0,0.0,0.0,0.0,0.0,0.0,0.0,0.0,0.0,0.0,0.0,0.0,0.0,0.0,0.0,0.0,0.0,0.0,0.0,0.0,0.0,0.0,0.0,0.0,0.0,0.0,0.0,0.0,0.0,0.0,0.0,0.0,0.0,0.0,0.0,0.0,0.0,0.0,0.0,0.0,0.0,0.0,0.0,0.0,0.0,0.0,0.0,0.0,0.0,0.0,0.0,0.0,0.0,0.0,0.0,0.0,0.0,0.0,0.0,0.0,0.0,0.0,0.0,0.0,0.0,0.0,0.0,0.0,0.0,0.0,0.0,0.0,0.0,0.0,0.0,0.0,0.0,0.0,0.0,0.0,0.0,0.0,0.0,0.0,0.0,0.0,0.0,0.0,0.0,0.0,0.0,0.0,0.0,0.0,0.0,0.0,0.0,0.0,0.0,0.0,0.0,0.0,0.0,0.0,0.0,0.0,0.0,0.0,0.0,0.0,0.0,0.0,0.0,0.0,0.0,0.0,0.0,0.0,0.0,0.0,0.0,0.0,0.0,0.0,0.0,0.0,0.0,0.0,0.0,0.0,0.0,0.0,0.0,0.0,0.0,0.0,0.0,0.0,0.0,0.0,0.0,0.0,0.0,0.0,0.0,0.0,0.0,0.0,0.0,0.0,0.0,0.0,0.0,0.0,0.0,0.0,0.0,0.0,0.0,0.0,0.0,0.0,0.0,0.0,0.0,0.0,0.0,0.0,0.0,0.0,0.0,0.0,0.0,0.0,0.0,0.0,0.0,0.0,0.0,0.0,0.0,0.0,0.0,0.0,0.0,0.0,0.0,0.0,0.0,0.0,0.0,0.0,0.0,0.0,0.0,0.0,0.0,0.0,0.0,0.0,0.0,0.0,0.0,0.0,0.0,0.0,0.0,0.0,0.0,0.0,0.0,0.0,0.0,0.0,0.0,0.0,0.0,0.0,0.0,0.0,0.0,0.0,0.0,0.0,0.0,0.0,0.0,0.0,0.0,0.0,0.0,0.0,0.0,0.0,0.0,0.0,0.0,0.0,0.0,0.0,0.0,0.0,0.0,0.0,0.0,0.0,0.0,0.0,0.0,0.0,0.0,0.0,0.0,0.0,0.0,0.0,0.0,0.0,0.0,0.0,0.0,0.0,0.0,0.0,0.0,0.0,0.0,0.0,0.0,0.0,0.0,0.0,0.0,0.0,0.0,0.0,0.0,0.0,0.0,0.0,0.0,0.0,0.0,0.0,0.0,0.0,0.0,0.0,0.0,0.0,0.0,0.0,0.0,0.0,0.0,0.0,0.0,0.0,0.0,0.0,0.0,0.0,0.0,0.0,0.0,0.0,0.0,0.0,0.0,0.0,0.0,0.0,0.0,0.0,0.0,0.0,0.0,0.0,0.0,0.0,0.0,0.0,0.0,0.0,0.0,0.0,0.0,0.0,0.0,0.0,0.0,0.0,0.0,0.0,0.0,0.0,0.0,0.0,0.0,0.0,0.0,0.0,0.0,0.0,0.0,0.0,0.0,0.0,0.0,0.0,0.0,0.0,0.0,0.0,0.0,0.0,0.0,0.0,0.0,0.0,0.0,0.0,0.0,0.0,0.0,0.0,0.0,0.0,0.0,0.0,0.0,0.0,0.0,0.0,0.0,0.0,0.0,0.0,0.0,0.0,0.0,0.0,0.0,0.0,0.0,0.0,0.0,0.0,0.0,0.0,0.0,0.0,0.0,0.0,0.0,0.0,0.0,0.0,0.0,0.0,0.0,0.0,0.0,0.0,0.0,0.0,0.0,0.0,0.0,0.0,0.0,0.0,0.0,0.0,0.0,0.0,0.0,0.0,0.0,0.0,0.0,0.0,0.0,0.0,0.0,0.0,0.0,0.0,0.0,0.0,0.0,0.0,0.0,0.0,0.0,0.0,0.0,0.0,0.0,0.0,0.0,0.0,0.0,0.0,0.0,0.0,0.0,0.0,0.0,0.0,0.0,0.0,0.0,0.0,0.0,0.0,0.0,0.0,0.0,0.0,0.0,0.0,0.0,0.0,0.0,0.0,0.0,0.0,0.0,0.0,0.0,0.0,0.0,0.0,0.0,0.0,0.0,0.0,0.0,0.0,0.0,0.0,0.0,0.0,0.0,0.0,0.0,0.0,0.0,0.0,0.0,0.0,0.0,0.0,0.0,0.0,0.0,0.0,0.0,0.0,0.0,0.0,0.0,0.0,0.0,0.0,0.0,0.0,0.0,0.0,0.0,0.0,0.0,0.0,0.0,0.0,0.0,0.0,0.0,0.0,0.0,0.0,0.0,0.0,0.0,0.0,0.0,0.0,0.0,0.0,0.0,0.0,0.0,0.0,0.0,0.0,0.0,0.0,0.0,0.0,0.0,0.0,0.0,0.0,0.0,0.0,0.0,0.0,0.0,0.0,0.0,0.0,0.0,0.0,0.0,0.0,0.0,0.0,0.0,0.0,0.0,0.0,0.0,0.0,0.0,0.0,0.0,0.0,0.0,0.0,0.0,0.0,0.0,0.0,0.0,0.0,0.0,0.0,0.0,0.0,0.0,0.0,0.0,0.0,0.0,0.0,0.0,0.0,0.0,0.0,0.0,0.0,0.0,0.0,0.0,0.0,0.0,0.0,0.0,0.0,0.0,0.0,0.0,0.0,0.0,0.0,0.0,0.0,0.0,0.0,0.0,0.0,0.0,0.0,0.0,0.0,0.0,0.0,0.0,0.0,0.0,0.0,0.0,0.0,0.0,0.0,0.0,0.0,0.0,0.0,0.0,0.0,0.0,0.0,0.0,0.0,0.0,0.0,0.0,0.0,0.0,0.0,0.0,0.0,0.0,0.0,0.0,0.0,0.0,0.0,0.0,0.0,0.0,0.0,0.0,0.0,0.0,0.0,0.0,0.0,0.0,0.0,0.0,0.0,0.0,0.0,0.0,0.0,0.0,0.0,0.0,0.0,0.0,0.0,0.0,0.0,0.0,0.0,0.0,0.0,0.0,0.0,0.0,0.0,0.0,0.0,0.0,0.0,0.0,0.0,0.0,0.0,0.0,0.0,0.0,0.0,0.0,0.0,0.0,0.0,0.0,0.0,0.0,0.0,0.0,0.0,0.0,0.0,0.0,0.0,0.0,0.0,0.0,0.0,0.0,0.0,0.0,0.0,0.0,0.0,0.0,0.0,0.0,0.0,0.0,0.0,0.0,0.0,0.0,0.0,0.0,0.0,0.0,0.0,0.0,0.0,0.0,0.0,0.0,0.0,0.0,0.0,0.0,0.0,0.0,0.0,0.0,0.0,0.0,0.0,0.0,0.0,0.0,0.0,0.0,0.0,0.0,0.0,0.0,0.0,0.0,0.0,0.0,0.0,0.0,0.0,0.0,0.0,0.0,0.0,0.0,0.0,0.0,0.0,0.0,0.0,0.0,0.0,0.0,0.0,0.0,0.0,0.0,0.0,0.0,0.0,0.0,0.0,0.0,0.0,0.0,0.0,0.0,0.0,0.0,0.0,0.0,0.0,0.0,0.0,0.0,0.0,0.0,0.0,0.0,0.0,0.0,0.0,0.0,0.0,0.0,0.0,0.0,0.0,0.0,0.0,0.0,0.0,0.0,0.0,0.0,0.0,0.0,0.0,0.0,0.0,0.0,0.0,0.0,0.0,0.0,0.0,0.0,0.0,0.0,0.0,0.0,0.0,0.0,0.0,0.0,0.0,0.0,0.0,0.0,0.0,0.0,0.0,0.0,0.0,0.0,0.0,0.0,0.0,0.0,0.0,0.0,0.0,0.0,0.0,0.0,0.0,0.0,0.0,0.0,0.0,0.0,0.0,0.0,0.0,0.0,0.0,0.0,0.0,0.0,0.0,0.0,0.0,0.0,0.0,0.0,0.0,0.0,0.0,0.0,0.0,0.0,0.0,0.0,0.0,0.0,0.0,0.0,0.0,0.0,0.0,0.0,0.0,0.0,0.0,0.0,0.0,0.0,0.0,0.0,0.0,0.0,0.0,0.0,0.0,0.0,0.0,0.0,0.0,0.0,0.0,0.0,0.0,0.0,0.0,0.0,0.0,0.0,0.0,0.0,0.0,0.0,0.0,0.0,0.0,0.0,0.0,0.0,0.0,0.0,0.0,0.0,0.0,0.0,0.0,0.0,0.0,0.0,0.0,0.0,0.0,0.0,0.0,0.0,0.0,0.0,0.0,0.0,0.0,0.0,0.0,0.0,0.0,0.0,0.0,0.0,0.0,0.0,0.0,0.0,0.0,0.0,0.0,0.0,0.0,0.0,0.0,0.0,0.0,0.0,0.0,0.0,0.0,0.0,0.0,0.0,0.0,0.0,0.0,0.0,0.0,0.0,0.0,0.0,0.0,0.0,0.0,0.0,0.0,0.0,0.0,0.0,0.0,0.0,0.0,0.0,0.0,0.0,0.0,0.0,0.0,0.0,0.0,0.0,0.0,0.0,0.0,0.0,0.0,0.0,0.0,0.0,0.0,0.0,0.0,0.0,0.0,0.0,0.0,0.0,0.0,0.0,0.0,0.0,0.0,0.0,0.0,0.0,0.0,0.0,0.0,0.0,0.0,0.0,0.0,0.0,0.0,0.0,0.0,0.0,0.0,0.0,0.0,0.0,0.0,0.0,0.0,0.0,0.0,0.0,0.0,0.0,0.0,0.0,0.0,0.0,0.0,0.0,0.0,0.0,0.0,0.0,0.0,0.0,0.0,0.0,0.0,0.0,0.0,0.0,0.0,0.0,0.0,0.0,0.0,0.0,0.0,0.0,0.0,0.0,0.0,0.0,0.0,0.0,0.0,0.0,0.0,0.0,0.0,0.0,0.0,0.0,0.0,0.0,0.0,0.0,0.0,0.0,2.0363,2.0025,0.0,0.0,0.0,0.0,0.0,0.0,0.0,0.0,0.0,0.0,0.0,0.0,0.0,0.0,0.0,0.0,0.0,0.0,0.0,0.0,0.0,0.0,0.0,0.0,0.0,0.0,0.0,0.0,0.0,0.0,0.0,0.0,0.0,0.0,0.0,0.0,0.0,0.0,1.0656,1.0857,1.1368,1.1599,1.2236,1.3152,0.0,0.0,0.0,0.0,0.0,0.0,0.0,0.0,0.0,0.0,0.0,0.0,0.0,0.0,0.0,0.0,0.0,0.0,0.0,0.0,0.0,0.0,0.0,0.0,0.0,0.0,0.0,0.0,0.0,0.0,0.0,0.0,0.0,0.0,0.0,0.0,0.0,0.0,0.0,0.0,0.0,0.0,0.0,0.0,0.0,0.0,0.0,0.0,0.0,0.0,0.0,0.0,0.0,0.0,0.0,0.0,0.0,0.0,0.0,0.0,0.0,0.0,0.0,0.0,0.0,0.0,0.0,0.0,0.0,0.0,2.1744,2.1036,0.0,0.0,0.0,0.0,0.0,0.0,0.0,0.0,0.0,0.0,0.0,0.0,0.0,0.0,0.0,0.0,0.0,0.0,0.0,0.0,0.0,0.0,0.0,0.0,0.5938,0.6207,0.6635,0.0,0.0,0.0,0.0,0.0,0.0,0.0,0.0,0.0,0.0,0.0,1.0465,1.091,1.1577,1.1825,1.2291,1.2947,1.333,0.0,0.0,0.0,0.0,0.0,0.0,0.0,0.0,0.0,0.0,0.0,0.0,0.0,0.0,0.0,0.0,0.0,0.0,0.0,0.0,0.0,0.0,0.0,0.0,0.0,0.0,0.0,0.0,0.0,0.0,0.0,0.0,0.0,0.0,0.0,0.0,0.0,0.0,0.0,0.0,0.0,0.0,0.0,0.0,0.0,0.0,0.0,0.0,0.0,0.0,0.0,0.0,0.0,0.0,0.0,0.0,0.0,0.0,0.0,0.0,0.0,0.0,0.0,2.2682,2.3489,2.4709,2.5351,2.6167,2.6891,2.4209,2.3116,2.3101,2.1889,0.0,0.0,0.0,0.0,0.0,0.0,0.0,0.0,0.0,0.0,0.0,0.0,0.0,0.0,0.0,0.0,0.0,0.0,0.0,0.0,0.0,0.5898,0.5976,0.6018,0.6657,0.7248,0.0,0.0,0.0,0.0,0.0,0.0,0.0,1.0614,1.0552,1.0275,1.0552,1.0974,1.1521,1.2052,1.2579,1.2986,1.3564,1.3836,1.3842,0.0,0.0,0.0,0.0,0.0,0.0,0.0,0.0,0.0,0.0,0.0,0.0,0.0,0.0,0.0,0.0,0.0,0.0,0.0,0.0,0.0,0.0,0.0,0.0,0.0,0.0,0.0,0.0,0.0,0.0,0.0,0.0,0.0,0.0,0.0,0.0,0.0,0.0,0.0,0.0,0.0,1.4269,1.3752,0.0,0.0,0.0,0.0,0.0,0.0,0.0,0.0,0.0,0.0,0.0,0.0,0.0,1.9581,2.0519,2.1324,2.2597,2.4398,2.4962,2.5898,2.7055,2.788,2.8729,2.9566,2.886,0.0,2.5166,2.4373,0.0,0.0,0.0,0.0,0.0,0.0,0.0,0.0,0.0,0.0,0.0,0.0,0.0,0.0,0.0,0.0,0.0,0.0,0.0,0.0,0.0,0.5923,0.6238,0.6535,0.7167,0.7721,0.8188,0.0,0.0,0.0,0.0,0.0,1.0049,1.0173,1.0232,1.0309,1.0702,1.122,1.1833,1.2623,1.3213,1.366,1.4573,1.4695,1.4326,1.4733,0.0,0.0,0.0,0.0,0.0,0.0,0.0,0.0,0.0,0.0,0.0,0.0,0.0,0.0,0.0,0.0,0.0,0.0,0.0,0.0,0.0,0.0,0.0,0.0,0.0,0.0,0.0,0.0,0.0,0.0,0.0,0.0,0.0,0.0,0.0,0.0,0.0,0.0,0.0,1.4305,1.3705,1.361,1.3716,1.4046,0.0,0.0,0.0,0.0,0.0,0.0,0.0,0.0,0.0,1.9917,2.0672,2.1777,2.3229,2.3967,2.5217,2.7013,2.7692,2.8685,2.991,3.0678,3.1336,3.1901,3.184,3.0911,2.9325,2.7171,2.5734,2.4911,0.0,0.0,0.0,0.0,2.5824,2.5824,0.0,0.0,0.0,0.0,0.0,0.0,0.0,0.0,0.0,0.0,0.0,0.0,0.5526,0.6048,0.662,0.7201,0.7811,0.8393,0.8889,0.9152,0.0,0.0,0.0,0.983,0.9851,1.0022,1.031,1.0755,1.1256,1.1838,1.2356,1.3252,1.3872,1.4364,1.5472,1.5566,1.491,1.5391,1.5631,1.5677,0.0,0.0,0.0,0.0,0.0,0.0,0.0,0.0,0.0,0.0,0.0,0.0,0.0,0.0,0.0,0.0,0.0,0.0,0.0,0.0,0.0,0.0,0.0,0.0,0.0,0.0,0.0,0.0,0.0,0.0,0.0,0.0,0.0,0.0,0.0,0.0,0.0,1.3824,1.3723,1.4068,1.4143,1.4591,0.0,0.0,0.0,0.0,0.0,0.0,1.984,2.065,2.1494,2.2384,2.314,2.4275,2.589,2.6637,2.7811,2.9426,3.0211,3.1194,3.2411,3.3206,3.368,3.4023,3.4194,3.3879,3.3035,3.0038,2.8404,2.772,2.7885,2.7855,2.7831,2.8478,2.8681,2.8681,0.0,0.0,0.0,0.0,0.0,0.0,0.0,0.0,0.0,0.0,0.0,0.5321,0.5671,0.6413,0.7148,0.7909,0.8479,0.9095,0.9721,0.9689,0.9802,1.0065,0.9907,0.9879,1.0004,1.0615,1.1256,1.1882,1.2436,1.2856,1.3071,1.3942,1.4533,1.4915,1.5899,1.6007,1.543,1.6398,1.6497,1.5985,1.6244,0.0,0.0,0.0,0.0,0.0,0.0,0.0,0.0,0.0,0.0,0.0,0.0,0.0,0.0,0.0,0.0,0.0,0.0,0.0,0.0,0.0,0.0,0.0,0.0,0.0,0.0,0.0,0.0,0.0,0.0,0.0,0.0,0.0,0.0,0.0,0.0,0.0,0.0,1.5311,1.5332,0.0,0.0,0.0,0.0,2.0225,2.0986,2.1763,2.2648,2.359,2.4365,2.4999,2.6201,2.715,2.7855,2.9082,3.0306,3.1431,3.2298,3.3298,3.4269,3.5195,3.5661,3.5867,3.6197,3.5953,3.52,3.3095,3.1625,3.0679,3.1298,3.1288,3.0943,3.1566,3.1697,3.16,0.0,0.0,0.0,0.0,0.0,0.0,0.0,0.0,0.0,0.4829,0.4934,0.5256,0.5965,0.6937,0.7923,0.8819,0.9715,1.0359,1.0673,1.0754,1.0804,1.0882,1.0732,1.0633,1.0648,1.1146,1.1796,1.2561,1.3452,1.4252,1.5021,1.5968,1.6795,1.7432,1.8261,1.8726,1.8711,1.8141,1.782,1.7741,1.776,1.7503,0.0,0.0,0.0,0.0,0.0,0.0,0.0,0.0,0.0,0.0,0.0,0.0,0.0,0.0,0.0,0.0,0.0,0.0,0.0,0.0,0.0,0.0,0.0,0.0,0.0,0.0,0.0,0.0,0.0,0.0,0.0,0.0,0.0,0.0,0.0,0.0,0.0,1.6378,1.6896,0.0,1.9262,2.0041,2.0937,2.2093,2.3053,2.3891,2.4618,2.564,2.6559,2.7251,2.827,2.9254,3.0211,3.1226,3.2137,3.3057,3.3792,3.4574,3.54,3.5913,3.6305,3.6616,3.6677,3.6599,3.635,3.5598,3.4493,3.3196,3.3541,3.3552,3.3424,3.3655,3.3633,3.3533,0.0,0.0,0.0,0.0,0.0,0.0,0.0,0.0,0.4805,0.4784,0.4923,0.5425,0.6449,0.756,0.8733,0.9885,1.0838,1.1486,1.1754,1.1728,1.1685,1.1519,1.1408,1.1373,1.1462,1.2114,1.2794,1.3523,1.4768,1.5813,1.6646,1.7779,1.8772,1.9643,2.0287,2.1021,2.1609,2.0738,2.0006,1.9292,1.8967,1.8462,1.7915,0.0,0.0,0.0,0.0,0.0,0.0,0.0,0.0,0.0,0.0,0.0,0.0,0.0,0.0,0.0,0.0,0.0,0.0,0.0,0.0,0.0,0.0,0.0,0.0,0.0,0.0,0.0,0.0,0.0,0.0,0.0,0.0,0.0,0.0,1.5857,1.6796,1.8291,1.9033,2.0031,2.1604,2.2392,2.3231,2.4417,2.5234,2.5963,2.6678,2.7503,2.8375,2.9215,3.009,3.103,3.2101,3.2832,3.3534,3.4153,3.4942,3.5657,3.6165,3.6723,3.7087,3.7326,3.7429,3.7445,3.7401,3.7445,3.6848,3.5854,3.5681,3.5623,3.5696,3.5623,3.5447,3.5182,0.0,0.0,0.0,0.0,0.0,0.0,0.0,0.487,0.4805,0.479,0.5094,0.5789,0.7062,0.8272,0.9589,1.1064,1.1851,1.2428,1.2884,1.2618,1.2309,1.2078,1.1855,1.1999,1.2455,1.3344,1.4159,1.4896,1.6385,1.7402,1.8073,1.9248,2.0308,2.1263,2.1851,2.274,2.3964,2.4263,2.3009,2.0737,1.977,1.9251,1.9045,0.0,0.0,0.0,0.0,0.0,0.0,0.0,0.0,0.0,0.0,0.0,0.0,0.0,0.0,0.0,0.0,0.0,0.0,0.0,0.0,0.0,0.0,0.0,0.0,0.0,0.0,0.0,0.0,0.0,0.0,0.0,0.0,0.0,1.6668,1.7614,1.9007,2.0941,2.1732,2.2889,2.4992,2.5042,2.5672,2.7243,2.7331,2.7808,2.8913,2.9188,2.9817,3.1013,3.1556,3.2345,3.3368,3.3854,3.4399,3.4935,3.5831,3.6383,3.6784,3.7695,3.81,3.8157,3.8455,3.8528,3.8391,3.8528,3.8583,3.8511,3.777,3.7551,3.77,3.7492,3.7118,3.6662,0.0,0.0,0.0,0.0,0.0,0.0,0.0,0.4704,0.466,0.4844,0.5086,0.5752,0.7144,0.8373,0.9768,1.149,1.2333,1.3099,1.3821,1.3649,1.3484,1.3254,1.2986,1.3125,1.37,1.4509,1.5485,1.6742,1.8073,1.9514,2.1151,2.2247,2.3379,2.4491,2.5514,2.6346,2.6956,2.7227,2.6778,2.5625,2.3449,2.2159,2.1485,0.0,0.0,0.0,0.0,0.0,0.0,0.0,0.0,0.0,0.0,0.0,0.0,0.0,0.0,0.0,0.0,0.0,0.0,0.0,0.0,0.0,0.0,0.0,0.0,0.0,0.0,0.0,0.0,0.0,0.0,0.0,1.7255,1.7996,1.8137,1.9292,2.0935,2.285,2.3915,2.49,2.6246,2.6773,2.7406,2.8423,2.8473,2.9038,3.0314,3.0753,3.1537,3.2871,3.3205,3.3715,3.4595,3.4685,3.4986,3.5718,3.6274,3.6997,3.7754,3.8132,3.8415,3.8623,3.86,3.8504,3.8391,3.8448,3.8488,3.86,3.8455,3.8455,3.8472,3.8205,3.7669,3.7013,0.0,0.0,0.0,0.0,0.0,0.0,0.0,0.457,0.4616,0.4894,0.522,0.6,0.7509,0.881,1.0136,1.1602,1.2489,1.3175,1.3782,1.3934,1.4091,1.4205,1.3947,1.4143,1.4943,1.5572,1.6553,1.8104,1.9753,2.1596,2.3609,2.4943,2.6302,2.7695,2.8519,2.9321,3.0099,3.0232,3.0155,2.9826,2.8033,2.5895,2.3665,2.2951,2.2213,2.1564,2.15,2.1287,2.103,2.131,0.0,0.0,0.0,0.0,0.0,0.0,0.0,0.0,0.0,0.0,0.0,0.0,0.0,0.0,0.0,0.0,0.0,0.0,0.0,0.0,0.0,0.0,0.0,0.0,1.871,1.9849,2.0834,2.1744,2.2982,2.4791,2.5881,2.6842,2.7754,2.8248,2.8786,2.9514,2.9641,3.0096,3.1204,3.181,3.2567,3.3661,3.3993,3.4541,3.5273,3.5125,3.5394,3.6085,3.6569,3.7282,3.8214,3.8528,3.8766,3.8985,3.8821,3.8655,3.8488,3.8488,3.8544,3.86,0.0,0.0,0.0,0.0,3.7743,3.7178,0.0,0.0,0.0,0.0,0.0,0.0,0.0,0.4505,0.4649,0.5011,0.5519,0.6431,0.801,0.9304,1.0473,1.1469,1.2291,1.2926,1.3284,1.3834,1.4388,1.4958,1.4713,1.5071,1.6088,1.6538,1.7517,1.9137,2.1375,2.3534,2.5642,2.7315,2.9127,3.0754,3.1213,3.2021,3.3161,3.325,3.3283,3.3211,3.2645,2.9983,2.6149,2.5245,2.4621,2.4217,2.4083,2.3771,2.3569,2.385,0.0,0.0,0.0,0.0,0.0,0.0,0.0,0.0,0.0,0.0,0.0,0.0,0.0,0.0,0.0,0.0,0.0,0.0,0.0,0.0,0.0,0.0,0.0,0.0,2.038,2.1993,2.4054,2.4494,2.5181,2.6541,2.769,2.8582,2.9138,2.9502,2.9895,3.067,3.0708,3.1014,3.1881,3.2458,0.0,0.0,0.0,3.501,3.5722,3.5496,3.5664,3.6274,3.6723,3.7429,3.8327,3.8788,3.9094,3.9218,3.8969,3.8694,3.8455,3.8399,3.8399,3.8399,3.8544,3.8504,3.8335,3.7934,3.7626,3.7417,0.0,0.0,0.0,0.0,0.0,0.0,0.0,0.4505,0.4822,0.5498,0.5875,0.6623,0.7878,0.8793,0.9841,1.1158,1.1698,1.2351,1.3398,1.3978,1.4563,1.5265,1.5131,1.5588,1.6645,1.7224,1.8322,2.0073,2.2579,2.5041,2.735,2.9408,3.1351,3.3095,3.3934,3.4743,3.556,3.5991,3.5749,3.5045,3.4713,3.3051,3.0703,2.9475,2.8777,2.829,2.7831,2.7508,2.7193,2.6917,2.652,2.5942,2.4679,2.3639,0.0,0.0,0.0,0.0,0.0,0.0,0.0,0.0,0.0,0.0,0.0,0.0,0.0,0.0,0.0,0.0,0.0,0.0,0.0,2.0799,2.2336,2.3774,2.5051,2.656,2.7626,2.7808,2.8903,2.9726,3.0034,3.0661,3.111,3.1235,3.1248,3.1637,3.2605,3.3135,3.414,3.5778,3.5905,3.6171,3.6535,3.6297,3.6245,3.6429,3.7058,0.0,3.8567,3.875,3.8805,3.8694,3.8286,3.7886,3.7476,3.7266,3.7266,3.731,3.823,3.8488,3.8408,3.8294,3.8262,3.8343,0.0,0.0,0.0,0.0,0.0,0.0,0.0,0.4602,0.4973,0.5631,0.6037,0.6683,0.7631,0.8431,0.9324,1.0368,1.1341,1.2164,1.274,1.3879,1.4901,1.5767,1.5988,1.6651,1.8045,1.8606,1.9879,2.1789,2.4091,2.6681,2.9459,3.1121,3.3219,3.5548,3.6114,3.7023,3.8056,3.8341,3.8127,3.7637,3.7471,3.6758,3.5498,3.2849,3.1759,3.1496,3.0835,3.0613,3.0529,3.0112,2.9576,2.8714,2.7262,2.5731,2.4203,0.0,0.0,0.0,0.0,0.0,0.0,0.0,0.0,0.0,0.0,0.0,0.0,0.0,0.0,2.0384,2.0587,0.0,2.2179,2.3384,2.4647,2.5997,2.7295,2.8562,2.9213,2.8943,2.9866,3.0604,3.0835,3.1154,3.1499,3.1788,3.18,3.2205,3.3264,3.3871,3.4807,3.6215,3.6423,3.6546,3.6796,3.6544,3.6431,3.6492,3.7074,3.7695,3.8455,3.8528,3.8528,3.8399,3.8017,3.7551,3.7194,3.6937,3.6815,3.6876,3.7401,3.7711,3.786,3.8075,3.8303,3.8511,0.0,0.0,0.0,0.0,0.0,0.0,0.0,0.0,0.5184,0.5807,0.6272,0.6833,0.7569,0.8271,0.895,0.9664,1.1134,1.2076,1.2158,1.3864,1.5295,1.6244,1.6828,1.7933,1.9557,2.0193,2.156,2.3791,2.5819,2.8341,3.1365,3.2691,3.4792,3.7513,3.7882,3.8777,4.0058,4.0212,4.0133,4.0034,3.9952,3.9851,3.9429,3.6007,3.4609,3.4286,3.3349,3.3097,3.3094,3.2492,3.1773,3.0815,2.9178,2.7429,2.5652,2.3917,2.2565,0.0,0.0,0.0,0.0,0.0,0.0,0.0,0.0,2.146,2.2103,2.1476,2.2155,2.2877,2.2969,2.3828,2.4882,2.6015,2.7058,2.8111,2.9461,3.029,3.0716,3.0274,3.0959,3.148,3.1631,3.1732,3.1984,3.2353,3.2378,3.2735,3.3687,3.4301,3.5114,3.6215,3.6535,3.6821,3.7057,3.6924,3.6814,3.6801,3.7261,3.778,3.827,3.8375,3.8319,3.81,3.761,3.727,3.6997,3.6646,3.6523,3.66,3.6585,3.6831,3.7238,3.777,3.8157,3.8551,0.0,0.0,0.0,0.0,0.0,0.0,0.0,0.0,0.0,0.6405,0.6857,0.7366,0.8035,0.8379,0.8898,0.9804,1.096,1.1871,1.2415,1.4157,1.5605,1.66,1.7464,1.8784,2.0746,2.1494,2.3041,2.5432,2.758,2.9957,3.2558,3.3998,3.5921,3.8117,3.893,3.9829,4.0736,4.1192,4.1323,4.1171,4.0886,4.0775,4.0712,3.9531,3.817,3.6721,3.5462,3.4588,3.3835,3.2453,3.1781,3.1193,2.9237,2.8096,2.7019,2.4737,2.3704,2.2904,2.1391,2.1027,2.1028,2.0991,2.1639,2.2483,0.0,2.3715,2.3973,2.4268,2.4765,2.5404,2.5847,2.6679,2.751,2.8328,2.9154,2.9882,3.0288,3.1527,3.2409,3.2523,3.2669,3.2625,3.2472,3.2916,3.3161,3.298,3.298,3.3164,3.3628,3.4147,3.5032,3.6215,3.6738,3.7257,3.7949,3.8197,3.8202,3.781,3.8394,3.8478,3.8116,3.8319,3.8091,3.7476,3.6693,3.6321,3.6274,3.5943,3.5894,3.61,3.6211,3.6631,3.7238,3.7886,3.8479,3.9152,0.0,0.0,0.0,0.0,0.0,0.0,0.0,0.0,0.0,0.0,0.704,0.7413,0.786,0.8338,0.8898,0.9609,1.0687,1.1757,1.2761,1.4348,1.6118,1.8003,1.8922,2.0391,2.2552,2.33,2.4768,2.7041,2.8414,3.0734,3.3783,3.4641,3.6392,3.881,3.9674,4.0558,4.1425,4.2121,4.2408,4.2372,4.2275,4.197,4.1432,4.0623,3.8958,3.6873,3.5714,3.4728,0.0,3.2039,3.1224,3.0622,2.9124,2.7937,2.6756,2.5244,2.4157,2.3334,2.2521,2.2637,2.3148,2.3599,2.4054,2.469,2.6101,2.6599,2.6879,2.7335,2.8027,2.8627,2.8823,2.9665,3.0462,3.0956,3.1521,3.2122,3.2663,3.3165,3.359,3.3913,3.3847,3.3675,3.3482,3.3682,3.3738,3.3484,3.3484,3.3725,3.4217,3.4729,3.5535,3.6808,3.7429,3.7957,3.8422,3.8933,3.8985,3.8764,3.8909,3.8857,3.8727,3.8398,3.8033,3.7551,3.6997,3.6754,3.6754,3.6383,3.6336,3.6414,3.6461,3.6876,3.7476,3.8042,3.8662,3.9259,0.0,0.0,0.0,0.0,0.0,0.0,0.0,0.0,0.0,0.0,0.7266,0.7618,0.7945,0.8456,0.8972,0.9499,1.0551,1.1748,1.2991,1.4797,1.6823,1.8932,2.032,2.2073,2.4268,2.5087,2.6483,2.8471,2.9441,3.1337,3.418,3.5003,3.6548,3.8735,3.9854,4.083,4.1718,4.2556,4.3065,4.3351,4.3146,4.2573,4.1705,4.0409,3.829,3.5919,3.496,3.3793,3.2427,3.0581,2.9577,2.8976,2.7962,2.7015,2.6035,2.5068,2.4324,2.3837,2.3928,2.4554,2.5356,2.6234,2.6707,2.738,2.9075,2.9437,2.9683,3.0299,3.083,3.1236,3.1302,3.1873,3.2485,3.2898,3.3424,3.3848,3.4397,3.4594,3.4654,3.4712,3.4685,3.4539,3.4311,3.4222,3.4079,3.3733,3.3875,3.4217,3.4881,3.5372,3.6177,3.7443,3.8037,3.8619,3.9167,3.9754,3.9932,3.985,3.9806,3.9753,3.9645,3.9027,3.8589,3.8179,3.7836,3.7591,3.7358,3.7013,3.6892,3.6892,3.6952,3.7358,3.7927,3.8383,3.8882,3.9329,0.0,0.0,0.0,0.0,0.0,0.0,0.0,0.0,0.0,0.0,0.0,0.0,0.0,0.88,0.9086,0.9563,1.0775,1.1924,1.2948,1.567,1.7724,1.887,2.1356,2.3601,2.5497,2.6704,2.8083,2.9656,3.079,3.2023,3.3352,3.5023,3.6344,3.7436,3.914,4.0454,4.1385,4.2242,4.3182,4.3986,4.3167,4.2369,4.1427,3.8923,3.6356,3.3994,3.3238,3.1664,2.9586,2.752,2.6467,2.593,2.5226,2.5144,2.5121,2.4137,2.4162,2.4636,2.55,2.6453,2.7485,2.856,2.9586,3.0717,3.2139,3.2239,3.2259,3.2855,3.2738,3.266,3.2909,3.287,3.308,3.3913,3.4432,3.4763,3.4657,3.5438,3.5599,3.4821,3.5036,3.5124,3.4705,3.4475,3.4193,3.3804,3.4318,3.4895,3.5318,3.5924,3.678,3.781,3.8368,3.9233,4.0447,4.0977,4.1227,4.1209,4.1561,4.1385,4.0717,4.0388,3.9957,3.9444,3.9103,3.8526,3.7828,3.7535,3.7358,3.7417,3.7519,3.7985,3.8623,3.9044,3.9292,3.9537,0.0,0.0,0.0,0.0,0.0,0.0,0.0,0.0,0.0,0.0,0.0,0.0,0.0,0.0,0.0,0.0,1.0825,1.2062,1.401,1.5564,1.7761,2.0705,2.1986,2.3562,2.561,2.6719,2.7861,2.9043,2.9999,3.132,3.293,3.3981,3.5027,3.6086,3.8309,3.9534,4.0067,4.1474,4.2043,4.1961,4.1738,4.0508,3.8568,3.6603,3.4031,3.126,0.0,2.7929,2.7143,2.5539,2.4511,2.3807,2.3356,2.3369,2.3658,2.4118,2.4953,2.6001,2.7086,2.872,3.0416,3.1504,3.241,3.3364,3.4649,3.4664,3.4489,3.4939,3.4547,3.4197,3.4108,3.4039,3.4108,3.439,3.4929,3.5344,3.5494,3.5522,3.5411,3.5111,3.5006,3.4761,3.4327,3.452,3.4676,3.4866,3.507,3.5607,3.6652,3.7106,3.7857,3.8855,3.9606,4.0378,4.1241,4.1868,4.222,4.234,4.2217,4.1789,4.1066,4.0934,4.0861,4.0795,4.0574,4.0254,3.9877,3.9192,3.8898,3.875,3.8423,3.8511,3.8914,3.9398,3.9625,3.9798,0.0,0.0,0.0,0.0,0.0,0.0,0.0,0.0,0.0,0.0,0.0,0.0,0.0,0.0,0.0,0.0,0.0,1.2369,1.446,1.5827,1.7914,2.0994,2.2112,2.348,2.528,2.6219,2.7184,2.8135,2.8911,2.9885,3.1046,3.2353,3.3349,3.4129,3.6599,3.7976,3.8539,3.9989,4.0403,4.0079,3.9867,3.8279,3.5815,3.4053,3.1514,0.0,2.6206,2.5042,2.4474,2.3429,2.2571,2.1961,2.1772,2.2284,2.3387,2.5325,2.6515,2.7616,2.9514,3.1264,3.2811,3.4066,3.5018,3.5712,3.6408,3.6429,3.6212,3.598,3.5309,3.4754,3.435,3.398,3.3965,3.4423,3.4909,3.5395,3.5711,3.5674,3.5477,3.5121,3.4864,3.4704,3.4582,3.4825,3.5187,3.5446,3.5773,3.6395,3.7567,3.8052,3.8782,3.9651,4.0478,4.1225,4.1851,4.2412,4.2805,4.3084,4.2851,4.2534,4.2162,4.2244,4.2152,4.2049,4.1903,4.164,4.1205,4.0647,4.0205,3.9773,3.9434,3.9308,3.9292,3.9625,3.9833,3.9986,0.0,0.0,0.0,0.0,0.0,0.0,0.0,0.0,0.0,0.0,0.0,0.0,0.0,0.0,0.0,0.0,0.0,0.0,1.4268,1.6343,1.8222,1.9793,2.1752,2.3334,2.447,2.5267,2.6092,2.6912,2.7529,2.7838,2.7931,3.0203,3.1347,3.1635,3.4111,3.5764,3.6723,3.7727,3.8244,3.83,3.743,3.5609,3.3222,3.1299,2.8792,2.6096,2.4622,2.3099,2.1698,2.1289,2.0861,2.047,2.0708,2.2081,2.4298,2.7476,2.8606,2.9451,3.2526,3.3895,3.4732,3.6329,3.7311,3.7824,3.7622,3.7636,3.7337,3.5942,3.5081,3.4288,3.3615,3.2888,3.2774,3.4008,3.4418,3.4844,3.5561,3.599,3.5836,3.4926,3.4905,3.514,3.5427,3.5707,3.5816,3.5856,3.6531,3.7298,3.8173,3.8797,3.9451,4.0216,4.0972,4.172,4.2445,4.2775,4.3084,4.3372,4.3552,4.3704,4.3898,4.4056,4.3712,4.3099,4.3099,4.2585,4.1838,4.1805,4.1278,4.0536,4.06,4.0241,3.978,3.9849,3.9986,4.007,0.0,0.0,0.0,0.0,0.0,0.0,0.0,0.0,0.0,0.0,0.0,0.0,0.0,0.0,0.0,0.0,0.0,0.0,1.3925,1.5615,1.7434,1.9371,2.0763,2.1952,2.2935,2.3695,2.4166,2.4345,2.5,2.5653,2.6302,2.7444,2.8413,2.9283,3.1766,3.3069,3.346,3.4408,3.4469,3.3866,3.2977,3.1393,2.9401,2.8084,2.6465,2.4646,2.3232,2.2089,2.1212,2.0943,2.0941,2.1307,2.2615,2.417,2.5982,2.8237,3.0119,3.1913,3.3677,3.5494,3.7045,3.7913,3.8412,3.8602,3.8532,3.7766,3.667,3.5349,3.4162,3.3006,3.1777,3.1837,3.2347,3.2974,3.4006,3.5081,3.6112,3.6343,3.6462,3.6556,3.66,3.6591,3.6531,3.6852,3.7258,3.7656,3.7678,3.7988,3.8841,3.9322,3.9895,4.0646,4.144,4.2174,4.2775,4.3146,4.3328,4.3372,4.3671,4.3848,4.4056,4.4344,4.4356,4.417,4.417,4.3996,4.3591,4.3021,4.2646,4.2267,4.1255,4.0807,4.0641,4.0189,4.0087,4.007,0.0,0.0,0.0,0.0,0.0,0.0,0.0,0.0,0.0,0.0,0.0,0.0,0.0,0.0,0.0,0.0,0.0,0.0,0.0,1.5038,1.655,1.8595,1.9406,2.042,2.1714,2.2121,2.2476,2.2787,2.3093,2.3524,2.404,2.4783,2.5653,2.6674,2.8817,3.0016,3.0508,3.1372,3.126,0.0,0.0,2.8443,2.6622,2.5808,2.4575,2.3188,2.213,2.1405,2.1092,2.1759,2.2189,2.279,2.4674,2.6264,2.8001,3.0613,3.2318,3.3784,3.5814,3.7285,3.8501,3.9291,3.9504,3.9323,3.8789,3.765,3.6199,3.4488,3.29,3.1625,3.0823,3.0913,3.1526,3.2654,3.3608,3.4811,3.637,3.6543,3.6649,3.7154,3.7228,3.7263,3.739,3.7784,3.8331,3.8978,3.8642,3.8706,3.9451,3.9824,4.0385,4.0987,4.1785,4.2508,4.3146,4.3328,4.3372,4.3372,4.3654,4.3906,4.4097,4.4457,4.4587,4.4587,4.4587,4.4514,4.4406,4.3985,4.3558,4.3081,4.1974,4.137,4.0998,4.0341,4.007,4.007,0.0,0.0,0.0,0.0,0.0,0.0,0.0,0.0,0.0,0.0,0.0,0.0,0.0,0.0,0.0,0.0,0.0,0.0,0.0,0.0,0.0,1.7578,1.8047,1.9008,2.063,2.0615,2.0938,2.1637,2.1516,2.1539,2.1736,2.2368,2.3159,2.4116,2.5801,2.6972,2.7718,2.8536,2.8422,2.7676,2.7364,2.6188,2.4559,0.0,0.0,2.1927,2.1319,2.1017,2.1173,2.2954,2.3835,2.4582,2.6748,2.8439,3.0317,3.3553,3.4801,3.5714,3.8243,3.9221,3.9742,4.0562,4.0442,3.9833,3.8634,3.7181,3.5458,3.3282,3.146,3.0219,3.0114,2.9935,3.0495,3.2463,3.3288,3.4286,3.6305,3.6625,3.6783,3.7287,3.7436,3.7804,3.843,3.8767,3.9343,4.0097,3.9673,3.9566,4.0036,4.0401,4.0851,4.1507,4.2174,4.2821,4.3432,4.3432,4.3432,4.3432,4.373,4.3964,4.4155,4.4457,4.4587,4.4587,4.4587,4.4587,4.4587,4.4587,4.4181,4.3504,4.2743,4.2066,4.1407,4.0646,4.0375,4.0375,0.0,0.0,0.0,0.0,0.0,0.0,0.0,0.0,0.0,0.0,1.1108,1.1362,0.0,0.0,0.0,0.0,0.0,0.0,0.0,0.0,0.0,0.0,1.7426,1.841,1.9402,1.9463,1.9567,1.9773,1.9682,2.003,2.0751,2.0868,2.1397,2.2327,2.4007,2.4801,2.4949,2.5762,2.5923,2.5536,2.4628,2.382,2.3098,0.0,0.0,0.0,2.0697,2.088,2.1655,2.2975,2.4471,2.6217,2.8773,3.104,3.3095,3.4801,3.6763,3.8681,3.9772,4.1225,4.2389,4.2044,4.1004,3.979,3.8366,3.5814,3.3143,3.1326,2.9812,2.8677,2.8372,2.8748,2.9645,3.1405,3.2516,3.3833,3.5612,3.6633,3.7494,3.8153,3.8862,3.9591,4.0398,4.0454,4.0823,4.1643,4.1393,4.093,4.0455,4.0799,4.144,4.2522,4.3113,4.3492,4.3713,4.3713,4.3713,4.3713,4.3964,4.4138,4.4253,4.4514,4.4587,4.4587,4.4587,4.4587,4.4587,4.4587,4.4502,4.4299,4.3521,4.3149,4.2946,4.2185,4.1914,4.1914,0.0,0.0,0.0,0.0,0.0,0.0,0.0,1.0097,1.0543,1.1034,1.1302,1.1497,1.1586,1.1593,0.0,0.0,0.0,0.0,0.0,0.0,0.0,0.0,0.0,0.0,1.8195,1.8697,1.8983,1.9084,0.0,1.9268,1.9679,1.9664,2.0098,2.0951,2.1771,2.2318,2.2738,2.348,2.3681,2.3446,2.3117,2.2703,0.0,0.0,0.0,0.0,0.0,2.0503,2.1371,2.2971,2.4789,2.6837,2.9426,3.1708,3.386,3.5733,3.7791,3.9708,4.1069,4.2441,4.3474,4.2764,4.1558,4.0114,3.8041,3.5202,3.2524,3.0815,2.8876,2.7496,2.7537,2.7947,2.8779,3.0191,3.1634,3.315,3.5044,3.622,3.73,3.8272,3.9204,3.9945,4.0659,4.09,4.133,4.2062,4.2091,4.1835,4.1122,4.1573,4.2269,4.3113,4.3476,4.3789,4.3964,4.3964,4.3964,4.3964,4.4138,4.4253,4.431,4.4514,4.4587,4.4587,4.4587,4.4587,4.4587,4.4587,4.4587,4.4502,4.3724,4.342,4.3318,4.2574,4.2286,4.2286,0.0,0.0,0.0,0.0,0.0,0.0,0.0,1.0272,1.077,1.1296,1.1557,1.1674,1.1645,1.1608,1.1637,0.0,0.0,0.0,0.0,0.0,0.0,0.0,0.0,0.0,0.0,0.0,0.0,1.8769,1.8788,0.0,0.0,0.0,0.0,0.0,1.9954,2.0366,2.0956,2.1658,2.1887,0.0,0.0,2.1939,0.0,0.0,0.0,0.0,0.0,2.0175,2.0976,2.2637,2.4418,2.6363,2.8636,3.1225,3.3879,3.6115,3.8142,4.0103,4.209,4.3496,4.4152,4.3388,4.2118,4.0343,3.7635,3.4685,3.2007,3.0319,2.8165,2.6636,2.7054,2.7273,2.7872,2.9228,3.0538,3.2099,3.3985,3.5307,3.6537,3.7878,3.8973,3.9929,4.0801,4.1252,4.1833,4.2527,4.2682,4.2522,4.1964,4.2459,4.3035,4.3552,4.3772,4.4006,4.4229,4.4229,4.4229,4.4229,4.431,4.4367,4.4367,4.4514,4.4587,4.4587,4.4587,4.4587,4.4587,4.4587,4.4587,4.4519,4.391,4.3673,4.3589,4.2997,4.2777,4.2777,0.0,0.0,0.0,0.0,0.0,0.0,0.0,1.0492,1.1024,1.1512,1.1805,1.1927,1.1805,1.1667,1.1578,0.0,0.0,0.0,0.0,0.0,0.0,0.0,0.0,0.0,0.0,0.0,0.0,1.8351,1.8426,0.0,0.0,0.0,0.0,0.0,0.0,1.9767,1.971,2.0521,0.0,0.0,0.0,0.0,0.0,0.0,0.0,0.0,0.0,2.0175,2.0842,2.1605,2.2772,2.4133,2.5708,2.944,3.3609,3.5481,3.7894,4.0494,4.2848,4.443,4.5222,4.4587,4.2584,3.999,3.7117,3.3711,3.0683,2.9015,2.7367,2.6352,2.6753,2.6695,2.7115,2.8716,2.9299,3.0188,3.1981,3.3638,3.5209,3.6697,3.8348,4.0093,4.1956,4.2169,4.2734,4.3891,4.3673,4.3339,4.2974,4.3174,4.3552,4.4039,4.4196,4.4367,4.457,4.457,4.457,4.457,4.457,4.457,4.457,4.457,4.4587,4.4587,4.4587,4.4587,4.4587,4.4587,4.4587,4.457,4.4502,4.4468,4.4468,4.4401,4.4367,4.4367,0.0,0.0,0.0,0.0,0.0,0.0,1.0247,1.079,1.132,1.1839,1.2045,1.2138,1.1991,1.1783,1.163,1.1571,0.0,0.0,0.0,0.0,0.0,0.0,0.0,0.0,0.0,0.0,1.7059,1.7954,1.8459,0.0,0.0,0.0,0.0,0.0,0.0,1.8714,1.8642,1.9276,0.0,0.0,0.0,0.0,0.0,0.0,0.0,0.0,0.0,0.0,2.0198,2.0872,2.171,2.2649,2.3819,2.6444,2.9913,3.3772,3.7186,4.0227,4.2811,4.4686,4.5568,4.4231,4.2438,4.0172,3.6793,3.3525,3.0751,2.9022,2.7401,2.627,2.6274,2.6267,2.657,2.7476,2.8429,2.9574,3.1131,3.3261,3.5055,3.6182,3.8233,4.0044,4.1304,4.2109,4.3027,4.4042,4.4014,4.3906,4.3831,4.3848,4.3906,4.4196,4.4384,4.4514,4.4587,4.4587,4.4587,4.4587,4.4587,4.4587,4.4587,4.4587,4.4587,4.4587,4.4587,4.4587,4.4587,4.4587,4.4587,4.4587,4.4587,4.4587,4.4587,4.4587,4.4587,4.4587,0.0,0.0,0.0,0.0,0.0,0.9919,1.0578,1.1084,1.1593,1.2092,1.2266,1.2282,1.2117,1.1891,1.1718,1.1601,1.1541,0.0,0.0,0.0,0.0,0.0,0.0,0.0,0.0,0.0,1.663,1.773,1.8408,1.8687,0.0,0.0,1.8859,1.8391,0.0,0.0,0.0,0.0,0.0,0.0,0.0,0.0,0.0,0.0,0.0,0.0,0.0,0.0,0.0,0.0,0.0,2.1255,2.22,2.3794,2.6318,3.1446,3.5395,3.875,4.1617,4.358,4.4438,4.3166,4.1562,3.9455,3.5936,3.3012,3.0523,2.8831,2.7286,2.6206,2.597,2.6034,2.6297,2.6722,2.7857,2.9128,3.0479,3.2626,3.4575,3.5689,3.8083,4.0051,4.1022,4.2411,4.3519,4.4212,4.4286,4.427,4.4367,4.427,4.427,4.4384,4.4514,4.4587,4.4587,4.4587,4.4587,4.4587,4.4587,4.4587,4.4587,4.4587,4.4587,4.4587,4.4587,4.4587,4.4587,4.4587,4.4587,4.4587,4.4587,4.4587,4.4587,4.4587,4.4587,4.4587,0.0,0.0,0.0,0.0,0.0,0.0,1.0831,1.1341,1.1833,1.2246,1.2363,1.2323,1.2128,1.1976,1.1826,1.1615,1.1429,0.0,0.0,0.0,0.0,0.0,0.0,0.0,0.0,0.0,1.6186,1.7807,1.8212,1.8831,1.9664,1.9135,1.8903,1.887,0.0,0.0,0.0,0.0,0.0,0.0,0.0,0.0,0.0,0.0,0.0,0.0,0.0,0.0,0.0,0.0,0.0,0.0,0.0,2.1725,2.3544,2.8485,3.2269,3.561,3.9026,4.0679,4.1461,4.141,3.9793,3.7416,3.4346,3.1777,2.9651,2.8039,2.6916,2.6132,2.5934,2.6128,2.6395,2.6722,2.7566,2.856,2.9826,3.1641,3.3514,3.5291,3.7717,3.9928,4.1634,4.3323,4.4367,4.457,4.457,4.4587,4.4587,4.4587,4.4587,4.4587,4.4587,4.4587,4.4587,4.4587,4.4587,4.4587,4.4587,4.4587,4.4587,4.4587,4.4587,4.4587,4.4587,4.4587,4.4587,4.4587,4.4587,4.4587,4.4587,4.4587,4.4587,4.4587,4.4587,4.4587,0.0,0.0,0.0,0.0,0.0,0.0,0.0,1.137,1.1703,1.2117,1.2179,1.2138,1.1976,1.1833,1.1718,1.1623,1.1466,0.0,0.0,0.0,0.0,0.0,0.0,0.0,0.0,0.0,1.5628,1.7392,1.8238,1.8945,1.9493,1.9369,1.9092,1.8659,1.7764,1.7296,0.0,0.0,0.0,0.0,0.0,0.0,1.9797,0.0,0.0,0.0,0.0,0.0,0.0,0.0,0.0,0.0,0.0,0.0,0.0,2.4644,2.8739,3.3011,3.5773,3.7732,3.8851,3.8421,3.7177,3.5514,3.3349,3.1036,2.8972,2.7684,2.6594,2.5791,2.5621,2.5719,2.6005,2.6492,2.7666,2.8873,2.9871,3.2175,3.4158,3.5159,3.844,4.135,4.319,4.393,4.4367,4.457,4.4587,4.4587,4.4587,4.4587,4.4587,4.4587,4.4587,4.4587,4.4587,4.4587,4.4587,4.4587,4.4587,4.4587,4.4587,4.4587,4.4587,4.4587,4.4587,4.4587,4.4587,4.4587,4.4587,4.4587,4.4587,4.4587,4.4587,4.4587,4.4587,4.4587,0.0,0.0,0.0,0.0,0.0,0.0,0.0,1.1293,1.1549,1.1891,1.197,1.197,1.1869,1.1783,1.1681,1.1645,1.1511,0.0,0.0,0.0,0.0,0.0,0.0,0.0,0.0,1.3825,1.5227,1.7273,1.8219,1.9169,2.0069,1.9673,1.9273,1.8856,1.7674,1.7068,0.0,0.0,0.0,0.0,0.0,0.0,1.9762,0.0,0.0,0.0,0.0,0.0,0.0,0.0,0.0,0.0,0.0,0.0,0.0,0.0,2.5157,2.876,3.2012,3.4225,3.5436,3.4854,3.3955,3.273,3.0768,2.9073,2.7626,2.6495,2.5868,2.54,2.5208,2.556,2.5973,2.6301,2.7932,2.9313,2.9947,3.2512,3.5035,3.7058,3.9969,4.2401,4.4021,4.4327,4.444,4.457,4.4587,4.4587,4.4587,4.4587,4.4587,4.4587,4.4587,4.4587,4.4587,4.4587,4.4587,4.4587,4.4587,4.4587,4.4587,4.4587,4.4587,4.4587,4.4587,4.4587,0.0,4.4587,4.4587,4.4587,4.4587,4.4587,4.4587,4.4587,4.4587,4.4587,0.0,0.0,0.0,0.0,0.0,0.0,0.0,1.1132,1.1362,1.1615,1.1725,1.1783,1.1783,1.174,1.1681,1.1681,0.0,0.0,0.0,0.0,0.0,0.0,0.0,0.0,0.0,1.3228,1.4925,1.732,1.8084,1.9387,2.1102,1.9951,1.9411,1.9345,1.7792,1.6924,0.0,0.0,0.0,0.0,0.0,0.0,0.0,0.0,0.0,0.0,0.0,0.0,0.0,0.0,0.0,0.0,0.0,0.0,0.0,0.0,0.0,0.0,0.0,3.0128,3.1357,3.0886,3.0311,2.9302,2.7097,2.63,0.0,2.474,2.4778,2.4926,2.4775,2.5582,2.6228,2.6077,2.8132,2.9863,3.0008,3.2665,3.6111,4.0359,4.1947,4.3136,4.4226,4.4497,4.4587,4.4587,4.4587,4.4587,4.4587,4.4587,4.4587,4.4587,4.4519,4.4485,4.4485,4.4485,4.4468,4.4418,4.4418,4.4434,4.4485,4.4485,4.4536,4.4587,4.4587,4.4587,4.4587,4.4587,4.4587,4.4587,4.4587,4.4587,4.4587,4.4587,4.4587,4.4587,0.0,0.0,0.0,0.0,0.0,0.0,0.0,0.0,0.0,0.0,1.1384,1.1466,1.1645,1.1593,1.1564,0.0,0.0,0.0,0.0,0.0,0.0,0.0,0.0,0.0,1.1831,1.275,1.4208,1.634,1.7481,1.8858,2.0424,1.9666,1.9355,1.9345,1.7714,1.6759,0.0,0.0,0.0,0.0,0.0,0.0,0.0,0.0,0.0,0.0,1.9339,1.9376,0.0,0.0,0.0,0.0,0.0,0.0,0.0,0.0,2.0962,2.1942,2.3287,0.0,2.7283,2.7451,2.706,2.6438,0.0,2.4929,2.4257,2.409,2.3973,2.3942,2.4236,2.5148,2.5894,2.5894,2.7996,2.9741,2.9978,3.317,3.6878,4.0672,4.171,4.2769,4.4378,4.457,4.4587,4.4587,4.4587,4.4587,4.4587,4.4587,4.4587,4.4587,4.3995,4.369,4.369,4.369,4.3403,4.2828,4.2828,4.3132,4.369,4.369,4.4012,4.4587,4.4587,4.4587,4.4587,4.4587,4.4587,4.4587,4.4587,4.4587,4.4587,4.4587,4.4587,4.4587,0.0,0.0,0.0,0.0,0.0,0.0,0.0,0.0,0.0,0.0,0.0,0.0,0.0,0.0,0.0,0.0,0.0,0.0,0.0,0.0,0.0,0.0,0.0,1.0719,1.1412,1.2078,1.3476,1.5689,1.7104,1.8625,2.0164,1.9996,1.975,1.9454,1.7593,1.6748,0.0,0.0,0.0,0.0,1.8397,0.0,0.0,0.0,0.0,0.0,1.9101,1.9176,0.0,1.9465,1.9596,1.9726,0.0,0.0,0.0,0.0,2.034,2.0905,2.1604,2.3202,2.4658,2.4728,2.4497,2.4129,2.3636,2.3211,2.2967,2.318,2.3243,2.3504,2.4298,2.5108,2.5903,2.6519,2.8299,3.0202,3.202,3.5173,3.827,4.0991,4.2289,4.3323,4.4502,4.4587,4.4587,4.4587,4.4587,4.4587,4.4587,4.4231,4.4045,4.4045,4.3301,4.3064,4.342,4.3064,4.2692,4.2286,4.2286,4.2506,4.2912,4.3267,4.3656,4.4062,4.4418,4.4587,4.4587,4.4587,4.4587,4.4587,4.4587,4.4587,4.4587,4.4587,4.4587,4.4587,0.0,0.0,0.0,0.0,0.0,0.0,0.0,0.0,0.0,0.0,0.0,0.0,0.0,0.0,0.0,0.0,0.0,0.0,0.0,0.0,0.0,0.0,0.0,1.0187,1.1075,1.1454,1.2808,1.5153,1.6837,1.8439,1.9954,2.0295,2.0036,1.9247,1.7369,1.6756,0.0,0.0,0.0,0.0,1.8529,0.0,0.0,0.0,0.0,0.0,0.0,0.0,0.0,1.9376,1.9508,1.969,1.969,0.0,0.0,0.0,0.0,0.0,2.1283,2.2343,2.3139,2.3014,2.2864,2.2585,2.1758,2.1745,2.2023,2.2313,2.2683,2.3364,2.4536,2.5302,2.6153,2.743,2.8982,3.1192,3.4706,3.7335,3.9525,4.1269,4.2922,4.4095,4.457,4.4587,4.4587,4.4587,4.4468,4.4401,4.4401,4.3673,4.325,4.325,4.2523,4.2439,4.3081,4.2439,4.2066,4.1948,4.1948,4.2016,4.2151,4.2794,4.3149,4.3284,4.3944,4.4231,4.4231,4.4231,4.4231,4.4248,4.435,4.4401,4.4418,4.4536,4.4587,4.4587,0.0,0.0,0.0,0.0,0.0,0.0,0.0,0.0,0.0,0.0,0.0,0.0,0.0,0.0,0.0,0.0,0.0,0.0,0.0,0.0,0.0,0.9982,0.9791,1.0144,1.1075,1.132,1.2414,1.4456,1.6524,1.8084,1.9187,1.9569,1.8986,1.7568,1.6946,1.6796,1.7075,0.0,0.0,0.0,1.8834,0.0,0.0,0.0,0.0,0.0,0.0,0.0,0.0,1.9376,1.9508,1.969,1.969,0.0,0.0,0.0,0.0,0.0,2.0821,2.1761,2.2785,2.3556,2.3243,2.2685,2.2313,2.1931,2.1764,2.2087,2.251,2.3224,2.4432,2.563,2.6692,2.744,3.0,3.2859,3.5645,3.7355,3.9121,4.122,4.2472,4.3524,4.4519,4.4587,4.4587,4.4587,4.3961,4.3589,4.3589,4.2878,4.2472,4.2472,4.1745,4.1424,4.1542,4.1441,4.1052,4.0426,4.0426,4.0747,4.1373,4.1491,4.188,4.2472,4.2591,4.2642,4.2642,4.2642,4.2642,4.2709,4.3352,4.3589,4.3673,4.4333,4.4587,4.4587,0.0,0.0,0.0,0.0,0.0,0.0,0.0,0.0,0.0,0.0,0.0,0.0,0.0,0.0,0.0,0.0,0.0,0.0,0.0,0.0,0.0,1.0495,1.0359,1.0562,1.1075,1.1603,1.264,1.4256,1.6033,1.741,1.8375,1.8831,1.8616,1.7805,1.7017,1.6811,1.7075,1.7541,0.0,0.0,0.0,0.0,0.0,0.0,0.0,0.0,0.0,0.0,0.0,0.0,1.9596,1.969,1.969,0.0,0.0,0.0,0.0,0.0,2.1304,2.2021,2.2883,2.4098,2.3835,2.3178,2.2708,2.2587,2.2678,2.295,2.3435,2.4267,2.5914,2.6707,2.778,2.9682,3.2338,3.4659,3.6248,3.8267,4.0083,4.1471,4.2835,4.394,4.4536,4.4587,4.4401,4.3978,4.3623,4.325,4.2828,4.2117,4.1711,4.1711,4.0984,4.0595,4.0595,4.0595,4.0426,4.007,4.007,4.0257,4.0612,4.1018,4.139,4.1728,4.2117,4.2286,4.2286,4.2286,4.2286,4.232,4.2675,4.3064,4.3521,4.4282,4.4587,4.4587,0.0,0.0,0.0,0.0,0.0,0.0,0.0,0.0,0.0,0.0,0.0,0.0,0.0,0.0,0.0,0.0,0.0,0.0,0.0,0.0,1.0792,1.1054,1.1168,1.1278,1.138,1.2102,1.307,1.4301,1.5756,1.6953,1.785,1.8271,1.8308,1.7983,1.7019,1.6756,1.703,1.7344,1.777,0.0,0.0,0.0,0.0,0.0,0.0,0.0,0.0,0.0,0.0,0.0,0.0,0.0,0.0,0.0,0.0,1.9919,2.0185,2.0621,2.1579,2.2216,2.29,2.4158,2.406,2.358,2.3317,2.3546,2.3897,2.4202,2.4807,2.5824,2.75,2.824,2.9463,3.2083,3.4364,3.6072,3.6883,3.9072,4.082,4.1361,4.2831,4.3844,4.4045,4.4045,4.3792,4.32,4.2997,4.2642,4.2066,4.1339,4.0933,4.0933,4.0375,4.007,4.007,4.007,4.007,4.007,4.007,4.007,4.0104,4.0679,4.0933,4.0967,4.1525,4.1779,4.1779,4.1779,4.1779,4.1796,4.1965,4.2489,4.325,4.4028,4.4316,4.4333,0.0,0.0,0.0,0.0,0.0,0.0,0.0,0.0,0.0,0.0,0.0,0.0,0.0,0.0,0.0,0.0,0.0,0.0,0.0,0.0,1.1415,1.1214,1.1998,1.2418,1.2303,1.2735,1.3463,1.4564,1.5988,1.7131,1.799,1.8033,1.7652,1.6895,1.6623,1.6629,1.6834,1.6787,1.7338,1.8201,0.0,0.0,0.0,0.0,0.0,0.0,0.0,0.0,0.0,0.0,0.0,0.0,0.0,0.0,1.9726,1.9919,2.0185,2.0478,2.0892,2.1681,2.2573,2.3245,2.3409,2.3629,2.4484,2.4828,2.5133,2.5576,2.6579,2.7604,2.8382,3.0177,3.2034,3.3752,3.5233,3.6553,3.7652,3.9186,4.0271,4.065,4.1607,4.2311,4.2455,4.2455,4.2422,4.2371,4.1745,4.1339,4.1288,4.0561,4.0155,4.0155,4.0104,4.007,4.007,4.007,4.007,4.007,4.007,4.007,4.007,4.0121,4.0155,4.0155,4.0223,4.024,4.024,4.024,4.024,4.0307,4.1001,4.1728,4.2472,4.3217,4.3504,4.3606,0.0,0.0,0.0,0.0,0.0,0.0,0.0,0.0,0.0,0.0,0.0,0.0,0.0,0.0,0.0,0.0,0.0,0.0,0.0,1.1285,1.1508,1.1753,1.2377,1.2761,1.2842,1.3028,1.3473,1.4146,1.5152,1.6062,1.6878,1.6839,1.6628,1.6297,1.6231,1.6174,1.6143,1.6517,1.6853,1.7173,1.7452,0.0,0.0,0.0,0.0,0.0,0.0,0.0,0.0,0.0,1.9812,1.9762,1.9762,1.9726,1.9726,1.9919,2.0166,2.0392,2.0695,2.11,2.1695,2.2683,2.3196,2.3856,2.5377,2.6381,2.7202,2.8011,2.8539,2.9026,2.9669,3.169,3.3539,3.4294,3.599,3.7467,3.81,3.9483,4.0496,4.0675,4.158,4.2233,4.2286,4.2286,4.21,4.1644,4.1373,4.1001,4.0527,4.024,4.007,4.007,4.007,4.007,4.007,4.007,4.007,4.007,4.007,4.007,4.007,4.007,4.007,4.007,4.007,4.0037,4.0003,4.0003,3.9935,3.9951,4.0744,4.1321,4.1711,4.2439,4.3014,4.3453,0.0,0.0,0.0,0.0,0.0,0.0,0.0,0.0,0.0,0.0,0.0,0.0,0.0,0.0,0.0,0.0,0.0,0.0,1.1643,1.1723,1.1963,1.2328,1.2797,1.3115,1.3369,1.3132,1.324,1.3686,1.4431,1.5086,1.5591,1.5777,1.5811,1.5781,1.5839,1.5782,1.5668,1.6204,1.6441,1.6537,1.6913,1.7159,0.0,0.0,0.0,0.0,0.0,0.0,0.0,0.0,1.9955,1.9848,1.9797,1.9762,1.9726,1.9919,2.0096,2.0304,2.0577,2.0852,2.1292,2.2342,2.3313,2.4498,2.6367,2.7738,2.8888,2.9978,3.0537,3.0881,3.1091,3.2942,3.4453,3.4401,3.6342,3.7902,3.8205,3.9413,4.0288,4.0394,4.1079,4.1593,4.1593,4.1593,4.139,4.0882,4.0849,4.0629,4.0104,4.007,4.007,4.007,4.007,4.007,4.007,4.007,4.007,4.007,4.007,4.007,4.007,4.007,4.007,4.007,4.007,4.0037,3.9901,3.9901,3.9849,3.9831,4.0439,4.0745,4.0933,4.1677,4.2269,4.2794,0.0,0.0,0.0,0.0,0.0,0.0,0.0,0.0,0.0,0.0,0.0,0.0,0.0,0.0,0.0,0.0,0.0,0.0,1.2803,1.2797,1.2836,1.2907,1.3264,1.3648,1.3986,1.3077,1.2775,1.3199,1.4007,1.4353,1.431,1.4979,1.5285,1.5285,1.5507,1.5551,1.5507,1.5712,1.607,1.6493,1.6493,1.6846,1.7464,0.0,0.0,0.0,0.0,0.0,0.0,0.0,2.0045,1.997,1.9848,1.9762,1.9726,1.9919,2.0061,2.015,2.0426,2.0938,2.1564,2.226,2.3759,2.5575,2.7387,2.8763,3.0033,3.127,3.2587,3.3305,3.2647,3.391,3.482,3.4315,3.6182,3.7743,3.7886,3.8805,3.9501,3.9501,3.9833,4.007,4.007,4.007,4.007,4.007,4.007,4.007,4.007,4.007,4.007,4.007,4.007,4.007,4.007,4.007,4.007,4.007,4.007,4.007,4.007,4.007,4.007,4.007,4.007,4.0037,3.9901,3.9901,3.9901,3.9901,3.9901,3.9986,4.0172,4.0916,4.1204,4.1407,0.0,0.0,0.0,0.0,0.0,0.0,0.0,0.0,0.0,0.0,0.0,0.0,0.0,0.0,0.0,0.0,0.0,0.0,1.265,1.259,1.2602,1.2628,1.2918,1.3019,1.2878,1.2415,1.2509,1.3145,1.326,1.3757,1.456,1.4682,1.4797,1.4949,1.5224,1.5403,1.5507,1.5712,1.5889,1.601,1.6069,1.6189,1.6473,0.0,0.0,0.0,0.0,0.0,0.0,0.0,0.0,0.0,1.999,1.9848,1.9726,1.9848,1.9869,1.994,2.0096,2.062,2.1377,2.2428,2.4152,2.6089,2.7946,2.9417,3.0859,3.2542,3.3589,3.3978,3.332,3.4258,3.508,3.4942,3.6538,3.7902,3.8001,3.886,3.9537,3.9642,3.9918,4.007,4.007,4.007,4.007,4.007,4.007,4.007,4.007,4.007,4.007,4.007,4.007,4.007,4.007,4.007,4.007,4.007,4.007,4.007,4.007,4.007,4.007,4.007,4.007,3.9986,3.9729,3.9537,3.9537,3.9642,3.9729,3.9833,4.002,4.0341,4.0747,4.1271,0.0,0.0,0.0,0.0,0.0,0.0,0.0,0.0,0.0,0.0,0.0,0.0,0.0,0.0,0.0,0.0,0.0,0.0,0.0,1.2698,1.2572,1.2518,1.2586,1.2454,1.214,1.2027,1.223,1.2748,1.2864,1.3304,1.4042,1.426,1.4497,1.4686,1.5011,1.5254,1.5507,1.5712,1.5827,1.587,1.5942,1.5998,1.6179,0.0,0.0,0.0,0.0,0.0,0.0,0.0,0.0,0.0,2.0076,1.9848,1.9726,1.9762,1.9797,1.9848,1.9955,2.0637,2.1568,2.2546,2.4476,2.6774,2.919,3.0833,3.224,3.3589,3.4427,3.4681,3.4008,3.4725,3.5322,3.5125,3.6544,3.7711,3.7902,3.8788,3.9415,3.959,3.9884,4.007,4.007,4.007,4.007,4.007,3.9817,3.9648,3.9648,3.9377,3.9343,3.9631,3.9648,3.9783,4.007,4.007,4.007,4.007,3.9783,3.9648,3.9648,3.9952,4.007,4.007,3.9986,3.9833,3.959,3.9309,3.9218,3.9325,3.9468,3.9642,3.9849,3.9986,4.0324,4.0798,0.0,0.0,0.0,0.0,0.0,0.0,0.0,0.0,0.0,0.0,0.0,0.0,0.0,0.0,0.0,0.0,0.0,0.0,0.0,0.0,1.265,1.2437,1.221,1.1942,1.1625,1.1826,1.2004,1.216,1.2628,1.2925,1.308,1.3819,1.4305,1.4501,1.4845,1.5195,1.5507,1.5712,1.587,1.5996,1.6067,1.6151,1.636,1.7866,0.0,0.0,0.0,0.0,0.0,0.0,0.0,0.0,2.0041,1.9848,1.9726,1.9762,1.9797,1.9797,1.9919,2.085,2.1949,2.2712,2.4897,2.7664,3.0746,3.2467,3.3589,3.4247,3.4936,3.5205,3.4517,3.5097,3.545,3.4987,3.6119,3.7184,3.751,3.8427,3.9076,3.9285,3.9682,3.9918,3.9969,3.9918,3.9918,3.9969,3.9309,3.8903,3.8903,3.8261,3.821,3.887,3.8903,3.9208,3.9868,3.9884,3.9884,3.9868,3.9208,3.8903,3.892,3.958,3.9884,3.9884,3.9698,3.9525,3.9332,3.9061,3.8969,3.8969,3.9148,3.9415,3.9661,3.9849,3.9986,4.0172,0.0,0.0,0.0,0.0,0.0,0.0,0.0,0.0,0.0,0.0,0.0,0.0,0.0,0.0,0.0,0.0,0.0,0.0,0.0,0.0,1.2102,1.1799,1.1457,1.1191,1.1057,1.1341,1.1559,1.1739,1.2204,1.2787,1.348,1.3848,1.4227,1.4501,1.4845,1.5195,1.5507,1.5712,1.587,1.5996,1.6123,1.6234,1.6554,1.8174,1.8887,0.0,0.0,0.0,0.0,0.0,0.0,0.0,1.9955,1.9762,1.969,1.9726,1.9726,1.9726,1.9762,2.07,2.2004,2.3143,2.6231,2.925,3.0447,3.1764,3.2916,3.3574,3.4233,3.4502,3.3829,3.4497,3.4971,3.4469,3.5221,3.5999,3.6474,3.7239,3.782,3.8069,3.8282,3.8599,3.9174,3.87,3.8616,3.9191,3.8548,3.8142,3.8142,3.799,3.7973,3.8142,3.8142,3.821,3.8379,3.8379,3.8379,3.8379,3.821,3.8142,3.8142,3.8311,3.8379,3.8413,3.869,3.867,3.8427,3.8614,3.8639,3.8544,3.8821,3.9061,3.9382,3.9729,3.9986,4.0104,0.0,0.0,0.0,0.0,0.0,0.0,0.0,0.0,0.0,0.0,0.0,0.0,0.0,0.0,0.0,0.0,0.0,0.0,0.0,0.0,1.1442,1.0878,1.0552,1.0447,1.0467,1.0687,1.0992,1.1244,1.179,1.2521,1.3433,1.3735,1.4084,1.4501,1.4766,1.5118,1.5507,1.5639,1.5856,1.6095,1.6234,1.6371,1.6674,1.8302,1.9004,1.9267,2.0669,0.0,0.0,0.0,0.0,0.0,0.0,0.0,1.9545,1.9545,1.9596,1.9632,1.9632,2.0639,2.2233,2.4477,2.7096,2.928,2.9909,3.0836,3.1644,3.1988,3.3095,3.395,3.3667,3.4061,3.4485,3.4373,3.5049,3.5719,3.6222,3.6898,3.7419,3.7648,3.781,3.8058,3.8447,3.8125,3.8075,3.8447,3.7787,3.7364,3.7364,3.7009,3.6992,3.7347,3.7364,3.7533,3.7905,3.7905,3.7905,3.7905,3.7533,3.7178,3.684,3.7567,3.7905,3.7874,3.7952,3.7985,3.8005,3.7916,3.8012,3.8164,3.8472,3.8788,3.9169,3.9609,3.9935,4.007,0.0,0.0,0.0,0.0,0.0,0.0,0.0,0.0,0.0,0.0,0.0,0.0,0.0,0.0,0.0,0.0,0.0,0.0,0.0,0.0,0.0,0.9813,0.9677,0.9637,0.9744,0.9971,1.0312,1.0715,1.1356,1.2126,1.3045,1.3467,1.402,1.4635,1.4742,1.5098,1.5609,1.5595,1.5812,1.6194,1.6316,1.6514,1.6912,1.8362,1.9052,1.937,2.0591,2.0876,2.061,2.0376,0.0,0.0,0.0,0.0,1.9339,1.9339,1.9465,1.9574,1.9574,2.0691,2.2577,2.5525,2.735,2.8592,2.9265,2.9894,3.0372,3.0477,3.2003,3.3336,3.3397,3.3637,3.3964,3.4337,3.4912,3.5514,3.6075,3.6505,3.6883,3.7107,3.7148,3.7178,3.7266,3.7165,3.7148,3.7266,3.6574,3.6151,3.6197,3.5543,3.5493,3.618,3.6197,3.6502,3.7127,3.7127,3.7127,3.7127,3.6502,3.5926,3.547,3.6692,3.7334,3.7486,3.7184,3.7218,3.74,3.7138,3.727,3.7684,3.8124,3.8567,3.9077,3.952,3.9884,4.007,0.0,0.0,0.0,0.0,0.0,0.0,0.0,0.0,0.0,0.0,0.0,0.0,0.0,0.0,0.0,0.0,0.0,0.0,1.1468,0.0,0.0,0.8918,0.8837,0.8765,0.8618,0.9096,0.9527,0.9933,1.0743,1.1542,1.2342,1.3229,1.4145,1.5101,1.4842,1.523,1.6082,1.5667,1.5711,1.6039,1.6151,1.6645,1.7392,1.8379,1.9132,1.9781,2.0446,2.0579,2.0376,2.0015,1.9732,0.0,0.0,0.0,1.9139,1.9139,1.9302,1.9465,1.9574,2.1057,2.2921,2.4492,2.6318,2.7889,2.8577,2.9235,2.9864,3.0387,3.1745,3.2688,3.2304,3.2997,3.3593,3.3511,3.4034,3.4627,3.5036,3.4851,3.4751,3.4901,3.4387,3.4226,3.4796,3.429,3.4129,3.4662,3.4024,3.3648,3.3768,3.3684,3.3693,3.3863,3.3846,3.3897,3.4015,3.4015,3.4015,3.4015,3.3897,3.4134,3.4641,3.4756,3.5183,3.5828,3.5974,3.5875,3.5701,3.6373,3.6724,3.6867,3.7744,3.8495,3.9077,3.952,3.9884,4.007,0.0,0.0,0.0,0.0,0.0,0.0,0.0,0.0,0.0,0.0,0.0,0.0,0.0,0.0,0.0,1.2544,1.2282,1.1689,1.0649,0.9667,0.8878,0.8447,0.8242,0.8118,0.8126,0.8529,0.8975,0.9478,1.0331,1.1297,1.2392,1.3216,1.4082,1.4988,1.5284,1.5873,1.6607,1.6145,1.6188,1.656,1.6676,1.6932,1.7434,1.8594,1.9249,1.9592,2.0195,2.0323,2.0115,1.9854,1.953,1.925,1.9011,0.0,0.0,0.0,1.9003,1.9376,2.002,2.1147,2.2443,2.3729,2.5001,2.6198,2.723,2.7979,2.8637,2.9295,3.0358,3.1258,3.1555,3.2183,3.2635,3.2522,3.2951,3.3425,3.3794,3.3734,3.3734,3.388,3.3609,3.3499,3.3785,3.3472,3.3379,3.3577,3.3292,3.3168,3.3287,3.3287,3.3313,3.3406,3.3406,3.3406,3.3406,3.3406,3.3406,3.3406,3.3406,3.3575,3.388,3.3725,3.4275,3.5371,3.5134,3.5135,3.5221,3.5336,3.5737,3.623,3.6867,3.7677,3.8467,3.8904,3.9377,3.9729,0.0,0.0,0.0,0.0,0.0,0.0,0.0,0.0,0.0,0.0,0.0,0.0,0.0,0.0,0.0,0.0,1.2138,1.1442,1.0098,0.9257,0.857,0.8111,0.7787,0.7704,0.7787,0.8209,0.8618,0.9088,1.0069,1.1183,1.2374,1.3309,1.4213,1.5105,1.5724,1.6421,1.7188,1.6721,1.6794,1.7166,1.7258,1.7425,1.7762,1.8822,1.9331,1.9546,2.0016,2.0061,1.9919,1.969,1.9347,1.8988,1.8707,1.8528,0.0,0.0,0.0,1.9315,2.0206,2.0946,2.171,2.2832,2.3744,2.4672,2.5824,2.6602,2.732,2.8158,2.8936,2.9779,3.0683,3.1363,3.181,3.1917,3.2289,3.2607,3.2857,3.2837,3.2782,3.274,3.2555,3.2395,3.2387,3.2345,3.2328,3.2436,3.241,3.2386,3.2404,3.2387,3.2328,3.229,3.2273,3.2273,3.2273,3.2273,3.2374,3.2577,3.2577,3.2763,3.3119,3.2925,3.3517,3.4647,3.4329,3.4414,3.4826,3.467,3.5016,3.5766,3.6316,3.7023,3.7777,3.8153,3.862,3.9149,0.0,0.0,0.0,0.0,0.0,0.0,0.0,0.0,0.0,0.0,0.0,0.0,1.2401,1.2449,1.233,1.215,1.1799,1.118,1.0156,0.9413,0.8618,0.7777,0.7592,0.0,0.7523,0.8118,0.8529,0.882,0.9903,1.0911,1.1972,1.3448,1.4759,1.5849,1.5898,1.6597,1.7719,1.7314,1.7342,1.767,1.7751,1.8193,1.883,1.8973,1.9398,1.9945,1.9869,1.9797,1.9762,1.9435,1.9139,1.8822,1.8226,1.8135,1.8189,0.0,0.0,0.0,1.9662,2.0243,2.0932,2.162,2.2727,2.3849,2.4522,2.5241,2.6078,2.7365,2.7901,2.8412,2.9419,3.0584,3.1582,3.2041,3.2318,3.2545,3.2696,3.2127,3.1473,3.0891,3.0216,2.9799,2.9799,2.9679,2.988,3.0576,3.0558,3.0328,2.9895,2.99,2.966,2.9228,2.9211,2.9211,2.9211,2.9211,2.9567,3.0277,3.0277,3.1004,3.2341,3.2235,3.2462,3.3029,3.317,3.3583,3.4198,3.4671,3.5082,3.5505,3.6416,3.6984,3.7319,3.7353,3.7719,3.8162,0.0,0.0,0.0,0.0,0.0,0.0,0.0,0.0,0.0,0.0,0.0,0.0,0.0,1.233,1.2377,1.2294,1.1686,1.0985,1.0283,0.9475,0.8683,0.7941,0.7709,0.7607,0.7621,0.8044,0.8406,0.8748,0.9677,1.0915,1.2392,1.3419,1.4776,1.6446,1.6784,1.7468,1.8412,1.7978,1.8018,1.8343,1.8377,1.8527,1.8831,1.9286,1.9602,1.9797,1.9762,1.9726,1.969,1.9413,1.9101,1.8707,1.8068,1.7895,1.7922,1.8121,1.8592,1.9064,1.9362,1.9701,2.0154,2.0795,2.1356,2.2039,2.3131,2.3864,2.4582,2.5495,2.6146,2.6792,2.7411,2.9187,3.0593,3.0635,3.0766,3.0778,3.0432,3.0161,2.9749,2.9121,2.8847,2.8721,2.8721,2.8738,2.8893,2.9198,2.9175,2.9176,2.9139,2.9122,2.908,2.8991,2.9011,2.9011,2.9011,2.8484,2.8619,2.9381,2.9381,2.9922,3.0886,3.0752,3.1247,3.225,3.2282,3.2758,3.3551,3.4332,3.4774,3.5005,3.5513,3.6008,3.6439,3.6274,3.6397,3.6627,0.0,0.0,0.0,0.0,0.0,0.0,0.0,0.0,0.0,0.0,0.0,0.0,0.0,0.0,1.2222,1.2222,1.1634,1.1027,1.0527,0.9713,0.9007,0.8456,0.8185,0.8028,0.7953,0.8291,0.8578,0.8886,0.9725,1.0955,1.2584,1.3365,1.4778,1.6637,1.7173,1.7948,1.8793,1.8541,1.8678,1.9031,1.9031,1.9031,1.9076,1.951,1.969,1.969,1.969,1.969,1.9632,1.9325,1.8988,1.8592,1.7908,1.7611,1.7625,1.8135,1.8475,1.8784,1.9139,1.9376,1.9642,2.0079,2.0452,2.0946,2.1814,2.2503,2.3206,2.4103,2.4717,2.5379,2.6122,2.7659,2.884,2.8962,2.9027,2.8893,2.8475,2.841,2.807,2.7208,2.7173,2.7289,2.7443,2.7514,2.7805,2.8439,2.8472,2.8448,2.8421,2.8205,2.7887,2.7486,2.7469,2.7469,2.7469,2.6894,2.7147,2.8178,2.8178,2.8738,2.9736,2.9627,3.0207,3.1223,3.1449,3.2083,3.3088,3.3658,3.4129,3.4502,3.4722,3.5141,3.5579,3.5267,3.525,3.5322,0.0,0.0,0.0,0.0,0.0,0.0,0.0,0.0,0.0,1.104,0.0,0.0,0.0,0.0,0.0,1.1909,1.1682,1.1351,1.0933,1.0166,0.9603,0.9323,0.896,0.8667,0.8521,0.8781,0.8992,0.9217,0.9991,1.1135,1.251,1.3383,1.4778,1.6497,1.7063,1.7841,1.8822,1.9026,1.9325,1.969,1.969,1.969,1.969,1.969,1.969,1.969,1.969,1.9669,1.9538,1.9213,1.8822,1.8383,1.772,1.7352,1.7323,1.7989,1.8333,1.8553,0.0,0.0,0.0,1.9574,2.0139,2.0692,2.0677,2.1201,2.2024,2.3251,2.3621,2.4172,2.5606,2.5955,2.6331,2.701,2.71,2.7089,2.7074,2.693,2.6409,2.5195,2.5214,2.5465,2.5783,2.5852,2.6554,2.8239,2.8262,2.8023,2.7633,2.6926,2.5916,2.4526,2.4397,2.4382,2.4399,2.4288,2.501,2.6539,2.6556,2.7383,2.8924,2.8941,2.931,2.9905,3.0645,3.1583,3.263,3.2752,3.3301,3.4086,3.4141,3.4455,3.4818,3.4382,3.4266,3.4218,0.0,0.0,0.0,0.0,0.0,0.0,0.0,0.0,1.0428,0.0,0.0,0.0,1.1516,1.2029,1.2389,1.2471,1.2394,1.1938,1.0947,1.0429,1.0106,1.0014,0.9658,0.9341,0.9163,0.9145,0.9257,0.9469,1.0108,1.1021,1.2216,1.3317,1.4614,1.6097,1.7031,1.7948,1.8822,1.9026,1.9325,1.969,1.969,1.969,1.969,1.969,1.969,1.969,1.969,1.9669,1.9538,1.9101,1.8745,1.8344,1.7557,1.7157,1.7044,1.7365,1.7679,1.8002,1.8333,0.0,0.0,0.0,0.0,0.0,1.9974,2.0498,2.1096,2.144,2.1929,2.2419,2.2888,2.3005,2.3127,2.3409,2.5226,2.6414,2.5886,2.5446,2.4864,2.4108,2.3877,2.3887,2.4067,2.4343,2.4762,2.5363,2.5447,2.5463,2.539,2.5188,2.4884,2.443,2.3832,2.3754,2.4258,2.3629,2.3781,2.4795,2.543,2.6253,2.7282,2.7857,2.8516,2.9259,2.9462,3.001,3.0958,3.2479,3.3208,3.3433,3.3868,3.3892,3.3664,3.3521,3.325,3.2958,0.0,0.0,0.0,0.0,0.0,0.0,1.0351,1.0351,1.0428,0.0,0.0,0.0,1.152,1.2079,1.2508,1.2663,1.2709,1.2184,1.0992,1.0505,1.0283,1.0282,1.0075,0.9848,0.9643,0.9585,0.9716,1.0021,1.0524,1.1309,1.239,1.324,1.4444,1.5977,1.6837,1.7658,1.8412,1.8948,1.9398,1.969,1.969,1.969,1.969,1.969,1.969,1.969,1.9654,1.956,1.9413,1.8936,1.8422,1.7828,1.7282,1.696,1.6846,1.7086,1.7323,1.7652,1.7935,1.8358,1.8784,1.9139,0.0,0.0,1.969,1.9989,2.0363,2.0662,2.1021,2.1365,2.1699,2.1759,2.1798,2.1838,2.334,2.4334,2.3963,2.3686,2.3312,2.2805,2.2782,2.2891,2.3127,2.3423,2.3781,2.4257,2.437,2.4298,2.4036,2.4036,2.3853,2.3506,2.2919,2.2781,2.3056,2.2518,2.2666,2.3535,2.4097,2.4978,2.6168,2.6674,2.7486,2.8501,2.8501,2.8924,2.9753,3.1223,3.2144,3.2713,3.3184,3.3201,3.3048,3.3081,3.2765,3.2293,0.0,0.0,0.0,1.0457,1.039,1.043,1.0498,1.0576,1.0703,0.0,1.0985,1.1196,1.1707,1.2092,1.2425,1.2699,1.2625,1.209,1.0902,1.0494,1.0302,1.0312,1.0293,1.0214,1.0019,1.0088,1.0312,1.0659,1.1132,1.181,1.2689,1.3219,1.431,1.5852,0.0,0.0,1.7748,1.876,1.9368,1.9585,1.966,1.969,1.969,1.969,1.969,1.969,1.9596,1.9465,1.9191,1.8669,1.7908,1.7157,1.6918,1.6803,1.6718,1.6876,1.7128,1.7391,1.7679,1.8108,1.8592,1.8988,1.9339,0.0,1.969,1.969,1.9854,2.0483,2.0602,2.0782,2.1404,2.1509,2.147,2.1509,2.1573,2.1696,2.1963,2.2018,2.1916,2.1659,2.1913,2.2248,2.2635,2.2806,2.3274,2.4084,2.4166,2.3894,2.3308,2.3274,2.2929,2.2173,2.1903,2.1661,2.1432,2.1293,2.1664,2.2506,2.2764,2.3747,2.5378,2.551,2.6336,2.7689,2.7689,2.8129,2.8907,2.9421,3.0465,3.1725,3.2194,3.2429,3.259,3.273,3.2524,3.215,0.0,0.0,0.0,1.0572,1.0755,1.1035,1.1247,1.1634,1.1861,1.1648,1.1605,1.1715,1.1985,1.2259,1.2472,1.2663,1.211,1.1345,1.0487,1.0339,1.0293,1.0293,1.0186,1.0186,1.0244,1.0312,1.0534,1.0905,1.1431,1.1966,1.2469,1.3362,1.4161,1.4842,1.5864,1.6603,1.7155,1.8226,1.8737,1.8942,1.9465,1.969,1.969,1.969,1.9669,1.9611,1.9487,1.928,1.8941,1.8121,1.7516,1.7002,1.6803,1.6675,1.6565,1.6607,1.6705,1.6931,1.7352,1.772,1.8108,1.8784,1.9139,0.0,1.9654,1.969,1.9756,1.9942,1.9972,2.0038,2.0298,2.024,2.0204,2.0313,2.0349,2.0728,2.1842,2.1712,2.1605,2.1733,2.1648,2.166,2.1908,2.2195,2.2437,2.2635,2.2693,2.2625,2.2445,2.2416,2.2262,2.1814,2.1587,2.1324,2.1023,2.0942,2.1038,2.1344,2.2183,2.3225,2.4477,2.5177,2.6033,2.6911,2.6911,2.7351,2.8026,2.7908,2.8693,3.0021,3.0975,3.1355,3.131,3.1585,3.1772,3.1841,0.0,1.0725,1.0534,1.0495,1.0875,1.1328,1.1692,1.2214,1.2635,1.2715,1.2639,1.2461,1.2323,1.2459,1.2508,1.2401,1.1859,1.1153,1.0354,1.0301,1.0331,1.04,1.0322,1.039,1.0649,1.0791,1.1094,1.1542,1.1957,1.2318,1.2662,1.3261,1.394,1.465,1.5721,1.6458,1.6984,1.8337,1.8806,1.8762,1.942,1.969,1.969,1.969,1.9669,1.9574,1.9339,1.8874,1.8254,1.7639,1.7199,1.6833,1.6663,1.6565,1.6522,1.6522,1.6663,1.6876,1.7199,1.7639,1.8135,1.8707,1.9101,0.0,0.0,1.969,1.9726,1.9797,1.9797,1.9848,1.997,1.9884,1.9848,1.997,2.0061,2.043,2.1198,2.119,2.1214,2.1567,2.1598,2.1708,2.1919,2.214,2.2254,2.2254,2.2254,2.2225,2.2106,2.202,2.1873,2.1556,2.1308,2.1055,2.0712,2.0662,2.0712,2.0812,2.1537,2.2474,2.3566,2.4523,2.536,2.6117,2.6489,2.6791,2.7039,2.7225,2.7509,2.8054,2.9576,3.0243,3.0451,3.0975,3.1247,3.1317,1.0621,0.0,1.0525,1.0605,1.1156,1.1767,1.23,1.2929,1.3499,1.3936,1.3678,1.3314,1.2837,1.2706,1.2495,1.2016,1.1627,1.1089,1.0394,1.0448,1.0508,1.0525,1.0724,1.096,1.1193,1.1507,1.193,1.2475,1.2638,1.2842,1.309,1.3201,1.3766,1.4721,1.5613,1.6347,1.6998,1.847,1.8948,1.8762,1.942,1.969,1.969,1.969,1.9632,1.9501,1.9064,1.8344,1.7598,1.7282,1.696,1.6675,1.6522,1.6522,1.6522,1.6522,1.6663,1.6918,1.7157,1.7652,1.8228,1.8707,1.9101,1.945,0.0,0.0,0.0,1.9797,1.9848,1.9884,2.0025,1.9955,1.9904,2.0041,2.0235,2.0426,2.0679,2.0877,2.1071,2.1417,2.1691,2.1915,2.2185,2.2254,2.231,2.231,2.2225,2.2123,2.1969,2.184,2.1601,2.1293,2.1055,2.073,2.0392,2.0426,2.0478,2.0563,2.1039,2.1808,2.2892,2.3756,2.4521,2.5278,2.6,2.6234,2.611,2.6623,2.6645,2.6567,2.8204,2.9077,2.9552,3.0166,3.0461,3.0599,1.0708,1.0784,0.0,1.1386,1.2078,1.2817,1.3747,1.4515,1.5017,1.5037,1.4518,1.4053,1.3757,1.3012,1.2287,1.1616,1.1206,1.0826,1.0502,1.0965,1.1085,1.0603,1.1552,1.2037,1.1987,1.27,1.3328,1.378,1.3588,1.3594,1.3778,1.3528,1.3835,1.4708,1.5111,1.591,1.697,1.799,1.8534,1.8762,1.942,1.969,1.969,1.969,1.9545,1.9228,1.8422,1.7868,1.7475,1.7086,1.6846,1.6675,1.6522,1.6522,1.6522,1.6522,1.662,1.6803,1.7282,1.7598,1.8002,1.8707,1.9101,1.9376,1.9654,0.0,1.9762,1.9919,0.0,2.0041,2.0235,0.0,0.0,2.032,2.0494,2.0712,2.1071,2.1419,2.1617,2.1648,2.184,2.2061,2.2185,2.2254,2.231,2.231,2.2225,2.2094,2.1857,2.1645,2.1339,2.0893,2.0662,2.0392,2.0076,2.0115,2.0239,2.0444,2.0845,2.1617,2.2733,2.3036,2.3546,2.4312,2.5063,2.5313,2.5277,2.5668,2.6059,2.6431,2.6952,2.7641,2.8262,2.8213,2.8824,2.9753,1.0621,1.096,0.0,1.1671,1.2594,1.3542,1.4296,1.5271,1.5915,1.5783,1.5294,1.4858,1.4581,1.3905,1.3168,1.2345,1.1765,1.1542,1.1634,1.1892,1.1933,1.1706,1.2309,1.2761,1.3013,1.3489,1.3917,1.4329,1.4281,1.4323,1.4488,1.4324,1.4595,1.5184,1.5808,1.6605,1.7548,1.8397,1.895,1.9286,1.957,1.969,1.969,1.969,1.942,1.8898,1.8147,1.7639,1.7282,1.6918,1.6705,1.6565,1.6522,1.6522,1.6522,1.6522,1.6705,1.696,1.7323,1.7787,1.8305,1.8784,1.9176,1.9523,1.9654,1.969,1.9726,1.9848,0.0,0.0,0.0,0.0,0.0,0.0,2.0283,2.0432,2.1213,2.118,2.1317,2.182,2.2003,2.2152,2.2254,2.2282,2.231,2.231,2.2135,2.1945,2.1738,2.1386,2.0991,2.0628,2.0376,2.0185,2.0005,2.0131,2.0289,2.0444,2.0909,2.1471,2.2063,2.2661,2.3088,2.3388,2.4083,2.4527,2.4764,2.4806,2.5131,2.5568,2.5446,2.6068,2.7038,2.7489,2.7985,2.8532,1.0945,0.0,1.1786,1.2285,1.3225,1.4223,1.4979,1.5831,1.6392,1.6275,1.5813,1.5399,1.5174,1.4467,1.3735,1.302,1.2329,1.2085,1.2381,1.2592,1.2689,1.2658,1.3183,1.3654,1.4029,1.4352,1.4711,1.5101,1.4968,1.4972,1.5064,1.4862,1.5095,1.5659,1.6335,1.718,1.8104,1.8823,1.9325,1.9654,1.969,1.969,1.9654,1.9581,1.9199,1.863,1.7948,1.7475,1.7157,1.6803,1.6663,1.6607,1.6565,1.6565,1.6565,1.6565,1.6791,1.7086,1.7434,1.7988,1.8592,1.8898,1.9302,1.9611,1.969,1.969,1.9726,1.9797,1.9848,0.0,0.0,0.0,2.0323,2.0579,0.0,2.0299,2.1364,2.1065,2.1066,2.1898,2.2106,2.2214,2.2254,2.2282,2.231,2.231,2.2061,2.184,2.1648,2.115,2.0745,2.046,2.0185,1.9975,1.9955,2.0131,2.0323,2.0527,2.0974,2.1262,2.1513,2.2176,2.2437,2.2408,2.3096,2.3697,2.4172,2.4147,2.4509,2.4966,2.4467,2.4833,2.5697,2.6702,2.7141,2.747,1.1956,1.2006,1.2365,1.3629,1.4252,1.4955,1.6164,1.6423,1.6479,1.6392,1.6032,1.5724,1.549,1.4394,1.3531,1.332,1.2546,1.2083,1.2126,1.2778,1.3139,1.2984,1.4303,1.4998,1.4869,1.5586,1.6083,1.6343,1.5694,1.5406,1.5476,1.4839,1.5062,1.6019,1.6336,1.7244,1.8525,1.8936,1.9288,1.9611,1.9654,1.9669,1.9574,1.925,1.886,1.8422,1.776,1.7393,1.7157,1.6803,1.6761,1.6876,1.6718,1.6675,1.6675,1.6675,1.6846,1.7115,1.7639,1.8147,1.863,1.9139,1.9465,1.9611,1.969,1.969,1.9726,1.9797,1.9884,2.0076,2.027,2.0392,2.0579,2.0828,2.0555,0.0,0.0,2.1266,2.1167,2.1898,2.2106,2.2214,2.2214,2.2254,2.231,2.231,2.2061,2.1794,2.1524,2.1071,2.0662,2.0304,1.9975,1.9797,1.9797,2.001,2.0254,2.0494,2.0893,2.1135,2.1215,2.1373,2.1373,2.1279,2.2036,2.273,2.3388,2.3877,2.4465,2.4966,2.4467,2.4208,2.421,2.5273,2.6078,2.6722,1.2138,1.2816,1.3408,1.4109,1.4876,1.5772,1.691,1.7118,1.7187,1.7196,1.6906,1.6479,1.583,1.5208,1.4552,1.4014,1.3645,1.3381,1.3369,1.3772,1.4102,1.4383,1.5047,1.5508,1.5733,1.6077,1.6306,1.6392,1.6089,1.5917,1.5819,1.5581,1.5835,1.6472,1.6803,1.7558,1.85,1.8822,1.9213,1.9611,1.9654,1.9617,1.9465,1.9176,1.886,1.8514,1.7975,1.7611,1.7352,1.7115,1.7086,1.7073,1.6918,1.6876,1.6876,1.6876,1.7115,1.7434,1.7828,1.8344,1.886,1.9213,1.9472,1.9654,1.969,1.969,1.9726,1.9726,1.9797,1.9955,2.0235,2.046,2.0712,2.1103,2.0364,2.0101,0.0,2.1022,2.1139,2.1786,2.2065,2.2214,2.2214,2.2254,2.231,2.231,2.2003,2.1751,2.1507,2.0942,2.0494,2.0304,1.994,1.9797,1.9919,2.0131,2.0373,2.0644,2.0941,2.1103,2.1135,2.1183,2.1087,2.0941,2.1163,2.1874,2.29,2.3059,2.377,2.471,2.4343,2.4094,2.4149,2.5213,2.5749,2.6093,1.2297,1.3342,1.4238,1.4809,1.5847,1.6867,1.7537,1.7964,1.8088,1.7922,1.7733,1.7213,1.621,1.5742,1.5258,1.4542,1.4346,1.4278,1.4382,1.4565,1.4834,1.5232,1.5635,1.5957,1.6275,1.6392,1.6436,1.6392,1.6231,1.6044,1.5856,1.5812,1.6032,1.6411,1.685,1.7421,1.8187,1.8592,1.8988,1.9391,1.9596,1.956,1.9376,1.9265,1.895,1.8528,1.8149,1.7855,1.7639,1.7475,1.7434,1.7475,1.7323,1.724,1.7199,1.7199,1.7393,1.772,1.8108,1.8592,1.9026,1.9339,1.9545,1.969,1.969,1.969,1.969,1.969,1.9797,2.001,2.0289,2.0595,2.0942,2.134,2.0603,2.0174,0.0,2.1089,2.1394,2.179,2.1786,2.1737,2.1737,2.1849,2.1904,2.1904,2.184,2.1721,2.1524,2.0861,2.0426,2.0304,1.9904,1.9797,2.0005,2.0166,2.0357,2.0644,2.0794,2.0893,2.0893,2.0893,2.0794,2.0677,2.0644,2.1287,2.2321,2.2477,2.3165,2.4126,2.407,2.4009,2.4048,2.5243,2.5965,2.6512,1.2374,1.3737,1.4971,1.5885,1.7244,1.8201,1.8249,1.8947,1.9291,1.8683,1.8472,1.7947,1.6731,1.6081,1.5512,1.4932,1.4696,1.4765,1.5105,1.5185,1.5312,1.5635,1.6013,1.6275,1.6392,1.6479,1.6479,1.6392,1.6132,1.5856,1.5591,1.5513,1.5591,1.5832,1.6411,1.6976,1.7516,1.8187,1.8683,1.9031,1.9428,1.9501,1.9413,1.9413,1.904,1.8517,1.8321,1.8135,1.8028,1.7868,1.7908,1.7988,1.7787,1.7639,1.7557,1.7557,1.7679,1.7948,1.8475,1.886,1.9176,1.9538,1.9632,1.969,1.969,1.969,1.969,1.969,1.9889,2.015,2.0376,2.0827,2.1278,2.1559,2.1143,2.0788,2.0761,2.1371,2.1849,2.1853,2.1278,2.0899,2.0883,2.108,2.1177,2.1177,2.1573,2.1721,2.1524,2.0861,2.0426,2.0304,1.9904,1.9797,2.0005,2.0045,2.0204,2.0494,2.0494,2.0494,2.0494,2.0494,2.0441,2.0388,2.0441,2.0883,2.1619,2.2133,2.2717,2.3323,2.3762,2.3925,2.4036,2.5304,2.6594,2.7747,1.2218,1.4935,1.7644,1.9499,1.968,1.9802,2.0375,2.0545,2.0524,2.0365,1.9933,1.916,1.7895,1.7116,1.6451,1.5986,1.5891,1.5796,1.572,1.5916,1.6051,1.6037,1.6231,1.6392,1.6479,1.6479,1.6436,1.6231,1.5969,1.5703,1.539,1.5345,1.5468,1.568,1.6293,1.6837,1.7407,1.8002,1.8581,1.9116,1.9339,1.9413,1.9413,1.9501,1.9339,1.9078,1.8798,1.8669,1.8592,1.8553,1.85,1.8422,1.8344,1.8187,1.8068,1.8068,1.8226,1.8475,1.8827,1.9116,1.9376,1.9538,1.9632,1.969,1.969,1.969,1.969,1.969,1.9869,2.0096,2.0342,2.0763,2.1166,2.1542,2.1114,2.0664,2.0533,2.0652,2.0964,2.1475,2.1006,2.0749,2.0965,2.1019,2.1063,2.1063,2.147,2.1648,2.1448,2.0844,2.0426,2.0304,1.9904,1.9762,1.9848,1.9955,2.0096,2.0204,2.0289,2.0289,2.0204,2.0204,2.015,2.0111,2.0131,2.0513,2.1155,2.1323,2.2049,2.3077,2.3122,2.3834,2.4847,2.5002,2.5788,2.6795,1.2884,1.6502,1.9857,2.151,2.2275,2.255,2.2166,2.2454,2.2484,2.1828,2.1344,2.043,1.8881,1.8155,1.7438,1.6753,1.6881,1.6838,1.639,1.6551,1.656,1.63,1.6392,1.6479,1.6522,1.6522,1.6436,1.6275,1.6001,1.5703,1.539,1.5357,1.5345,1.5468,1.6032,1.6539,1.6993,1.772,1.8333,1.8851,1.9153,1.9339,0.0,1.956,1.956,1.9472,1.931,1.9161,1.9026,1.9026,1.8988,1.8898,1.8784,1.8669,1.8553,1.8553,1.8669,1.8874,1.913,1.9317,1.9501,1.9611,1.9654,1.969,1.969,1.969,1.969,1.969,1.9869,2.0131,2.0323,2.073,2.1103,2.1464,2.1199,2.0907,2.0787,2.0694,2.0823,2.1306,2.0815,2.0504,2.0727,2.0827,2.0872,2.0872,2.1295,2.1479,2.1324,2.0778,2.0392,2.022,1.9869,1.9726,1.9797,1.9884,1.9955,2.0061,2.008,2.0045,1.9975,1.9975,1.994,1.9919,1.997,2.0167,2.0509,2.0797,2.1499,2.2496,2.2972,2.3764,2.462,2.4458,2.5632,2.7297,1.4516,1.8382,2.176,2.2908,2.4791,2.5589,2.4042,2.4502,2.4558,2.3142,2.2504,2.1479,1.9656,1.9038,1.8312,1.742,1.7776,1.7695,1.7006,1.7061,1.6917,1.643,1.6479,1.6522,1.6522,1.6522,1.6479,1.6392,1.6188,1.5881,1.5525,1.539,1.53,1.5334,1.5824,1.625,1.6637,1.7462,1.8042,1.8503,1.8912,1.9213,1.9413,1.9617,1.969,1.969,1.969,1.9545,1.9362,1.9362,1.9339,1.9339,1.9176,1.9064,1.8988,1.8988,1.9064,1.9176,1.9376,1.9538,1.9647,1.969,1.969,1.969,1.969,1.969,1.969,1.969,1.9889,2.0115,2.0235,2.063,2.1039,2.1276,2.1261,2.1183,2.1103,2.1007,2.0975,2.1151,2.0635,0.0,2.0397,2.0553,2.0636,2.0636,2.1087,2.1293,2.1135,2.0663,2.0308,2.01,1.9833,1.9726,1.9797,1.9797,1.9848,1.9955,1.9848,1.9797,1.9797,1.9797,1.9797,1.9797,1.9919,1.9884,1.9843,2.0429,2.1083,2.1814,2.2981,2.3621,2.387,2.387,2.5509,2.7763,1.8321,2.0951,2.3224,2.5494,2.6447,2.6972,2.7073,2.6339,2.548,2.4469,2.3075,2.1615,2.009,1.9162,1.8512,1.8004,1.8389,1.8224,1.7276,1.7592,1.7439,1.6516,1.6479,1.6522,1.6522,1.6522,1.6423,1.6324,1.6405,1.6166,1.5739,1.5513,1.5332,1.533,1.5901,1.6479,1.7115,1.7557,1.7962,1.8397,1.8898,1.9213,1.9413,1.9617,1.969,1.969,1.969,1.969,1.9617,1.9617,1.9596,1.9538,1.9538,1.9413,1.9302,1.9302,1.9413,1.9538,1.9574,1.9632,1.969,1.969,1.969,1.969,1.969,1.969,1.969,1.969,1.9797,1.9869,2.0025,2.0376,2.0763,2.0958,2.0828,2.0712,2.0628,2.0545,2.0512,2.0545,2.0469,2.0473,2.0457,2.035,2.03,2.03,2.0733,2.0958,2.086,2.0527,2.0254,2.01,1.9833,1.9726,1.9726,1.9726,1.9726,1.9762,1.9726,1.9726,1.9726,1.9726,1.9726,1.9726,1.9726,1.9726,1.9741,1.9846,2.0625,2.1754,2.2316,2.3011,2.3664,2.3664,2.4,2.4502,2.0809,2.2897,2.4679,2.6179,2.7126,2.7709,2.7911,2.7203,2.6114,2.4793,2.3207,2.1632,2.0289,1.9427,1.8796,1.8142,1.8885,1.8838,1.7398,1.7786,1.7597,1.6572,1.6522,1.6522,1.6522,1.6522,1.6466,1.6411,1.6467,1.6349,1.5993,1.5836,1.57,1.5584,1.6107,1.6607,1.7115,1.7516,1.7948,1.8422,1.8898,1.9265,1.9538,1.9654,1.969,1.969,1.969,1.969,1.969,1.969,1.969,1.9632,1.9632,1.9596,1.9545,1.9545,1.9596,1.9632,1.9632,1.9705,1.969,1.969,1.969,1.9779,2.0139,2.0228,2.0228,2.0228,2.0287,2.024,2.0086,2.0204,2.041,2.0545,2.0444,2.0342,2.0323,2.022,2.022,2.0239,2.0273,2.0323,2.0392,2.0249,2.0208,2.0353,2.0508,2.0613,2.0527,2.0304,2.0096,1.994,1.9797,1.969,1.969,1.969,1.969,1.969,1.969,1.969,1.969,1.969,1.969,1.969,1.969,1.969,1.972,2.0079,2.0797,2.1739,2.2125,2.2807,2.3593,2.3593,2.3621,2.3606,2.2736,2.4549,2.6036,2.6594,2.7499,2.8113,2.7892,2.7262,2.6324,2.4869,2.3178,2.1574,2.0339,1.9682,1.8973,1.8163,1.9276,1.9218,1.7422,1.7846,1.7702,1.6572,1.6522,1.6522,1.6522,1.6522,1.6522,1.6522,1.6504,1.643,1.6244,1.6169,1.6088,1.594,1.638,1.6735,1.7086,1.7516,1.8028,1.8553,1.8988,1.9339,1.9611,1.9654,1.969,1.969,1.969,1.969,1.969,1.969,1.969,1.969,1.969,1.969,1.969,1.969,1.969,1.969,1.969,1.969,1.969,1.969,1.9794,2.0049,2.0587,2.0827,2.0917,2.0917,2.094,2.0843,2.0345,2.0259,2.0248,2.0231,2.0115,2.0045,2.0045,1.999,1.9955,2.001,1.9995,2.008,2.015,2.008,2.01,2.0308,2.0308,2.0289,2.0235,2.0061,1.9919,1.9797,1.9726,1.969,1.969,1.969,1.969,1.969,1.969,1.969,1.969,1.969,1.969,1.969,1.969,1.969,1.9735,2.0273,2.0887,2.153,2.1988,2.2745,2.3606,2.358,2.3595,2.3595,2.4583,2.6054,2.7248,2.7801,2.8055,2.8009,2.763,2.6451,2.5496,2.4932,2.2958,2.1296,2.0339,1.9682,1.8973,1.8163,1.9264,1.925,1.7422,1.7846,1.7702,1.6572,1.6522,1.6522,1.6522,1.6522,1.6522,1.6522,1.6504,1.6485,1.6473,1.6355,1.63,1.6349,1.6577,1.6876,1.7199,1.7639,1.8108,1.863,1.9101,1.9413,1.9611,1.9654,1.969,1.969,1.969,1.969,1.969,1.969,1.969,1.969,1.969,1.969,1.969,1.969,1.969,1.969,1.969,1.969,1.969,1.969,2.0154,2.0632,2.0707,2.1171,2.1605,2.1605,2.1605,2.1434,2.0858,2.0737,2.0578,2.0096,1.9919,1.9833,1.9833,1.9762,1.9726,1.9762,1.9762,1.9762,1.9762,1.9762,1.9762,1.9747,1.9955,2.0025,2.0041,1.9884,1.9797,1.9797,1.9726,1.969,1.969,1.969,1.969,1.969,1.969,1.969,1.969,1.969,1.969,1.969,1.969,1.969,1.969,1.975,2.0183,2.0872,2.1515,2.249,2.3603,2.3591,2.3595,2.3595,2.4987,2.6026,2.6741,2.7067,2.7057,2.6882,2.6561,2.5673,2.4696,2.3902,2.2199,2.0846,2.0083,1.9692,1.9168,1.848,1.9454,1.9515,1.8063,1.8091,1.7852,1.7074,1.6697,1.6522,1.6522,1.6522,1.6522,1.6522,1.6491,1.6491,1.6491,1.6461,1.6448,1.6479,1.6748,1.7044,1.7352,1.7948,1.8422,1.8822,1.9302,1.956,1.9654,1.969,1.969,1.969,1.969,1.969,1.969,1.969,1.969,1.969,1.969,1.969,1.969,1.969,1.969,1.969,1.969,1.969,1.969,1.969,2.0198,2.0812,2.1216,2.1814,2.2278,2.2278,2.1964,2.162,2.1374,2.1,2.0655,2.0459,2.0032,1.9726,1.9726,1.9726,1.969,1.9632,1.9632,1.9596,1.9523,1.9596,1.9632,1.9632,1.9741,1.9797,1.9797,1.9762,1.9726,1.9726,1.9726,1.969,1.969,1.969,1.969,1.969,1.969,1.969,1.969,1.969,1.969,1.969,1.969,1.969,1.969,1.969,2.0154,2.0887,2.1193,2.2222,2.3588,2.3608,2.3595,2.3595,2.4973,2.5757,2.6291,2.6319,2.6212,2.5937,2.5484,2.4779,2.3925,2.2852,2.1638,2.072,2.0297,1.9969,1.9629,1.9127,1.9744,1.9737,1.8709,1.8511,1.8129,1.7413,1.6986,1.6685,1.6522,1.6522,1.6522,1.6522,1.6522,1.6522,1.6522,1.6522,1.6522,1.6565,1.6876,1.7199,1.7557,1.8226,1.8707,1.9064,1.9465,1.9632,1.969,1.969,1.969,1.969,1.969,1.969,1.969,1.969,1.969,1.969,1.969,1.969,1.969,1.969,1.969,1.969,1.969,1.969,1.9735,1.9929,2.0498,2.1171,2.1829,2.2488,2.2951,2.2951,2.2577,2.2203,2.2024,2.1605,2.1171,2.0782,2.0303,1.9914,1.972,1.969,1.9705,1.9611,1.9611,1.9538,1.9413,1.9501,1.9574,1.9611,1.9632,1.969,1.969,1.969,1.969,1.969,1.969,1.969,1.969,1.969,1.969,1.969,1.969,1.969,1.969,1.969,1.969,1.969,1.969,1.969,1.9741,1.9899,2.0363,2.0961,2.1262,2.2129,2.3238,2.352,2.3595,2.3595,2.4826,2.5627,2.6045,2.5918,2.5767,2.5334,2.4552,2.379,2.3001,2.2252,2.1543,2.1114,2.1208,2.066,2.0318,2.027,2.0205,1.9892,1.923,1.9069,1.853,1.7438,1.7375,1.7099,1.6522,1.6522,1.6522,1.6522,1.6522,1.6522,1.6522,1.6522,1.6565,1.6718,1.6918,1.7323,1.7828,1.8305,1.8822,1.9302,1.9538,1.9632,1.969,1.969,1.969,1.969,1.969,1.969,1.969,1.969,1.969,1.969,1.969,1.969,1.969,1.969,1.969,1.969,1.969,1.969,1.9854,2.0528,2.1201,2.1859,2.2559,2.3146,2.3595,2.3595,2.358,2.3385,2.2787,2.2667,2.2218,2.0932,2.0707,2.0468,1.9779,1.969,1.9705,1.9611,1.9611,1.9538,1.9413,1.9413,1.9465,1.9574,1.9611,1.9647,1.969,1.969,1.969,1.969,1.969,1.969,1.969,1.969,1.969,1.969,1.969,1.969,1.969,1.969,1.969,1.969,1.969,1.969,1.9735,2.0423,2.0669,2.0789,2.1858,2.2319,2.2423,2.3268,2.3595,2.3595,2.3694,2.4154,2.4443,2.4527,2.4455,2.4227,2.3717,2.3361,2.2852,2.2176,2.1824,2.1665,2.1966,2.1334,2.0842,2.0862,2.0699,2.0467,2.0089,1.9394,1.8869,1.8518,1.8141,1.7677,1.7124,1.7099,1.6911,1.6522,1.6522,1.6522,1.6522,1.6522,1.6565,1.6718,1.7115,1.7475,1.7828,1.85,1.8988,1.9339,1.956,1.969,1.969,1.969,1.969,1.969,1.969,1.969,1.969,1.969,1.969,1.969,1.969,1.969,1.969,1.969,1.969,1.969,1.969,2.0034,2.0438,2.0662,2.1545,2.2428,2.2664,2.3161,2.3595,2.3595,2.3595,2.3535,2.334,2.2592,2.1874,2.1455,2.0602,1.9929,1.972,1.969,1.9654,1.9487,1.9413,1.9302,1.913,1.9153,1.9213,1.9265,1.9376,1.9523,1.969,1.969,1.969,1.969,1.969,1.969,1.969,1.969,1.969,1.969,1.969,1.969,1.969,1.969,1.969,1.969,1.969,1.9944,2.0408,2.0617,2.1147,2.1853,2.2372,2.282,2.3223,2.3505,2.3595,2.3595,2.2745,2.3001,2.3224,2.3446,2.3372,2.3224,2.3001,2.2703,2.2402,2.2025,2.1883,2.1886,2.2158,2.1826,2.1576,2.1732,2.1354,2.1015,2.0809,2.0097,1.9459,1.8995,1.8694,1.8254,1.7702,1.7689,1.7413,1.6848,1.6622,1.6522,1.6522,1.6522,1.6607,1.6846,1.724,1.7639,1.8108,1.8669,1.9101,1.9413,1.9617,1.969,1.969,1.969,1.969,1.969,1.969,1.969,1.969,1.969,1.969,1.969,1.969,1.969,1.969,1.969,1.969,1.9735,2.0004,2.0378,2.0842,2.1335,2.2069,2.2783,2.2966,2.3325,2.3595,2.3595,2.3595,2.3535,2.3295,2.2592,2.1904,2.141,2.0617,1.9989,1.972,1.969,1.9617,1.9413,1.9376,1.9265,1.9055,1.9078,1.9101,1.9101,1.9191,1.9302,1.9472,1.9545,1.9617,1.9669,1.9669,1.9654,1.969,1.969,1.969,1.969,1.969,1.969,1.969,1.969,1.9824,2.0079,2.0079,2.0468,2.1111,2.135,2.1849,2.248,2.2892,2.3266,2.3595,2.3653,2.3696,2.3681,2.1941,2.2176,2.2402,2.2628,2.2478,2.2327,2.2402,2.2035,2.1807,2.1807,2.1776,2.1816,2.19,2.2151,2.2457,2.2752,2.2083,2.1516,2.1319,2.0924,2.0188,1.9083,1.9083,1.8819,1.8279,1.8267,1.799,1.7438,1.6861,1.6572,1.6572,1.6534,1.6693,1.7002,1.7282,1.7787,1.85,1.8784,1.9176,1.9611,1.9654,1.969,1.969,1.969,1.969,1.969,1.969,1.969,1.969,1.969,1.969,1.969,1.969,1.969,1.969,1.969,1.969,1.9839,2.0528,2.0752,2.1081,2.2394,2.2753,2.2933,2.3518,2.3638,2.3595,2.3595,2.3595,2.3415,2.2787,2.2679,2.2229,2.0917,2.0677,2.0423,1.9816,1.9726,1.9617,1.945,1.9413,1.9302,1.9101,1.9064,1.9064,1.9064,1.9017,1.8979,1.9078,1.9228,1.9413,1.9574,1.9611,1.9647,1.969,1.969,1.969,1.969,1.969,1.969,1.969,1.9735,2.0109,2.0722,2.0767,2.1156,2.1814,2.2428,2.2739,2.2802,2.337,2.3595,2.3638,2.3739,2.3824,2.3794,2.1339,2.1425,2.1589,2.1959,2.1949,2.1949,2.2176,2.2111,2.2035,2.2035,2.1796,2.1828,2.2302,2.2207,2.2341,2.2799,2.2176,2.1679,2.1475,2.0978,2.0351,1.9648,1.9623,1.9371,1.8795,1.8832,1.8555,1.8003,1.7451,1.7174,1.7162,1.6722,1.6693,1.7002,1.7323,1.7868,1.85,1.8898,1.9265,1.9611,1.9654,1.969,1.969,1.969,1.969,1.969,1.969,1.969,1.969,1.969,1.969,1.969,1.969,1.969,1.969,1.969,1.969,1.9839,2.0528,2.1105,2.1753,2.2565,2.3251,2.3743,2.3964,2.3867,2.3739,2.3739,2.3653,2.3415,2.2787,2.2329,2.1753,2.0888,2.0421,2.0116,1.995,1.9848,1.9726,1.9574,1.9413,1.9228,1.9055,1.8912,1.8836,1.8774,1.8673,1.8634,1.862,1.8711,1.8927,1.9413,1.9538,1.9647,1.969,1.969,1.969,1.969,1.969,1.969,1.9705,2.0228,2.0557,2.0737,2.1246,2.1829,2.2499,2.2607,2.2951,2.3385,2.3535,2.3653,2.3782,2.3882,2.3933,2.3869,2.0549,2.0589,2.0801,2.1395,2.1502,2.1655,2.2025,2.2101,2.2176,2.2478,2.2219,2.2193,2.261,2.2497,2.2462,2.2807,2.2506,2.2167,2.1895,2.1343,2.079,2.0225,1.9936,1.9673,1.9384,1.9384,1.912,1.8581,1.8028,1.7626,1.7375,1.7081,1.702,1.7115,1.7475,1.7988,1.8669,1.9026,1.9376,1.9632,1.969,1.969,1.969,1.969,1.969,1.969,1.969,1.969,1.969,1.969,1.969,1.969,1.969,1.969,1.969,1.969,1.969,1.9899,2.0902,2.1488,2.2088,2.3219,2.3834,2.4151,2.4177,2.4051,2.3882,2.3797,2.3739,2.3411,2.2465,2.2103,2.1606,2.0637,2.0289,2.0131,2.0061,1.9955,1.9933,2.0102,1.9968,1.9883,2.0011,1.9893,1.9695,1.9442,1.8958,1.8795,1.9086,1.8823,1.8863,1.9228,1.9376,1.9523,1.969,1.969,1.969,1.969,1.969,1.9854,2.0168,2.0543,2.1036,2.1635,2.1994,2.2503,2.3101,2.3101,2.3338,2.3696,2.3608,2.3679,2.3849,2.3945,2.4035,2.4091,1.9844,1.9912,2.019,2.0968,2.1165,2.1436,2.2025,2.2176,2.2381,2.2903,2.2756,2.2621,2.2863,2.2746,2.2642,2.2714,2.2848,2.2733,2.2347,2.187,2.133,2.0743,2.0188,1.9886,1.9798,1.9798,1.9585,1.9096,1.8593,1.8091,1.7626,1.765,1.7567,1.7502,1.7907,1.8408,1.8965,1.9284,1.9583,1.9839,1.9839,1.9839,1.9839,1.9839,1.9779,1.969,1.969,1.969,1.9741,1.9809,1.9839,1.9854,1.9959,1.9914,1.9839,1.9839,1.9839,2.0109,2.1389,2.1949,2.254,2.4025,2.44,2.44,2.44,2.4177,2.4009,2.3882,2.3882,2.3432,2.2143,2.2041,2.1712,2.04,2.0254,2.0304,2.0185,2.0172,2.0282,2.067,2.0691,2.0803,2.1149,2.1085,2.0795,2.0301,1.9458,1.9205,1.9707,1.9273,1.9086,1.9329,1.9418,1.9538,1.969,1.969,1.969,1.969,1.969,2.0049,2.0722,2.0812,2.153,2.2724,2.2787,2.3116,2.3595,2.3595,2.3696,2.3824,2.3691,2.3773,2.3952,2.401,2.4151,2.4288,1.9902,1.9912,2.0092,2.0567,2.0964,2.1436,2.2252,2.2478,2.27,2.2938,2.2878,2.284,2.2929,2.2795,2.2702,2.286,2.2957,2.284,2.2347,2.2234,2.1732,2.0756,2.063,2.03,1.9811,1.9798,1.9761,1.9685,1.9158,1.8857,1.8756,1.8421,1.8375,1.8649,1.9185,1.946,1.9569,1.9899,2.0239,2.0557,2.0557,2.0557,2.0557,2.0557,2.0183,1.969,1.969,1.969,1.9779,2.0363,2.0557,2.0647,2.1201,2.1006,2.0557,2.0557,2.0557,2.0722,2.1573,2.2894,2.4219,2.4759,2.4822,2.4742,2.4742,2.4482,2.4276,2.4219,2.412,2.3666,2.2455,2.2377,2.2055,2.0693,2.0543,2.0577,2.046,2.0711,2.0892,2.079,2.1093,2.1321,2.1208,2.1017,2.0684,2.0173,1.9642,1.9391,1.9557,1.9404,1.9647,2.0439,2.019,1.9944,1.969,1.969,1.969,1.969,1.969,2.0049,2.0737,2.1291,2.1964,2.2753,2.3236,2.3505,2.3595,2.3739,2.3839,2.3967,2.3884,2.3999,2.4222,2.4272,2.4256,2.436,1.9873,1.9912,2.0141,2.0787,2.1151,2.1655,2.2478,2.2927,2.3267,2.3477,2.3384,2.3335,2.3323,2.2997,2.2848,2.3017,2.3078,2.2965,2.2774,2.2472,2.2083,2.1568,2.0991,2.0401,1.9811,1.9798,1.9798,1.9798,1.956,1.9296,1.902,1.8951,1.893,1.8943,1.9543,2.0004,2.0296,2.0677,2.0996,2.1246,2.1246,2.1246,2.1246,2.1246,2.0827,2.0243,2.0243,2.0004,1.9794,2.0483,2.0722,2.0827,2.1485,2.1485,2.1246,2.1246,2.127,2.1482,2.2303,2.3523,2.4645,2.4926,2.4926,2.4902,2.4902,2.4686,2.4467,2.4467,2.4492,2.4247,2.3266,2.3321,2.3101,2.1969,2.1846,2.1792,2.1548,2.1593,2.1706,2.1853,2.2064,2.223,2.2446,2.2162,2.1771,2.1268,2.042,2.0072,2.0395,2.0192,2.056,2.1625,2.0878,2.0391,2.0243,1.9869,1.969,1.969,1.969,2.0228,2.1261,2.156,2.2274,2.3333,2.3576,2.3782,2.3852,2.3952,2.4078,2.4343,2.4405,2.4641,2.498,2.5243,2.5336,2.5371,1.9853,1.9912,2.0095,2.0831,2.1201,2.1731,2.2553,2.3224,2.3704,2.3979,2.3927,2.3794,2.3791,2.3306,2.2957,2.3078,2.3138,2.3198,2.3198,2.2867,2.2564,2.238,2.1365,2.0507,1.9875,1.9862,1.985,1.9798,1.9798,1.9597,1.9208,1.9444,1.9446,1.935,2.0007,2.0564,2.0955,2.1389,2.1732,2.1919,2.1919,2.1919,2.1919,2.1919,2.1515,2.0946,2.0946,2.0602,2.0258,2.0946,2.1171,2.1291,2.1934,2.2039,2.1919,2.1919,2.1984,2.2239,2.3218,2.4039,2.4751,2.5005,2.5045,2.5045,2.5045,2.4886,2.4751,2.4791,2.4895,2.4791,2.4094,2.4116,2.3983,2.3063,2.2916,2.2771,2.2459,2.2509,2.2595,2.2757,2.3005,2.3223,2.348,2.3172,2.2768,2.2278,2.1272,2.084,2.1251,2.0989,2.1403,2.2589,2.1683,2.1021,2.0722,2.0183,1.9839,1.969,1.969,2.0303,2.147,2.1659,2.2389,2.3613,2.3806,2.4009,2.4204,2.4271,2.4451,2.4751,2.4934,2.5278,2.567,2.6147,2.633,2.6319,1.9902,1.9912,1.9997,2.0252,2.0761,2.1578,2.2553,2.3224,2.3777,2.4384,2.4262,2.4131,2.3992,2.3416,2.3078,2.3078,2.3271,2.3403,2.3403,2.3603,2.3405,2.2591,2.1626,2.0757,2.0003,1.999,1.9926,1.9798,1.9798,1.9786,1.9748,1.9863,2.0143,2.0492,2.1032,2.1412,2.1569,2.1888,2.2285,2.2649,2.2649,2.2649,2.2649,2.2649,2.2203,2.162,2.162,2.159,2.165,2.2308,2.2532,2.2637,2.3266,2.3071,2.2649,2.2649,2.2675,2.2959,2.3974,2.4599,2.5005,2.5217,2.5294,2.5294,2.5294,2.5162,2.5107,2.5301,2.5339,2.5169,2.4539,2.4406,2.4088,2.3155,2.2932,2.2765,2.2452,2.3299,2.3675,2.2877,2.3773,2.4224,2.3569,2.3275,2.2904,2.2417,2.186,2.1513,2.1568,2.1513,2.1974,2.3038,2.2738,2.1949,2.0722,2.0662,2.0318,1.969,1.969,2.0079,2.0812,2.1473,2.2254,2.3087,2.3917,2.4359,2.4498,2.4719,2.4918,2.5091,2.5341,2.5672,2.6007,2.6476,2.6651,2.6671,2.0312,2.0312,2.0399,2.0562,2.1161,2.1807,2.2553,2.3508,2.4269,2.4453,2.4688,2.4769,2.4505,2.4066,2.3788,2.3788,2.3726,2.376,2.3852,2.4028,2.3668,2.2519,2.2107,2.1432,2.0385,2.0271,2.022,2.0156,2.0029,1.9926,1.9926,1.999,2.0233,2.061,2.1166,2.1655,2.2169,2.2541,2.2935,2.3251,2.3251,2.3251,2.3251,2.3251,2.2862,2.2308,2.2308,2.2039,2.1799,2.2458,2.2724,2.2828,2.34,2.343,2.3251,2.3251,2.3378,2.3739,2.4691,2.5228,2.5629,2.5911,2.6366,2.6768,2.6848,2.6839,2.6863,2.6918,2.7036,2.6994,2.6578,2.6389,2.6094,2.5471,2.5211,2.4978,2.4625,2.4908,2.4851,2.3998,2.4328,2.4313,2.3641,2.3304,2.2994,2.2723,2.2263,2.1996,2.1996,2.2249,2.2709,2.3319,2.3299,2.2817,2.1934,2.1126,2.0572,2.0318,2.0318,2.07,2.1398,2.2179,2.3046,2.3963,2.4399,2.4791,2.5068,2.5246,2.5476,2.568,2.5852,2.6068,2.626,2.6502,2.6621,2.6689,2.0566,2.0566,2.0644,2.0819,2.1272,2.1883,2.2478,2.3644,2.4459,2.4737,2.5037,2.5219,2.5043,2.4545,2.4227,2.4289,2.4141,2.4144,2.4305,2.4637,2.4171,2.2724,2.2724,2.2166,2.0898,2.0772,2.0673,2.051,2.0271,2.0131,2.0042,2.0042,2.0233,2.061,2.1166,2.1827,2.2512,2.2934,2.329,2.3595,2.3595,2.3595,2.3595,2.3595,2.3325,2.2966,2.2966,2.2682,2.2368,2.2817,2.2966,2.3041,2.346,2.3595,2.3595,2.3595,2.3889,2.442,2.5106,2.5913,2.6567,2.6759,2.7284,2.7802,2.7963,2.797,2.7994,2.801,2.8089,2.805,2.7745,2.7499,2.7206,2.6761,2.6512,2.6259,2.594,2.6029,2.583,2.5016,2.4881,2.4672,2.3984,2.3526,2.3172,2.3038,2.2678,2.2402,2.2402,2.2799,2.3172,2.3509,2.3566,2.3385,2.2966,2.1874,2.1231,2.1021,2.106,2.1308,2.1877,2.2757,2.3603,2.4389,2.4855,2.5246,2.5584,2.5754,2.5937,2.6118,2.6277,2.6382,2.6469,2.6556,2.6623,2.6725,2.0566,2.0566,2.0566,2.0566,2.1118,2.1731,2.2327,2.3423,2.4432,2.5241,2.5281,2.5423,2.5611,2.476,2.4302,2.4413,2.4459,2.458,2.4778,2.5508,2.5117,2.3294,2.3447,2.2935,2.145,2.1423,2.1215,2.0795,2.066,2.0472,2.0233,2.0246,2.0334,2.061,2.1166,2.1841,2.2512,2.2934,2.329,2.3595,2.3595,2.3595,2.3595,2.3595,2.3595,2.3595,2.3595,2.3595,2.3595,2.3595,2.3595,2.3595,2.3595,2.3595,2.3595,2.361,2.4161,2.4865,2.5201,2.6582,2.7889,2.7727,2.7891,2.8162,2.8357,2.8301,2.8223,2.8285,2.8129,2.7947,2.7664,2.729,2.6879,2.6588,2.6274,2.6047,2.5831,2.6404,2.6522,2.5689,2.5615,2.536,2.4642,2.394,2.3466,2.3319,2.3038,2.2889,2.2889,2.3172,2.3363,2.3509,2.3566,2.3595,2.3595,2.2981,2.2353,2.1695,2.1798,2.1862,2.2063,2.3048,2.367,2.4062,2.5148,2.5733,2.5917,2.6189,2.6295,2.633,2.6537,2.6606,2.6606,2.6674,2.6691,2.6691,2.0566,2.0566,2.0644,2.0819,2.1272,2.1949,2.2703,2.3779,2.4791,2.5465,2.5889,2.6201,2.6337,2.5588,2.5288,2.5634,2.5316,2.5412,2.5974,2.6433,2.6231,2.5228,2.4504,2.3533,2.2217,2.203,2.1841,2.1636,2.1632,2.1544,2.125,2.1603,2.1668,2.1531,2.1984,2.2373,2.2649,2.2979,2.329,2.3595,2.3595,2.3595,2.3595,2.3595,2.3595,2.3595,2.3595,2.3595,2.3595,2.3595,2.3595,2.3595,2.3595,2.3595,2.3684,2.4178,2.4596,2.5211,2.6427,2.748,2.8236,2.8414,2.9049,2.9633,2.9823,2.9823,2.9782,2.9658,2.9433,2.9119,2.8726,2.8322,2.7922,2.759,2.7397,2.7236,2.709,2.7255,2.7085,2.6378,2.5899,2.536,2.4642,2.394,2.3466,2.3466,2.3275,2.3216,2.3319,2.3407,2.3494,2.3566,2.361,2.3595,2.3595,2.2981,2.2604,2.2475,2.2612,2.2812,2.3079,2.4045,2.4696,2.5148,2.5656,2.601,2.6243,2.6452,2.6555,2.659,2.664,2.6674,2.6674,2.6691,2.6691,2.6691,2.0566,2.0654,2.0809,2.0984,2.1578,2.2252,2.3001,2.407,2.5016,2.5606,2.6245,2.6658,2.693,2.6168,2.591,2.639,2.6045,2.6122,2.6788,2.7026,2.6901,2.6273,2.5614,2.4718,2.3533,2.3439,2.325,2.3011,2.292,2.2709,2.2414,2.271,2.2563,2.2153,2.2655,2.2828,2.2799,2.3127,2.3392,2.3595,2.3595,2.3595,2.3595,2.3595,2.3595,2.3595,2.3595,2.3595,2.3595,2.3595,2.3595,2.3595,2.3595,2.3789,2.4088,2.4462,2.5138,2.5955,2.7041,2.7875,2.8564,2.9021,2.9734,3.0359,3.0609,3.0568,3.0426,3.0172,2.9853,2.9454,2.8935,2.8574,2.822,2.7955,2.779,2.7675,2.7625,2.7625,2.7475,2.7021,2.6393,2.5839,2.5435,2.4761,2.4328,2.4328,2.4283,2.4238,2.4328,2.4328,2.4253,2.4014,2.4014,2.3879,2.3696,2.3363,2.3209,2.3277,2.3498,2.3782,2.4155,2.49,2.546,2.5901,2.6137,2.6383,2.6521,2.6657,2.6691,2.6691,2.6691,2.6691,2.6691,2.6674,2.664,2.664,2.0644,2.0819,2.0984,2.1205,2.1949,2.2703,2.3298,2.4325,2.5157,2.5824,2.6327,2.6777,2.718,2.6514,2.6214,2.6701,2.6651,2.6841,2.7386,2.7401,2.722,2.6707,2.6677,2.6247,2.533,2.5198,2.4946,2.4525,2.4333,2.4044,2.3634,2.3689,2.3358,2.2674,2.3328,2.3371,2.2934,2.3319,2.3538,2.3595,2.3595,2.3595,2.3595,2.3595,2.3595,2.3595,2.3595,2.3595,2.3595,2.3595,2.364,2.3684,2.3684,2.4118,2.4612,2.4716,2.5753,2.6907,2.7206,2.7998,2.8873,2.9454,3.0027,3.0526,3.0814,3.0651,3.0342,3.0027,2.9589,2.9106,2.8574,2.822,2.7955,2.779,2.7675,2.7625,2.7625,2.7625,2.7625,2.7625,2.6991,2.6587,2.6587,2.5989,2.5615,2.5615,2.5615,2.5615,2.5615,2.5615,2.533,2.4686,2.4672,2.4462,2.3978,2.4046,2.4085,2.4067,2.44,2.4798,2.5265,2.5707,2.6125,2.6601,2.6826,2.6894,2.6826,2.6944,2.6893,2.6691,2.6691,2.6691,2.6674,2.6606,2.6572,2.6537,2.0819,2.0984,2.1282,2.1807,2.2478,2.3139,2.407,2.4507,2.5018,2.5695,2.5857,2.6087,2.6516,2.6243,2.6284,2.7003,2.7147,2.7321,2.7524,2.7575,2.75,2.7415,2.7365,2.729,2.7041,2.5931,2.5206,2.4903,2.5142,2.5095,2.4679,2.5261,2.4948,2.3864,2.4324,2.404,2.3231,2.3422,2.3538,2.3595,2.3595,2.3595,2.3595,2.3595,2.3595,2.3595,2.3595,2.3595,2.3595,2.3595,2.3954,2.4403,2.4403,2.4462,2.4791,2.5869,2.6555,2.7142,2.7931,2.856,2.9106,2.9633,3.0,3.0316,3.0526,3.0359,3.0017,2.9766,2.9227,2.8732,2.8317,2.8039,2.779,2.7675,2.7625,2.7625,2.7625,2.7625,2.7625,2.7625,2.6991,2.6587,2.6587,2.5989,2.5615,2.5615,2.5615,2.5615,2.5615,2.5615,2.554,2.5405,2.539,2.5362,2.5395,2.5146,2.4798,2.4416,2.4791,2.5534,2.6575,2.7042,2.7788,2.868,2.875,2.8442,2.7793,2.776,2.7352,2.6691,2.6691,2.6674,2.6606,2.6469,2.6365,2.6206,2.1128,2.1436,2.1807,2.2402,2.2878,2.344,2.4261,2.4594,2.4921,2.564,2.5955,2.6254,2.6816,2.661,2.6652,2.7165,2.7321,2.7437,2.7575,2.7625,2.7625,2.7625,2.7625,2.7625,2.7625,2.6837,2.6332,2.6035,2.6214,2.6064,2.5735,2.6236,2.5759,2.4525,2.4917,2.4452,2.3407,2.3494,2.3566,2.3595,2.3595,2.3595,2.3595,2.3595,2.3595,2.3595,2.3595,2.3819,2.4148,2.4448,2.4807,2.5091,2.5091,2.5315,2.5689,2.6393,2.6958,2.7534,2.8143,2.8621,2.9013,2.9544,3.0041,3.0424,3.0441,3.0231,2.9886,2.9515,2.8997,2.8494,2.8186,2.789,2.7675,2.7625,2.7625,2.7625,2.7625,2.7625,2.7625,2.7625,2.726,2.7066,2.7066,2.6752,2.6542,2.6542,2.6542,2.6542,2.6542,2.6542,2.6456,2.6189,2.6189,2.6149,2.6123,2.6096,2.611,2.6166,2.6044,2.6662,2.7918,2.8405,2.8956,2.9591,2.9641,2.9108,2.8252,2.8101,2.7504,2.6657,2.6657,2.6555,2.6452,2.626,2.5994,2.5577,2.141,2.1834,2.2339,2.2834,2.3202,2.3618,2.435,2.4579,2.4951,2.5628,2.6089,2.6562,2.7165,2.7089,2.7072,2.7225,2.7335,2.7488,2.7575,2.7625,2.7625,2.7625,2.7625,2.7625,2.7625,2.7625,2.7473,2.7181,2.7093,2.687,2.6578,2.6765,2.6134,2.4883,2.5269,2.4729,2.3494,2.3566,2.3595,2.3595,2.3595,2.3595,2.3595,2.3595,2.3595,2.3595,2.3638,2.4162,2.4927,2.5467,2.5736,2.5826,2.5826,2.6153,2.6617,2.6722,2.7255,2.789,2.8137,2.8462,2.8858,2.9478,3.014,3.0629,3.0533,3.0375,3.0077,2.9496,2.8983,2.8488,2.8069,2.779,2.7625,2.7625,2.7625,2.7625,2.7625,2.7625,2.7625,2.7625,2.773,2.779,2.779,2.779,2.779,2.779,2.7634,2.7625,2.7625,2.7625,2.742,2.6992,2.6977,2.6976,2.6882,2.7067,2.7592,2.8448,2.7893,2.8196,2.9259,2.9678,3.0084,3.0354,3.0322,2.9739,2.8781,2.8425,2.7708,2.6791,2.6622,2.6417,2.6189,2.5885,2.5438,2.4855,2.1512,2.1869,2.2308,2.2765,2.3264,2.3899,2.4558,2.4784,2.5101,2.5714,2.5892,2.6118,2.654,2.703,2.7321,2.735,2.7488,2.7575,2.7625,2.7625,2.7625,2.7625,2.7625,2.7625,2.7625,2.7625,2.7473,2.7181,2.7181,2.7026,2.6779,2.7026,2.6438,2.5154,2.5473,2.4806,2.361,2.361,2.3595,2.3595,2.3595,2.3595,2.3595,2.3595,2.3595,2.3595,2.3739,2.464,2.5803,2.5894,2.6272,2.6627,2.6627,2.6624,2.6692,2.7275,2.773,2.8005,2.8137,2.8542,2.9061,2.9832,3.0306,3.0607,3.0942,3.1118,3.0927,2.9845,2.936,2.8859,2.7996,2.7675,2.7625,2.7625,2.7625,2.7625,2.7625,2.7625,2.7625,2.7625,2.8098,2.8457,2.8457,2.8457,2.8457,2.8457,2.7904,2.7625,2.7625,2.7625,2.7645,2.7655,2.7769,2.8036,2.842,2.8335,2.8923,3.0268,3.0228,3.0369,3.0646,3.1001,3.1553,3.2221,3.2036,3.1376,3.0317,2.9488,2.8524,2.7481,2.6721,2.6225,2.5881,2.5208,2.4791,2.4523,2.175,2.2147,2.2627,2.3282,2.3603,2.4064,2.4682,2.4878,2.5154,2.5783,2.6103,2.6418,2.6841,2.7269,2.7539,2.7539,2.7575,2.7625,2.7625,2.7625,2.7625,2.7625,2.7625,2.7625,2.7625,2.7625,2.7539,2.7284,2.7233,2.7078,2.6779,2.7078,2.6488,2.5202,2.5473,2.4866,2.3595,2.3595,2.3595,2.3595,2.3595,2.3595,2.3595,2.3595,2.3653,2.3844,2.4773,2.5848,2.6826,2.7115,2.7354,2.7467,2.7403,2.7255,2.72,2.7535,2.774,2.7905,2.8054,2.8593,2.9211,2.9652,3.0423,3.1146,3.1187,3.1545,3.1529,3.0273,2.9526,2.8951,2.8444,2.7931,2.7625,2.7625,2.7625,2.7625,2.7625,2.7625,2.7724,2.8098,2.8742,2.9146,2.9146,2.9146,2.9146,2.9146,2.8861,2.8532,2.8173,2.8246,2.8218,2.8054,2.8253,2.8654,2.9212,2.941,3.003,3.105,3.1276,3.1481,3.1689,3.2027,3.232,3.2606,3.2352,3.1655,3.0644,2.9994,2.887,2.747,2.6902,2.6118,2.5208,2.4695,2.4385,2.4193]}]]